GFSSE_925_spd_000.txt.gz
Wind_Speed
14 15 15 13 14 15 12 10 7 7 7 6 5 5 5 5 4 5 4 4 6 6 7 7 5 6 6 6 7 9 9 9 8 10 10 9 9 10 9 12 15 12 9
18 15 14 14 17 14 11 9 7 6 8 6 4 5 4 7 6 5 5 6 7 6 6 7 6 6 7 5 9 8 8 6 7 7 7 12 13 11 11 11 11 11 15
17 16 15 17 15 14 12 10 9 8 6 5 4 4 5 5 4 4 4 4 5 6 6 6 5 6 6 5 7 5 6 6 8 8 5 5 11 10 10 11 10 12 12
19 17 15 16 16 14 12 10 8 8 6 5 5 3 6 5 4 5 5 4 4 3 5 5 6 6 6 6 5 4 4 6 8 7 7 9 10 10 10 9 9 9 11
15 11 19 16 15 15 13 11 9 8 5 4 5 4 5 4 4 4 3 3 2 4 4 3 4 4 4 4 4 2 2 8 6 7 4 7 9 8 9 9 10 8 9
14 16 19 16 15 14 13 11 10 9 7 6 5 5 3 4 3 3 2 2 1 1 1 1 2 2 2 2 3 2 3 7 5 8 8 4 7 8 8 9 9 10 10
14 13 14 15 15 13 12 11 10 10 8 7 6 3 2 1 2 2 1 2 2 2 1 1 2 3 2 2 2 2 3 5 5 6 5 7 8 6 7 7 7 6 7
13 12 10 15 15 12 11 12 10 9 10 9 7 4 3 2 2 3 3 3 4 3 2 2 3 4 3 2 3 4 3 5 4 5 4 3 7 5 4 5 6 5 5
12 10 11 14 13 12 12 13 13 12 12 10 8 6 4 6 5 5 4 5 6 5 4 4 5 5 6 5 5 6 5 7 5 5 6 5 6 4 3 3 4 4 4
11 13 13 12 14 12 13 15 14 14 12 12 12 8 9 8 8 8 7 6 6 6 5 6 6 6 8 8 8 8 7 8 7 5 5 8 7 6 5 4 3 3 3
13 14 14 15 13 13 13 14 16 16 14 14 12 12 12 10 10 10 10 11 8 8 7 7 7 8 10 10 9 10 9 9 6 7 10 12 10 9 8 7 5 5 4
16 17 16 15 15 14 14 17 15 17 17 16 15 12 12 10 12 11 13 13 13 12 10 8 9 9 9 9 7 10 11 10 7 11 13 13 12 11 10 9 8 8 7
18 18 19 18 17 16 16 14 13 18 16 16 15 15 12 11 17 15 14 14 14 14 13 10 11 11 9 7 11 10 7 9 11 13 14 15 15 14 12 13 12 11 10
20 20 21 21 20 18 18 18 16 17 19 17 19 19 19 17 17 15 15 17 12 9 10 14 9 8 9 14 15 14 14 15 15 16 16 19 19 18 16 15 15 15 14
23 24 23 23 21 21 20 20 19 19 20 19 18 20 20 19 19 17 16 15 16 14 14 13 15 15 16 14 15 17 18 18 19 18 19 20 20 21 22 20 19 18 18
20 21 23 24 26 22 23 21 20 20 20 21 20 21 22 22 20 19 18 19 18 16 15 16 17 17 19 18 19 20 22 23 24 23 23 24 25 25 24 24 23 23 22
20 21 24 26 27 28 23 23 22 20 20 20 23 21 24 25 24 21 21 20 21 20 20 19 19 20 21 22 23 23 23 25 25 25 27 28 28 28 28 28 26 26 26
22 23 25 26 28 27 27 23 22 22 20 22 23 24 25 27 27 26 25 26 24 24 23 23 23 24 25 25 24 24 24 25 26 28 28 30 30 32 32 32 31 29 29
23 25 21 23 26 26 26 25 23 22 23 25 25 27 29 30 30 31 30 30 27 27 27 27 27 26 26 26 27 27 27 29 29 30 32 32 31 32 33 35 35 34 33
15 21 23 25 26 28 27 24 24 23 26 26 28 30 31 30 31 33 34 33 29 30 31 30 30 27 29 28 26 24 27 31 33 32 32 31 34 35 35 35 36 37 36
16 14 17 24 25 27 27 25 24 26 26 26 30 32 31 32 33 34 37 34 32 33 34 33 31 31 31 27 24 26 27 28 29 33 34 35 37 37 34 35 38 39 38
19 17 14 13 15 23 28 27 26 25 24 30 31 35 36 34 33 33 36 34 32 31 31 33 32 27 27 27 20 12 6 15 30 35 38 38 39 38 40 38 37 37 36
22 18 14 13 12 11 14 22 21 23 24 22 28 28 28 29 30 30 31 31 30 31 31 31 33 32 23 25 30 16 3 6 2 20 29 34 34 35 31 30 32 34 35
19 18 16 11 7 8 6 10 18 20 18 23 24 24 25 25 30 33 34 33 34 32 32 32 33 35 29 25 21 33 34 21 5 4 15 25 26 28 31 29 30 30 31
19 19 21 18 16 11 9 9 11 16 22 24 24 23 23 25 27 30 33 33 35 33 34 33 31 32 33 30 29 22 25 30 31 12 11 11 25 30 30 30 31 32 32
18 20 20 19 19 16 13 11 11 14 18 19 22 22 23 23 23 24 27 31 33 34 33 34 34 34 35 33 34 29 29 14 14 11 12 15 14 25 29 36 38 37 37

GFSSE_925_spd_003.txt.gz
Wind_Speed
18 20 19 15 15 16 14 11 9 8 8 6 6 5 4 4 4 4 4 4 3 6 6 5 5 4 6 6 5 8 8 8 8 9 10 8 9 8 8 10 14 9 7
20 21 19 15 17 16 13 10 9 7 8 6 5 5 5 6 6 5 5 5 5 6 6 5 5 5 3 5 6 7 6 6 6 6 8 11 11 9 7 9 8 13 13
21 20 18 16 18 15 13 10 8 7 7 7 5 5 8 6 5 5 4 5 6 6 5 5 6 5 4 5 7 2 4 7 6 3 2 7 8 7 8 7 10 9 11
17 18 18 18 17 15 13 11 9 9 7 7 7 6 7 7 5 5 5 5 4 4 5 6 6 5 4 5 3 2 3 9 8 8 8 10 10 7 6 6 7 9 9
18 16 18 19 17 15 13 12 8 10 7 6 7 4 6 6 5 4 4 4 4 4 4 4 5 4 4 4 4 4 5 9 7 5 6 9 6 7 7 7 7 6 7
18 15 17 17 17 16 15 10 8 9 7 6 7 6 4 5 4 3 4 4 2 3 3 3 7 6 5 5 6 4 8 9 5 7 7 8 7 9 7 7 7 7 7
17 18 21 17 16 15 13 10 9 10 8 8 8 7 5 5 4 5 2 4 4 4 3 3 5 7 5 5 5 6 9 9 7 6 9 8 10 8 7 6 5 5 6
18 19 20 17 17 18 13 12 11 11 10 10 10 6 8 5 6 6 4 6 6 5 4 4 4 6 6 5 5 7 9 10 7 5 10 7 9 8 7 6 5 4 4
17 19 15 16 18 16 14 14 11 13 12 11 10 9 8 10 8 8 6 7 8 7 6 5 6 7 9 9 8 9 9 11 9 6 9 8 9 8 6 5 5 5 5
17 15 14 13 19 18 16 16 13 17 14 15 15 11 12 11 12 11 9 8 8 8 7 7 8 9 11 11 11 11 10 12 13 11 7 13 11 10 8 7 7 7 7
17 16 17 17 15 15 17 19 17 17 16 17 17 16 13 14 13 13 12 11 10 9 9 10 10 10 12 14 14 14 13 14 16 13 10 12 12 12 11 10 9 9 8
22 22 21 21 18 14 15 16 19 20 22 21 20 19 16 16 14 12 12 11 13 13 13 12 11 12 15 15 15 14 16 15 18 16 16 17 16 14 14 13 12 11 11
25 23 23 21 20 18 22 21 21 19 22 22 22 20 15 13 15 14 18 16 15 16 17 16 16 17 17 16 17 16 14 17 19 18 16 19 19 17 17 16 16 15 15
23 24 24 24 23 24 23 20 22 19 21 21 20 20 18 15 16 19 19 19 18 17 15 15 17 14 16 17 19 18 19 16 19 19 20 22 22 21 20 20 20 20 19
24 23 26 26 26 25 24 23 21 21 20 22 19 20 23 21 19 21 22 21 20 19 19 18 18 20 19 19 20 22 22 23 22 22 23 24 25 26 24 24 24 24 24
23 28 26 27 27 27 27 25 25 23 22 21 22 22 25 26 26 25 25 25 24 24 23 21 22 23 23 23 25 23 26 28 27 27 27 27 28 30 30 27 28 28 28
28 26 28 27 29 29 29 27 26 24 24 26 27 26 28 29 30 29 29 29 29 27 27 24 24 26 26 24 28 28 28 28 30 31 32 33 33 34 35 34 32 31 32
26 25 26 28 29 31 31 29 29 27 26 28 28 28 30 31 31 32 33 34 33 29 30 29 28 28 30 30 31 31 31 31 33 34 35 35 36 38 39 40 39 38 37
21 28 27 29 31 31 32 34 30 30 30 30 29 30 32 32 33 34 37 38 34 31 32 33 33 32 33 33 34 33 34 34 36 35 38 39 40 40 41 42 42 42 42
13 3 23 27 33 33 32 32 32 29 31 31 31 33 34 33 34 34 37 37 35 32 34 33 34 33 35 34 33 31 35 37 39 41 42 42 42 44 45 45 44 44 45
16 10 11 4 25 34 34 31 30 32 32 30 30 31 33 32 32 33 35 37 36 36 38 38 37 37 37 37 28 28 36 37 40 42 42 45 47 46 44 43 45 46 47
23 21 15 12 13 8 28 33 31 32 28 31 30 32 33 34 34 34 36 39 39 35 36 39 37 31 32 28 21 9 7 17 33 39 41 44 42 42 44 47 48 47 47
25 24 22 18 12 16 2 19 22 17 18 20 21 25 27 29 32 35 37 38 36 36 34 33 34 32 28 26 30 16 3 6 2 10 28 35 34 36 40 42 44 45 46
19 21 22 22 23 19 16 13 6 11 16 21 23 23 25 27 29 30 33 37 38 37 35 34 32 34 30 29 22 36 36 21 4 5 12 19 23 33 37 41 44 45 40
18 21 22 22 24 21 18 16 15 14 14 15 15 17 19 20 21 22 29 36 36 37 38 35 30 29 30 30 30 26 26 31 31 12 12 13 22 32 38 39 39 41 41
18 18 20 22 23 22 21 20 19 18 17 17 17 17 18 19 19 19 20 23 30 33 36 38 37 32 32 30 30 30 28 13 12 9 11 14 16 31 30 36 43 45 44

GFSSE_925_spd_006.txt.gz
Wind_Speed
20 20 21 18 16 16 14 12 9 8 7 7 6 5 4 4 4 4 3 1 1 3 3 4 5 4 4 5 4 6 6 7 7 7 6 6 6 6 6 6 7 5 5
17 23 22 18 18 18 14 12 10 9 7 7 5 5 6 6 6 5 5 3 4 4 4 4 7 6 4 4 5 5 4 5 5 5 7 10 8 6 5 5 9 8 9
20 23 22 19 18 16 14 12 10 9 9 7 6 6 10 6 5 5 4 3 4 4 4 5 6 7 5 7 7 3 4 6 4 4 7 8 8 6 6 6 6 8 9
20 23 21 18 20 16 14 11 9 9 8 7 8 8 9 8 6 6 5 4 4 4 4 8 6 6 5 5 4 4 4 6 2 2 10 8 8 6 5 6 6 6 6
20 20 20 20 20 17 14 12 9 9 8 7 8 5 8 7 5 6 4 6 5 6 4 6 7 5 4 5 4 6 5 6 2 5 12 10 8 5 5 5 6 4 4
19 19 20 21 20 17 16 13 10 11 8 8 8 8 7 6 6 5 6 7 6 5 5 5 8 7 7 7 7 6 6 7 4 4 11 8 6 7 7 6 7 7 6
21 20 20 21 19 18 17 15 11 11 11 9 9 10 8 10 7 7 5 6 6 6 5 6 7 10 8 8 10 9 10 10 7 8 11 8 5 8 7 7 7 6 6
21 21 22 21 19 18 18 15 12 13 12 12 13 12 12 7 8 8 7 7 8 7 6 6 7 10 10 10 11 10 13 13 9 7 13 10 8 10 10 9 7 7 6
19 23 24 22 21 20 19 16 13 13 14 14 14 12 11 11 11 9 8 8 10 10 9 8 9 10 12 13 12 13 14 16 13 9 15 13 11 12 12 11 10 10 9
21 22 24 21 21 22 20 19 15 13 16 18 16 15 14 13 13 11 11 11 12 12 11 11 12 12 13 15 15 15 16 17 17 13 17 16 14 15 14 13 12 11 11
23 24 23 21 21 23 22 19 18 16 20 18 18 18 15 15 15 13 15 14 14 15 14 15 14 14 15 17 18 18 18 18 20 20 18 18 19 18 18 17 16 15 15
26 27 25 23 22 22 20 20 20 19 20 20 20 21 20 16 16 17 17 16 15 17 18 17 17 17 17 20 20 20 21 21 21 24 23 21 21 20 20 20 19 18 18
27 26 28 26 24 23 21 20 19 21 21 23 23 22 21 19 20 19 20 20 20 20 21 20 20 21 20 21 21 22 23 23 23 25 26 25 25 24 23 24 23 22 21
24 27 25 27 27 26 23 21 21 22 23 25 26 24 24 23 21 22 23 24 25 23 23 22 21 22 23 23 23 24 25 25 24 26 29 28 28 28 27 27 27 26 25
25 26 28 27 28 29 27 24 23 25 27 23 25 24 25 25 25 22 25 25 26 25 24 24 23 23 24 23 24 26 27 27 28 27 29 29 31 32 30 30 29 29 29
28 29 28 31 30 28 30 29 27 26 26 25 24 26 25 28 28 28 28 29 30 28 27 27 27 26 26 26 27 27 29 30 31 32 33 34 33 35 36 34 33 32 32
28 28 28 30 31 32 32 32 30 27 27 27 26 26 28 29 32 32 33 33 33 31 29 29 30 29 28 29 32 30 31 34 34 35 37 38 37 38 39 38 36 36 36
23 28 28 29 33 32 34 33 32 30 30 28 28 29 29 31 32 32 33 35 34 32 30 32 32 33 33 33 34 36 35 36 37 38 40 40 42 43 44 45 44 42 41
7 19 26 27 31 32 34 33 33 32 31 31 29 30 31 32 32 32 34 36 36 36 34 33 35 35 33 35 37 38 39 39 41 41 43 44 45 46 48 48 47 48 48
9 12 5 19 26 29 31 33 32 31 31 32 32 32 32 32 31 32 34 36 37 37 37 36 37 35 37 31 27 30 32 37 42 45 46 46 47 49 50 51 51 52 50
20 15 11 15 4 22 27 28 29 31 33 33 33 32 32 32 31 32 33 35 37 38 40 37 36 34 35 30 27 28 31 39 43 44 39 41 46 46 49 51 51 51 52
24 24 20 15 18 7 18 24 19 18 23 31 31 29 29 30 30 31 33 36 37 38 37 36 34 30 28 25 17 14 7 17 28 34 37 40 42 38 39 43 47 48 50
25 25 25 22 21 19 8 9 12 11 9 11 14 18 21 22 25 28 31 36 37 36 36 34 33 30 27 27 29 15 3 6 2 13 20 24 29 33 38 38 40 45 47
22 25 26 27 27 26 21 18 16 12 9 10 11 11 12 12 14 16 20 26 33 35 35 38 35 33 28 25 24 30 35 26 7 10 20 18 22 29 33 36 38 40 42
20 23 24 26 28 27 27 25 23 21 18 16 17 18 18 18 18 19 20 20 19 26 32 33 34 30 29 28 27 25 23 27 31 12 12 12 25 30 34 34 38 39 39
17 19 21 24 25 24 24 24 24 23 21 22 21 21 22 22 22 24 25 25 23 22 22 26 30 30 30 30 30 29 26 12 9 10 11 13 15 29 29 33 37 38 38

GFSSE_925_spd_009.txt.gz
Wind_Speed
20 19 20 19 16 16 14 12 10 8 6 5 5 3 3 3 3 5 4 3 1 0 1 4 4 4 3 1 3 4 3 3 4 3 2 4 4 3 4 4 4 4 3
17 20 21 19 17 16 13 12 9 8 7 6 5 4 4 4 3 5 6 3 3 2 2 3 6 5 5 3 4 2 3 3 1 2 3 6 5 2 1 3 5 5 7
16 22 23 21 18 18 15 12 9 8 7 7 6 5 7 4 4 4 2 2 4 3 2 3 6 7 6 8 7 4 4 3 3 4 4 5 5 3 4 4 5 7 7
16 22 23 21 19 19 14 12 10 9 9 8 8 6 8 4 5 5 5 4 3 3 4 5 5 7 8 6 6 6 5 5 5 6 9 8 5 5 4 5 4 3 3
20 20 21 20 19 18 15 14 11 10 9 9 9 6 9 9 5 5 4 5 5 5 4 7 6 6 6 8 8 9 7 6 6 4 9 10 9 6 5 5 5 4 5
18 19 20 19 20 17 15 14 12 11 10 10 10 8 9 8 5 6 5 6 6 6 6 6 9 6 7 7 9 8 9 8 7 6 11 10 9 8 7 6 7 6 6
18 18 19 20 20 18 16 15 12 11 11 10 7 9 8 9 9 8 7 7 8 8 8 7 8 10 8 10 11 11 10 10 9 9 12 12 10 9 9 7 7 7 7
18 19 19 20 20 18 17 16 13 12 12 12 10 10 12 8 7 8 9 9 10 10 9 8 9 10 12 12 12 12 12 13 12 9 14 14 12 11 11 11 11 10 10
19 19 20 21 21 19 18 16 15 13 13 14 13 13 14 14 9 9 10 10 12 12 11 11 11 11 12 14 14 14 14 16 16 14 14 17 15 13 14 13 13 13 13
20 20 20 22 21 21 20 19 17 14 13 15 16 16 15 15 15 15 14 15 14 14 14 14 13 12 13 14 16 17 18 18 19 19 16 19 18 16 16 16 16 16 16
21 21 22 22 22 21 21 21 19 17 14 17 18 18 17 16 16 18 17 18 17 16 16 16 15 14 16 17 19 20 20 21 21 23 22 21 22 20 19 20 19 19 19
24 23 23 23 22 21 22 22 21 19 18 19 19 19 20 21 19 18 19 19 19 18 18 18 17 17 19 20 20 21 24 24 24 25 26 25 25 23 23 24 24 23 23
23 22 25 25 23 22 23 22 22 22 20 20 21 21 22 22 21 21 22 22 22 20 20 20 21 21 22 23 23 23 25 27 28 28 29 29 31 27 26 27 27 27 26
21 22 25 25 25 25 24 24 21 22 21 22 22 22 23 24 25 25 25 24 23 23 23 23 24 25 24 25 25 26 27 29 30 30 31 30 32 31 29 30 30 30 30
22 23 24 24 27 27 28 27 23 23 23 22 21 23 25 27 28 27 27 25 26 26 26 26 26 26 27 25 26 28 29 31 32 33 34 32 33 36 34 32 33 32 32
23 25 25 28 29 28 29 30 28 25 23 23 23 23 25 27 27 28 28 29 29 27 27 28 29 29 30 29 30 30 32 32 33 34 37 36 36 36 39 35 36 36 35
25 26 27 28 29 30 30 31 30 28 26 26 26 25 25 26 28 28 29 31 31 31 30 30 31 32 33 32 34 34 34 35 37 38 39 41 40 40 41 42 38 39 40
13 21 25 26 28 30 33 32 31 31 29 28 28 27 27 27 28 29 30 32 33 32 33 33 33 34 35 36 38 39 39 38 39 41 41 42 44 44 44 44 46 46 45
11 13 12 18 23 26 30 32 31 30 31 31 30 30 29 28 29 29 32 34 35 34 35 36 36 34 34 33 34 37 39 41 42 43 44 45 46 46 47 48 49 49 50
12 13 16 5 10 18 22 25 28 28 30 30 32 31 31 30 30 30 32 35 36 37 38 38 38 36 36 33 28 30 29 33 37 41 42 41 42 45 46 49 50 50 51
25 21 19 18 12 9 17 20 21 26 28 29 29 29 30 29 29 30 31 34 35 37 39 35 33 31 30 29 21 22 27 33 38 38 38 39 40 43 41 43 44 46 47
25 25 24 24 23 13 5 10 8 5 8 11 13 16 18 22 24 26 28 31 32 33 35 34 30 26 24 26 14 10 5 12 24 31 34 37 37 38 37 37 39 40 41
25 26 27 28 27 25 16 4 3 5 7 13 15 15 14 13 14 14 16 18 22 26 30 30 31 27 24 23 25 12 3 5 2 18 25 29 32 33 34 36 37 37 36
22 24 27 29 30 29 27 27 25 22 16 15 16 17 18 18 17 19 18 19 19 19 20 25 28 24 24 21 22 24 32 26 7 10 19 23 27 32 37 39 39 39 39
19 22 24 26 27 26 25 24 23 22 19 18 19 18 18 18 19 22 23 24 24 24 23 22 23 22 23 24 23 24 23 23 27 10 12 9 24 30 36 37 41 41 41
17 20 22 25 25 24 24 24 23 22 20 21 21 22 22 22 22 23 25 26 26 27 27 26 25 25 24 24 25 25 23 15 13 10 9 11 11 23 32 32 35 39 40

GFSSE_925_spd_012.txt.gz
Wind_Speed
15 17 19 18 16 14 15 11 10 8 6 5 5 4 3 4 4 3 3 5 4 3 3 4 5 4 3 3 2 2 1 2 1 0 2 4 4 3 4 2 2 4 3
12 18 20 18 16 14 13 12 10 8 7 6 6 4 4 4 2 4 5 5 3 2 3 3 5 5 4 5 6 5 3 3 1 1 1 6 7 4 5 3 3 5 6
14 18 20 19 16 15 13 12 9 8 6 7 6 5 5 3 2 3 1 0 3 2 3 3 4 8 5 8 9 5 3 4 4 5 4 6 6 5 5 6 4 6 8
13 17 20 20 17 16 13 11 10 9 7 7 6 6 8 6 2 4 3 5 3 4 4 5 5 7 7 6 6 4 5 5 6 7 8 8 7 6 7 6 4 4 4
13 17 18 19 17 17 14 11 10 8 9 8 8 7 9 6 3 6 6 5 5 5 5 6 6 6 7 9 7 8 9 6 8 8 9 12 9 7 7 7 8 7 8
15 16 17 18 16 17 14 11 10 9 8 9 8 7 8 8 5 5 5 4 6 6 7 7 10 7 8 9 8 8 7 7 10 8 7 10 10 9 8 8 9 9 8
15 15 17 17 17 16 14 13 11 10 10 10 8 10 8 8 7 7 7 6 7 8 9 9 9 11 11 10 10 11 12 10 12 11 11 13 13 10 10 9 9 9 8
13 15 16 16 18 16 15 15 13 11 11 10 8 9 9 8 10 9 9 8 8 9 10 10 11 11 12 13 13 12 12 13 15 14 11 14 14 12 12 13 12 11 10
13 14 16 17 18 17 15 15 13 11 12 11 12 11 13 13 11 8 9 10 9 11 12 12 11 12 12 13 14 14 14 15 17 17 16 15 18 17 15 16 15 15 14
13 15 16 17 19 19 18 17 16 14 12 12 14 14 14 15 16 15 15 15 12 12 13 13 14 13 14 14 15 15 17 18 20 20 21 19 18 20 18 18 19 17 16
15 16 17 18 20 22 19 18 18 16 14 13 15 15 16 16 14 16 16 16 16 16 14 14 16 16 16 18 18 19 20 21 22 23 24 24 22 22 21 20 21 21 20
17 18 19 19 21 22 20 19 19 18 17 16 16 17 19 19 18 17 17 16 17 16 16 16 17 18 19 21 22 22 23 24 26 26 26 26 27 24 23 24 24 25 24
15 17 19 18 22 22 20 19 19 19 19 18 18 18 19 19 20 19 19 19 19 19 20 20 21 21 22 23 24 25 25 25 27 28 29 28 28 27 28 27 27 28 28
14 17 19 19 23 23 21 21 19 19 20 20 19 19 20 20 20 21 21 21 21 20 21 22 24 24 25 25 26 26 26 27 29 30 31 31 32 32 29 30 30 30 31
18 18 19 19 24 24 24 23 23 21 21 19 20 19 20 21 23 22 23 23 23 22 23 24 25 26 27 28 28 28 29 29 29 31 33 33 33 34 33 31 32 32 33
18 21 20 22 24 25 25 26 26 24 22 21 21 21 21 22 23 24 24 24 25 25 26 27 29 29 31 31 33 32 33 32 33 33 34 35 34 35 37 35 34 36 37
15 18 19 21 24 25 26 26 26 26 25 24 24 22 22 23 24 24 26 27 28 27 28 29 31 31 33 35 37 37 37 37 37 38 37 38 39 39 39 40 37 37 39
9 14 11 15 19 23 25 26 26 26 25 26 25 24 23 23 24 25 27 29 30 30 30 30 31 33 36 37 38 40 39 38 39 40 40 41 42 44 44 43 43 41 42
8 14 14 5 11 16 19 22 25 24 24 24 25 26 25 25 25 25 28 30 31 32 32 32 34 32 33 32 32 36 35 37 38 38 40 41 41 43 45 45 45 45 46
15 16 17 15 5 4 10 14 17 20 22 22 23 23 24 24 24 24 26 28 29 30 32 32 32 31 30 33 30 29 31 34 35 37 38 39 40 41 42 43 44 45 45
22 21 24 25 19 7 3 4 7 10 13 13 12 12 12 13 14 15 17 19 21 23 26 27 26 27 28 28 20 21 25 28 31 34 35 37 38 38 38 39 40 40 41
24 28 29 29 26 20 12 8 5 8 13 16 15 15 16 15 15 15 15 16 16 17 20 22 24 21 18 21 11 14 5 9 21 28 33 36 36 37 36 39 41 41 40
27 28 30 30 29 26 21 15 14 16 19 22 23 22 20 19 19 18 18 18 19 19 19 19 19 19 19 22 20 12 4 7 9 21 25 28 32 33 37 37 39 42 43
21 24 26 27 27 26 24 26 26 24 21 17 17 17 18 19 19 21 21 22 22 22 23 22 22 20 20 18 20 18 22 22 9 12 16 21 30 36 36 38 39 41 42
18 22 24 26 26 25 25 25 24 22 18 17 18 19 21 21 21 23 25 25 25 25 24 23 24 25 23 20 18 20 21 20 20 7 14 10 24 22 29 35 36 38 41
18 20 22 25 24 23 23 23 23 22 21 22 23 24 24 25 25 26 27 27 26 27 27 27 27 28 27 26 26 22 18 11 11 10 11 13 14 23 26 27 30 35 36

GFSSE_925_spd_015.txt.gz
Wind_Speed
14 18 20 17 17 14 12 11 10 7 5 4 5 5 5 5 4 3 3 3 4 3 4 3 5 3 2 1 1 1 1 1 3 2 3 4 3 2 3 2 4 3 3
11 18 20 18 17 14 13 11 9 7 5 5 5 4 5 4 2 5 3 4 2 1 4 3 5 3 2 3 5 7 9 1 4 3 3 4 6 2 5 4 4 6 5
12 17 20 18 15 13 14 9 8 7 6 6 6 5 6 5 2 2 1 3 1 2 2 2 3 6 7 7 9 7 6 5 4 6 5 4 5 6 5 8 3 5 7
14 17 19 18 15 14 11 7 8 7 6 6 6 6 7 8 3 4 2 3 2 3 4 4 4 4 7 7 4 4 6 6 7 8 7 8 8 8 6 8 7 5 6
15 16 17 19 15 13 14 10 8 7 8 7 7 7 6 7 6 3 6 5 5 6 4 5 6 6 7 9 8 6 6 8 9 10 9 10 10 9 8 9 10 9 8
13 15 16 18 15 14 14 11 8 7 8 7 8 8 7 9 6 3 3 6 4 5 5 6 6 8 7 8 9 8 9 8 10 11 10 8 11 11 9 11 11 12 12
14 15 15 17 15 16 15 11 9 8 8 8 8 7 8 9 7 6 8 4 4 6 6 7 7 8 10 11 10 11 12 13 11 12 13 12 13 13 12 12 12 13 12
14 15 15 15 14 16 14 12 10 9 9 8 9 6 7 6 7 9 9 6 6 7 7 8 8 9 10 11 12 13 14 13 15 13 15 14 15 15 13 13 14 13 13
12 14 15 15 15 15 14 12 11 10 9 10 10 10 10 9 9 6 6 7 8 8 9 10 10 10 11 11 12 13 15 16 15 15 16 16 15 17 16 16 16 16 16
12 13 14 15 15 16 14 13 13 12 11 10 11 12 13 13 13 15 13 13 11 10 11 11 12 13 13 13 13 14 16 17 16 17 17 18 19 18 18 19 19 19 19
12 13 14 15 16 16 17 16 14 14 13 12 11 13 14 15 15 12 12 12 13 14 13 13 13 14 16 17 18 18 19 15 16 17 18 21 22 21 20 21 22 22 22
12 14 15 16 17 17 18 17 16 17 15 15 15 14 16 17 16 15 15 14 14 14 15 15 16 16 16 15 16 19 18 19 19 19 20 24 24 22 24 24 24 25 25
13 15 16 17 18 19 19 18 17 18 18 17 16 15 16 17 17 17 17 16 16 15 16 17 17 18 19 18 19 19 21 21 21 23 25 26 26 25 26 27 28 28 28
13 14 16 17 19 20 20 19 17 18 18 17 16 16 17 17 18 18 17 17 18 18 19 19 20 21 22 22 23 24 24 24 25 26 27 27 26 28 28 29 30 31 31
14 15 17 17 20 21 22 21 19 20 18 16 15 16 17 17 18 17 18 19 19 20 21 22 23 24 25 24 25 26 27 28 28 29 31 33 29 30 31 31 32 33 34
10 13 15 17 19 21 24 22 22 21 19 18 16 16 16 18 19 19 19 20 21 22 23 24 24 24 23 22 25 24 28 28 31 31 32 34 36 34 34 34 32 34 35
5 8 11 15 18 21 22 22 22 21 19 18 18 17 17 18 19 20 21 22 23 23 24 24 24 24 25 24 25 26 25 26 27 29 30 32 33 37 37 38 36 36 37
5 10 10 8 12 16 19 18 19 17 16 16 17 18 18 18 18 20 22 23 24 24 24 23 22 22 22 24 25 28 27 25 28 29 28 29 31 33 36 37 38 39 39
9 11 13 8 0 5 7 9 10 10 10 11 12 14 14 15 16 17 19 20 21 21 21 20 19 17 20 20 20 24 23 25 26 27 27 28 31 35 35 36 39 38 38
16 18 18 17 13 6 4 3 3 6 7 7 8 8 9 9 9 10 12 14 15 16 16 15 16 16 18 21 23 25 25 25 25 25 27 27 27 29 31 31 33 31 36
23 24 26 25 19 15 15 13 16 17 17 20 19 18 18 17 16 15 14 14 15 14 14 14 14 15 17 16 17 16 17 23 25 22 24 24 25 30 29 29 31 31 31
23 26 30 29 24 22 22 18 18 19 23 24 23 22 21 20 19 18 18 18 18 16 16 16 15 15 15 17 13 19 6 14 20 17 22 26 27 28 26 29 29 29 31
22 26 28 30 30 27 23 23 24 24 21 20 21 21 20 18 18 18 18 18 17 17 16 16 14 13 14 16 14 9 6 6 12 22 23 28 25 22 24 26 27 28 28
19 24 27 29 29 28 26 26 26 21 16 14 16 17 18 18 19 20 20 20 19 18 18 17 17 17 16 16 18 11 19 20 8 12 15 24 27 24 25 29 28 28 29
18 22 26 27 28 26 25 23 23 21 17 16 16 17 18 19 19 21 21 21 21 19 19 19 20 20 16 16 15 18 19 18 18 10 15 11 26 25 27 29 30 29 27
17 21 24 26 24 23 23 22 21 19 16 16 18 18 17 17 18 22 22 21 19 18 18 17 17 17 17 17 18 18 17 16 13 12 13 16 18 27 27 27 29 30 29

GFSSE_925_spd_018.txt.gz
Wind_Speed
9 12 20 16 15 14 12 10 8 6 5 2 1 2 3 3 3 2 1 3 4 4 4 4 4 4 2 1 2 2 3 1 5 5 5 5 5 3 2 3 4 3 4
9 13 20 18 16 15 13 10 8 6 4 3 3 1 2 2 3 5 2 4 1 2 4 3 4 4 1 2 3 8 7 3 5 6 6 6 7 5 5 5 5 4 5
9 13 17 17 17 14 13 11 6 5 4 4 4 3 4 4 3 2 1 2 1 2 4 4 6 5 5 6 8 8 6 8 8 8 9 6 6 9 6 8 5 6 8
11 14 16 18 17 14 13 8 5 6 5 5 5 5 6 8 4 5 4 3 3 3 4 4 5 6 6 5 8 2 3 8 9 12 9 8 9 9 8 7 8 5 4
11 13 14 18 16 13 12 9 7 6 5 5 5 6 7 8 5 4 3 4 5 6 3 6 7 5 8 7 8 6 7 11 12 12 10 11 10 9 9 9 10 11 10
9 11 13 19 16 13 13 11 7 5 5 5 6 7 8 8 7 4 5 4 5 6 4 5 5 6 8 7 8 10 10 9 10 11 11 11 11 11 10 10 12 13 12
8 9 10 17 15 14 14 12 7 6 5 5 6 5 7 6 8 4 5 7 6 4 5 5 6 7 8 9 11 11 11 13 14 13 13 13 12 13 13 13 14 14 14
7 8 9 14 14 13 15 11 8 7 6 6 7 5 5 4 4 7 6 5 7 5 6 7 7 8 9 9 10 11 13 14 14 15 15 15 14 15 16 15 15 15 14
7 8 8 10 12 13 13 10 9 8 7 8 7 10 7 7 6 6 6 7 7 9 8 9 11 11 11 11 12 12 14 15 15 16 16 16 16 17 16 18 18 17 17
7 8 8 9 9 11 11 11 10 10 9 9 9 9 11 11 11 11 13 13 13 11 11 11 11 12 13 14 14 16 17 18 16 16 17 18 18 19 19 19 21 20 20
8 10 9 10 10 11 10 9 11 11 10 10 10 9 10 9 9 9 10 11 11 12 13 12 12 13 16 17 17 19 20 15 15 16 17 18 20 20 21 22 21 23 23
11 11 12 12 12 11 11 10 10 10 9 9 9 8 8 8 9 10 11 14 14 14 14 14 15 15 16 13 12 15 12 14 16 17 18 21 22 22 23 24 25 25 26
10 11 13 13 13 13 12 10 10 9 9 9 10 9 7 8 8 9 9 10 10 12 11 11 12 11 12 14 15 15 16 17 17 18 19 23 24 24 25 26 27 28 29
10 10 11 13 13 14 14 13 11 10 9 9 8 8 8 7 8 9 9 10 10 10 11 11 12 13 15 16 18 19 19 20 20 21 22 25 28 26 26 27 28 30 31
8 9 10 12 14 14 15 13 12 11 10 9 8 7 8 7 8 8 10 10 11 12 12 12 13 15 16 17 18 19 20 21 22 23 24 26 30 31 29 29 30 31 33
5 7 8 12 14 15 16 14 11 10 9 8 7 7 7 7 7 8 10 10 11 11 12 13 14 16 17 18 19 20 22 23 24 24 25 26 29 33 32 32 32 33 34
3 4 6 9 13 16 15 12 10 8 7 7 6 7 6 6 7 8 10 11 11 12 13 13 15 16 18 18 20 22 22 23 25 26 26 26 26 28 32 33 32 34 36
4 5 6 5 5 10 10 8 6 5 4 4 4 5 6 6 7 8 9 10 11 12 12 13 15 17 18 19 20 21 22 23 25 26 26 26 25 25 25 28 30 31 33
6 7 8 7 5 7 7 6 5 2 1 0 1 3 4 4 5 6 7 9 10 10 10 12 13 15 18 19 19 22 23 24 25 25 25 25 25 26 26 26 29 33 36
10 11 12 13 12 11 11 10 11 10 9 9 9 9 10 10 9 7 7 9 9 9 10 12 14 14 16 17 19 22 23 24 24 23 23 22 22 23 25 26 27 27 29
15 16 16 16 14 13 14 14 14 14 15 15 16 16 15 14 14 13 11 11 12 11 12 13 14 16 17 18 22 22 22 27 18 24 20 18 26 29 29 28 29 28 27
16 18 19 18 18 15 14 14 15 16 16 15 14 15 15 15 15 13 13 12 12 12 12 13 14 16 16 17 19 22 9 19 18 21 32 30 26 30 29 26 27 29 30
16 16 19 20 19 17 17 16 16 15 14 12 12 12 14 13 14 13 13 12 12 12 13 14 14 15 17 18 16 12 8 9 13 25 26 29 24 26 31 31 29 31 32
15 16 18 19 19 18 16 16 15 14 13 11 11 10 10 12 13 14 13 12 12 12 12 14 15 15 16 17 18 17 20 23 13 14 16 27 27 25 31 32 32 33 34
13 15 17 18 19 18 16 15 14 14 12 10 8 8 9 10 11 14 13 13 13 12 13 14 15 15 14 15 16 18 19 20 23 13 15 11 29 28 31 32 33 32 31
13 14 16 17 17 16 16 16 16 14 11 9 9 9 9 9 11 13 13 13 12 13 13 14 14 14 14 15 16 17 17 16 14 14 14 16 19 27 30 31 32 30 26

GFSSE_925_spd_021.txt.gz
Wind_Speed
6 13 19 19 15 14 13 11 9 6 4 1 2 2 1 4 3 2 2 4 5 5 5 3 5 4 2 4 2 5 3 7 8 7 6 6 6 3 1 3 2 6 4
10 13 20 17 16 15 14 9 9 7 4 1 2 2 1 1 3 4 3 5 4 4 5 5 5 3 3 3 3 6 7 6 6 8 8 7 5 8 4 5 5 6 5
8 11 17 18 16 15 12 9 6 5 3 2 2 1 1 2 0 2 2 5 4 3 4 4 4 5 4 5 7 8 4 2 5 11 11 8 7 7 10 6 7 6 8
7 10 14 15 17 13 10 8 5 4 3 2 2 2 2 4 3 2 2 3 4 4 4 5 5 3 6 5 5 8 3 3 9 13 9 8 7 7 9 7 8 7 4
7 9 11 14 15 11 10 8 6 4 2 2 2 3 3 5 5 3 2 2 5 6 4 6 6 3 6 7 7 6 8 9 13 12 9 9 8 8 7 8 9 11 9
7 8 10 14 14 11 9 9 6 3 3 2 2 4 4 6 5 6 1 1 5 6 5 5 5 5 6 8 8 9 11 11 11 12 12 10 10 10 8 8 9 11 13
7 7 7 15 12 10 9 10 6 3 2 2 2 1 4 6 4 4 3 3 5 6 5 6 6 6 6 7 8 9 11 12 13 14 13 13 12 11 12 12 14 14 14
7 7 8 13 13 11 11 11 7 5 3 3 4 3 3 2 1 2 4 5 7 6 6 6 7 9 9 9 9 9 10 12 13 14 15 15 14 14 14 15 16 15 16
7 8 9 10 12 11 12 9 8 6 5 4 4 7 6 6 5 5 6 7 7 8 9 10 9 10 11 11 11 12 14 15 15 16 16 17 16 16 17 16 17 18 19
7 8 9 10 11 11 11 12 9 8 7 7 6 6 8 10 10 11 11 11 12 11 11 12 12 12 12 13 14 15 17 19 17 17 17 18 19 18 19 19 19 20 22
8 10 10 11 11 11 10 13 11 10 10 9 8 8 7 6 7 7 8 12 13 12 12 13 13 13 14 16 16 15 15 14 15 16 16 17 19 19 21 22 23 23 24
11 11 11 11 11 11 10 9 8 10 9 9 7 7 6 6 6 7 9 12 13 13 14 14 13 13 14 13 13 10 12 12 14 16 18 19 22 21 22 24 25 26 27
12 12 12 12 12 12 11 10 9 8 8 7 8 7 6 5 6 6 6 7 7 9 9 9 11 12 11 13 13 14 16 17 18 18 20 22 25 23 24 25 26 28 29
9 10 11 12 12 13 12 11 9 8 7 6 6 6 6 6 6 6 7 7 7 7 8 10 11 11 13 15 16 17 18 20 20 21 22 24 27 28 27 28 28 29 30
8 9 9 11 13 12 13 11 10 9 7 7 6 5 6 5 6 6 7 8 8 8 10 11 12 13 15 16 17 18 20 21 22 23 24 26 28 30 32 29 30 32 33
5 6 7 10 12 12 12 11 9 8 6 6 5 4 4 5 6 6 8 8 9 9 11 12 13 15 16 16 18 19 21 22 23 24 24 26 28 30 32 33 30 31 33
1 2 4 6 10 12 11 10 9 7 5 5 3 3 4 5 6 7 8 8 9 10 12 13 14 15 17 18 19 20 22 22 23 25 26 27 27 27 28 29 29 29 30
1 0 1 2 5 9 10 9 7 5 3 2 1 1 2 4 5 6 7 8 10 11 11 12 13 14 15 16 18 18 20 21 23 24 26 27 23 23 24 26 27 27 28
4 4 6 6 7 9 10 8 7 6 4 3 3 5 5 5 5 5 7 8 9 8 9 11 12 14 15 17 18 18 19 21 23 25 24 25 24 23 22 22 26 28 30
9 11 12 13 13 13 13 12 11 11 12 11 12 13 11 11 11 9 8 9 10 9 10 12 14 15 17 19 21 21 22 23 25 26 24 21 20 21 26 27 28 27 29
13 15 15 15 15 15 14 15 14 14 14 14 14 14 13 13 12 12 10 10 11 11 12 13 15 17 17 19 20 20 19 29 20 22 19 28 30 30 25 27 31 27 28
16 16 17 17 15 15 14 15 16 15 15 14 14 13 12 12 13 12 13 12 13 14 13 15 16 17 17 18 18 19 6 15 13 30 34 26 27 28 23 27 29 28 29
16 16 17 17 18 18 17 18 18 16 14 12 10 9 11 12 13 13 13 13 13 13 14 15 16 16 16 17 16 11 6 6 12 18 23 24 24 31 25 27 33 33 32
16 15 17 18 17 15 14 15 14 13 13 10 8 9 8 11 12 13 13 13 12 12 12 14 14 15 15 15 16 16 18 20 11 11 11 24 24 25 31 29 30 32 32
14 15 16 17 17 15 15 15 14 14 11 9 7 6 7 8 10 13 13 12 12 11 12 13 14 15 14 16 16 17 18 19 20 12 14 9 24 23 27 29 25 31 36
14 14 15 16 16 15 16 15 15 13 10 8 8 8 8 8 9 11 12 11 11 12 13 14 14 15 16 16 16 18 18 15 13 12 13 14 16 24 24 28 27 29 28

GFSSE_925_spd_024.txt.gz
Wind_Speed
14 15 19 16 15 14 11 11 9 8 6 5 6 5 4 7 6 6 5 5 6 7 8 6 6 5 5 6 4 5 6 7 8 9 6 4 4 3 1 2 2 5 3
15 16 18 17 15 13 10 9 7 7 5 5 5 5 4 5 4 1 3 5 4 5 7 6 9 8 5 3 4 3 5 5 6 9 10 6 3 5 5 4 5 4 4
14 15 19 17 16 13 10 8 6 6 4 3 3 3 4 3 3 5 5 3 5 5 6 6 5 6 8 8 6 5 2 3 7 11 13 5 6 11 6 8 7 5 8
14 12 16 17 16 11 9 8 5 5 3 3 2 3 2 0 2 3 3 3 3 3 4 5 6 3 4 5 5 5 4 5 9 13 8 8 9 7 7 6 6 6 6
12 10 16 16 16 11 9 7 4 5 3 2 1 4 3 2 4 2 1 3 4 5 3 3 4 2 4 5 5 4 6 6 9 10 11 10 8 7 7 5 7 8 8
12 13 15 13 14 11 10 9 5 5 2 2 1 3 2 2 3 6 2 2 4 6 5 2 3 3 4 6 6 6 8 10 12 10 11 12 11 9 10 7 8 8 10
13 11 11 14 15 13 12 9 8 4 3 2 3 3 3 3 0 6 2 0 4 5 5 3 3 4 5 5 6 6 8 10 11 12 11 11 9 11 12 12 12 12 12
12 9 9 16 16 13 12 11 8 4 3 3 5 3 2 1 3 5 4 3 4 4 4 4 5 7 8 9 10 10 11 11 12 13 13 16 14 13 15 15 15 15 15
11 10 8 15 15 13 12 10 8 5 5 4 4 7 5 5 4 4 4 6 6 7 7 8 8 9 9 9 12 13 15 15 16 17 17 15 15 16 17 17 17 17 18
9 11 11 11 12 12 13 13 10 7 5 5 6 5 8 10 9 8 9 7 8 8 9 9 10 10 11 12 14 14 16 16 18 17 16 17 14 16 17 18 18 19 20
11 11 13 14 12 14 13 13 13 9 7 6 7 6 5 4 4 8 6 8 11 11 11 11 11 11 12 14 16 13 15 16 16 12 16 18 17 18 19 20 21 22 23
14 13 13 13 14 13 12 15 11 9 9 6 5 7 4 2 5 6 5 11 10 9 8 11 9 10 12 11 11 14 13 16 16 17 16 20 21 20 21 22 23 24 25
20 17 16 15 13 14 12 9 11 11 9 8 7 7 3 4 4 6 6 7 7 8 11 9 11 13 14 13 14 17 18 19 20 22 22 22 22 24 23 24 24 26 27
17 18 17 15 16 14 14 13 11 11 9 7 7 6 6 5 5 3 5 5 9 8 10 10 12 13 15 17 18 20 20 21 22 23 24 25 25 27 25 26 26 27 28
6 13 12 14 14 15 13 12 10 9 10 6 5 3 4 3 3 4 4 6 8 9 10 12 12 14 16 17 19 20 20 21 23 24 25 26 26 27 28 28 28 28 28
5 8 10 12 13 12 14 13 10 8 6 8 3 3 2 3 4 4 5 8 8 9 11 11 13 14 14 16 18 20 23 25 24 24 24 26 27 28 28 28 27 27 27
4 4 4 7 9 12 10 13 10 8 7 5 4 2 1 2 3 4 6 8 8 8 11 12 14 15 15 17 17 18 18 21 25 26 27 28 29 27 27 26 25 25 24
3 5 5 7 12 11 10 11 11 8 7 5 5 4 4 2 2 3 5 9 11 10 11 11 14 16 17 18 20 21 23 21 24 25 26 27 25 28 27 27 27 26 26
5 8 6 7 9 12 12 13 13 12 10 10 11 10 7 7 8 9 11 8 10 11 12 13 15 16 19 21 21 21 23 26 26 28 28 25 16 21 25 27 23 24 28
10 12 13 14 15 17 17 17 18 19 20 17 15 15 14 12 12 13 13 12 10 11 13 13 16 17 18 20 23 21 25 27 26 23 16 25 31 32 28 29 29 26 23
14 17 18 19 19 20 20 22 22 22 20 20 18 15 14 14 13 12 11 11 12 12 14 14 16 18 20 21 18 21 23 15 19 19 33 30 31 31 26 24 28 25 32
15 16 18 19 21 22 23 23 24 22 19 18 17 15 12 13 13 13 13 12 13 13 13 15 16 17 15 19 13 15 4 13 8 34 24 25 28 22 31 31 29 35 37
17 18 19 21 22 23 25 24 24 22 18 15 13 13 12 12 14 14 14 13 13 12 13 14 15 16 17 19 17 8 4 3 14 9 27 22 26 35 24 32 38 31 35
17 19 20 21 20 20 19 21 19 19 17 14 13 11 10 11 12 14 13 12 11 10 12 14 14 15 16 18 19 11 18 20 5 8 7 29 25 28 33 30 30 32 25
17 19 20 22 21 20 20 20 20 19 15 13 11 10 9 8 9 13 11 11 11 12 13 14 15 15 15 15 17 18 22 21 22 7 13 9 26 24 27 29 28 35 31
18 19 20 22 21 21 21 20 19 17 14 12 11 9 9 8 8 13 12 11 11 12 13 14 15 18 17 19 18 20 20 12 14 13 12 14 17 25 26 25 27 26 31

GFSSE_925_spd_027.txt.gz
Wind_Speed
20 24 20 17 17 14 9 11 10 9 7 7 7 6 8 7 7 6 5 4 5 6 7 7 7 4 7 6 5 4 7 7 6 8 8 4 3 2 0 2 2 4 3
22 24 20 19 17 15 13 11 9 8 7 7 7 7 6 6 5 3 3 6 5 6 7 5 7 6 8 6 6 2 4 3 7 8 11 5 3 2 6 5 4 2 2
20 23 21 20 17 15 14 11 7 8 6 6 6 7 7 6 6 8 5 4 5 3 4 5 3 4 5 5 5 3 2 4 7 10 11 3 7 9 10 7 5 6 4
17 22 22 20 17 15 13 12 8 8 6 6 7 6 5 5 5 6 5 4 4 2 1 1 1 3 2 1 1 1 2 3 6 10 5 6 7 3 8 8 6 7 6
17 20 22 20 17 15 12 12 9 8 6 6 6 8 6 1 7 4 4 3 4 5 2 1 1 3 4 5 6 7 7 5 7 10 7 7 8 6 6 8 8 8 9
17 17 19 19 19 16 13 14 9 8 6 6 6 8 4 3 4 7 4 1 2 4 3 1 1 1 1 3 5 5 6 9 12 14 14 12 10 9 9 10 9 9 10
20 18 19 18 18 16 15 13 10 7 6 5 9 7 3 4 5 8 4 3 2 3 3 2 0 2 4 4 5 5 6 7 9 12 13 12 11 9 12 12 13 12 13
18 16 16 19 18 17 16 13 10 7 6 6 9 8 5 5 4 7 4 3 4 3 4 4 4 5 6 8 9 9 10 11 11 13 14 14 13 12 13 14 15 15 15
13 12 13 19 18 17 16 14 10 7 6 6 9 8 6 4 3 4 5 5 6 6 6 7 8 7 8 9 9 11 13 14 15 17 17 16 12 14 14 16 16 17 17
11 12 10 17 18 17 15 14 11 9 7 7 7 8 9 9 7 6 5 5 4 6 8 9 9 9 9 10 12 12 13 14 16 18 16 14 13 14 15 16 17 17 18
15 15 14 14 16 16 15 15 14 11 8 8 7 6 5 5 6 7 6 6 6 9 10 10 10 9 9 10 10 10 12 15 17 17 17 16 15 15 15 18 20 19 20
22 20 19 18 16 14 16 16 15 12 10 6 6 8 4 3 4 7 7 5 7 6 7 7 6 9 10 11 11 11 13 16 16 18 19 19 18 18 20 21 23 23 21
27 23 21 20 17 15 19 20 16 10 10 8 8 7 6 4 5 2 4 5 5 7 8 8 9 10 13 14 15 17 19 19 21 21 21 20 21 22 22 23 25 25 25
26 27 25 22 20 21 18 16 10 13 14 10 8 8 8 5 4 4 5 4 5 7 8 10 11 12 13 14 15 15 16 14 15 18 20 21 23 23 24 25 26 27 28
22 28 27 24 23 21 21 17 14 16 13 9 10 9 7 6 3 1 2 2 6 7 9 10 8 9 12 14 15 16 18 18 18 19 19 19 19 20 22 23 25 27 27
5 23 27 23 20 22 19 20 13 12 11 9 8 6 5 4 3 2 4 4 5 4 5 8 11 11 11 12 13 14 18 19 21 22 21 21 22 24 23 24 25 25 24
6 11 16 19 18 16 21 18 14 11 11 8 5 5 4 2 0 1 2 4 8 8 7 6 7 10 12 13 15 15 16 17 17 19 21 22 21 19 18 17 19 19 21
4 5 8 12 14 15 10 19 16 14 14 13 12 10 9 5 3 5 4 9 10 9 8 9 12 13 15 16 17 17 19 22 22 22 21 16 14 20 22 22 21 20 18
6 8 8 9 13 13 15 22 20 20 17 17 13 8 7 7 11 7 7 8 7 7 9 11 12 15 17 19 20 20 20 23 20 16 10 19 22 23 24 20 21 19 19
9 9 9 11 15 27 27 26 27 24 22 14 14 12 11 11 9 8 8 8 9 8 11 13 14 15 14 18 20 16 22 13 12 11 21 27 20 28 20 24 29 28 29
12 13 15 22 27 28 29 29 27 25 23 19 16 13 13 12 11 10 9 10 10 10 11 13 14 17 16 23 11 21 11 7 17 17 34 17 28 22 24 30 27 31 37
14 13 16 18 22 26 26 25 26 26 21 19 16 15 13 12 12 12 11 11 11 10 12 13 15 15 10 19 12 8 4 7 7 37 15 27 19 24 32 24 37 33 32
20 22 23 24 27 28 27 26 27 25 22 19 15 14 12 12 12 12 12 11 11 11 13 13 14 15 14 16 19 5 4 3 13 6 29 16 24 32 21 36 29 30 31
18 21 24 26 28 28 27 29 28 25 21 16 14 12 10 10 12 11 12 11 11 12 12 12 13 14 15 16 19 9 11 14 3 6 6 29 20 26 29 29 30 30 24
21 22 23 23 24 25 25 25 25 23 19 17 15 13 9 8 10 11 10 9 10 11 12 12 13 16 16 13 16 20 21 20 16 4 11 9 25 25 29 28 30 30 31
24 26 27 28 26 26 26 24 23 22 20 17 13 11 8 6 9 11 11 10 10 11 12 13 14 16 16 17 17 17 18 12 13 11 12 12 16 24 22 26 27 28 29

GFSSE_925_spd_030.txt.gz
Wind_Speed
19 24 21 19 17 14 11 13 13 11 9 9 8 8 9 8 9 6 5 3 4 5 4 5 3 4 8 6 4 4 5 4 2 4 6 3 3 4 3 4 4 2 5
25 26 21 21 18 16 14 14 12 10 9 9 9 9 9 7 6 5 3 4 4 4 3 3 5 6 7 6 3 3 3 2 4 7 9 5 3 4 6 7 5 5 1
25 27 21 22 20 17 17 13 12 11 10 9 9 10 11 9 8 8 5 5 4 3 3 3 4 4 4 4 2 2 4 3 5 8 8 2 4 7 10 9 6 7 7
24 26 24 22 20 18 16 15 13 11 10 10 10 10 9 8 9 8 5 5 4 2 4 3 5 7 7 6 5 4 5 4 6 6 5 4 6 5 4 8 8 8 7
23 26 24 22 20 19 16 16 12 10 9 10 11 11 9 7 10 8 6 4 2 2 0 2 3 4 5 6 7 8 7 6 8 9 10 9 8 6 7 9 9 8 8
20 24 23 22 21 19 15 16 13 10 8 9 10 11 9 6 11 10 6 2 1 2 2 1 1 1 2 3 5 5 7 7 11 13 13 12 12 10 9 9 11 10 9
20 22 22 23 21 20 17 16 13 10 7 9 10 10 7 7 6 11 6 3 1 2 2 2 0 3 4 5 6 7 7 8 9 11 11 12 11 10 10 11 12 13 11
21 22 22 22 23 20 19 16 14 10 8 9 11 9 6 7 7 9 7 4 3 2 2 2 4 5 6 6 8 10 11 12 12 14 14 14 13 11 12 13 13 14 14
20 21 22 22 23 21 19 17 14 10 9 10 12 11 8 7 7 8 7 5 4 3 4 5 6 7 7 9 9 10 11 12 14 15 15 14 10 9 11 13 13 15 15
20 19 18 23 23 22 19 17 15 12 11 11 11 12 9 8 6 6 5 5 4 4 6 7 7 7 8 8 10 11 10 12 14 16 15 14 12 12 14 14 14 15 16
21 19 18 22 24 22 20 19 16 13 12 10 10 8 8 8 7 8 7 5 4 5 6 5 6 5 6 7 8 9 10 12 13 15 15 15 16 17 16 17 17 19 18
25 25 22 21 22 22 21 19 18 15 13 10 9 9 8 6 6 6 9 7 4 3 4 4 5 5 7 8 10 11 13 16 18 19 20 19 20 20 18 20 21 21 22
29 27 27 25 22 22 22 21 20 17 14 11 10 10 9 7 6 6 4 5 5 6 6 6 7 8 9 10 12 14 14 12 12 13 14 14 16 20 20 21 23 23 21
27 29 29 28 26 24 23 21 21 18 15 13 11 11 10 8 8 6 5 5 6 7 7 9 9 9 9 10 11 11 11 12 11 13 14 16 16 16 16 18 20 22 22
22 32 32 29 28 26 25 22 22 19 15 12 12 11 11 9 6 3 2 0 3 6 5 5 4 5 7 8 7 8 11 12 13 14 14 15 15 16 17 15 15 17 21
13 29 33 30 27 28 26 23 19 15 17 13 13 8 10 6 4 2 2 3 3 3 3 4 5 5 6 9 12 13 14 15 15 16 17 17 17 15 14 14 15 16 17
12 18 30 30 27 26 26 23 19 16 17 18 12 12 9 4 3 2 0 4 6 5 3 4 6 8 10 12 14 15 17 18 19 18 15 12 13 12 13 15 15 16 16
12 14 17 24 22 25 22 24 19 17 20 19 17 14 10 7 3 3 4 6 5 4 5 8 10 12 14 15 18 18 18 18 17 10 7 13 14 16 17 14 16 16 17
11 13 16 15 17 20 22 22 22 24 22 22 19 15 10 3 4 2 3 5 4 5 8 10 10 13 14 17 19 16 19 17 8 5 13 19 13 21 16 18 17 20 23
11 13 13 13 17 22 28 29 28 27 24 21 19 15 11 9 7 5 7 6 6 8 10 11 12 12 10 19 15 18 17 10 5 8 21 17 21 22 18 22 23 30 30
13 12 13 19 26 32 34 33 30 28 25 22 18 14 13 11 9 8 8 8 9 11 11 12 12 14 10 21 10 20 10 5 12 13 18 17 23 18 26 24 28 34 29
15 16 20 27 28 30 33 27 28 28 22 22 20 17 14 11 10 9 9 10 10 10 11 12 14 12 9 16 9 5 4 7 6 34 7 20 15 29 24 29 32 30 29
18 20 23 25 26 28 29 30 29 27 25 24 20 18 14 11 10 9 9 9 10 10 11 11 12 14 12 10 11 8 4 3 9 4 24 9 33 16 33 25 31 28 27
22 23 25 28 29 29 29 29 30 27 26 21 19 16 13 10 9 9 9 9 9 10 10 11 11 14 13 12 10 10 6 10 3 5 6 27 13 28 25 26 27 23 32
26 28 29 32 30 27 26 27 28 26 24 21 18 15 11 9 9 9 9 8 8 9 9 10 12 14 12 13 13 13 10 14 11 5 10 10 25 24 26 26 26 29 27
26 30 30 30 28 27 28 27 27 27 25 23 17 13 9 6 7 8 8 8 8 9 10 11 12 12 13 13 14 15 15 6 8 7 8 11 13 22 22 29 27 28 27

GFSSE_925_spd_033.txt.gz
Wind_Speed
16 23 22 19 14 15 15 14 12 10 9 8 7 8 8 9 9 5 4 3 3 3 3 2 2 5 10 8 7 5 3 6 4 4 7 7 4 4 3 4 4 3 3
22 25 22 19 17 16 13 14 13 10 9 8 8 9 9 10 8 6 3 4 2 3 2 3 4 6 6 6 4 2 2 3 4 7 10 7 3 4 5 7 6 6 2
25 27 23 22 20 16 16 15 13 11 9 9 8 9 9 8 7 6 6 5 4 2 2 2 3 2 4 2 1 3 4 3 5 6 8 4 4 6 10 10 7 6 7
26 27 23 23 21 17 17 15 12 11 10 9 9 11 10 9 9 7 5 4 3 2 2 3 4 5 4 3 4 5 5 6 7 8 8 7 8 7 7 6 8 8 9
24 25 23 23 20 19 17 15 12 10 10 10 10 11 9 7 10 8 5 5 2 1 2 2 3 4 5 6 7 7 8 8 8 11 12 12 12 9 8 8 9 8 9
22 23 23 22 21 19 16 16 13 11 10 10 11 11 9 7 12 10 6 3 1 1 2 2 2 2 2 3 4 5 6 7 9 11 11 11 10 11 9 9 10 11 11
21 22 23 22 21 19 18 16 13 11 10 10 10 11 9 6 10 10 8 4 1 0 1 3 2 1 3 4 6 6 7 8 9 11 11 12 11 10 10 10 11 12 13
18 21 22 23 22 20 18 16 14 12 10 9 11 10 7 8 5 12 9 5 3 2 1 1 3 4 5 5 5 6 8 11 12 12 12 12 11 9 11 13 12 13 13
18 20 22 23 23 20 19 18 15 13 10 9 12 11 8 7 9 9 7 5 5 4 3 3 5 6 6 8 8 8 9 10 11 12 13 13 11 10 11 11 13 14 14
20 21 23 23 24 22 20 19 16 14 11 10 12 13 9 8 8 8 7 6 4 4 5 6 6 6 6 7 8 7 8 9 11 12 12 13 13 13 14 14 15 15 15
21 23 23 24 25 24 22 20 17 15 12 11 10 12 10 10 8 8 6 5 4 5 5 5 6 5 6 8 8 10 11 13 15 16 17 17 16 16 17 17 17 18 19
23 25 25 23 26 25 24 22 20 17 14 12 12 10 9 8 7 7 7 7 6 5 4 5 6 7 8 9 10 12 13 14 13 13 13 12 12 15 16 17 18 18 19
28 25 27 25 25 26 26 23 21 19 15 13 11 12 10 7 6 7 6 6 6 6 6 7 8 9 9 9 10 10 9 10 10 9 11 12 13 14 14 14 16 16 15
26 28 29 28 26 26 26 22 22 20 17 14 13 12 10 8 8 6 5 3 4 5 7 8 8 7 6 7 9 7 7 8 9 10 11 11 12 12 13 14 14 14 14
29 32 33 31 29 28 27 23 22 20 17 15 13 11 10 9 7 4 3 2 1 1 1 2 2 3 5 7 8 9 10 11 12 13 13 12 11 11 11 12 12 13 14
26 28 35 35 33 30 28 24 21 20 18 16 13 9 8 7 8 6 6 5 4 4 3 2 5 6 8 11 12 12 13 14 14 14 12 9 9 9 9 12 13 12 13
25 24 27 35 33 32 29 25 22 22 20 13 11 12 13 11 11 7 4 4 5 4 4 5 7 8 10 12 14 16 15 14 16 11 6 9 8 11 11 13 13 14 16
19 20 21 30 32 30 28 25 21 16 15 17 18 19 14 10 7 2 3 4 4 5 6 8 10 12 13 16 19 18 16 18 11 2 9 11 10 13 13 12 12 15 18
12 11 14 25 29 27 26 22 21 20 23 23 21 18 15 12 6 2 5 4 4 6 8 10 11 14 14 18 20 17 19 14 2 3 11 10 11 14 14 14 15 19 21
13 12 13 17 24 26 27 28 27 28 27 25 21 17 15 13 9 7 7 6 6 7 9 12 11 11 9 20 19 19 17 8 5 3 17 12 11 15 17 17 23 26 24
13 16 17 20 24 30 34 35 33 30 28 24 20 17 15 12 11 8 8 7 8 10 11 12 11 13 12 21 11 21 9 5 9 7 25 14 17 17 22 20 28 27 28
17 16 19 22 27 30 34 33 34 33 26 25 22 18 16 13 11 9 8 9 10 9 10 12 14 12 11 17 10 4 4 7 4 13 20 19 19 23 21 32 28 28 25
18 18 22 26 28 30 34 33 33 28 28 26 22 20 16 12 10 8 8 8 9 9 10 11 13 14 11 10 8 7 3 3 7 5 12 12 17 16 29 28 28 25 21
20 20 24 28 30 32 34 37 36 29 25 23 22 19 16 12 10 8 8 8 8 8 9 10 10 12 10 9 7 7 5 9 3 5 4 23 12 28 27 27 26 21 30
24 26 27 29 31 31 33 33 31 30 29 26 23 19 14 11 9 8 7 7 7 8 8 8 10 11 11 9 9 8 8 13 10 4 9 10 26 26 27 23 23 31 25
24 28 30 31 30 28 28 27 30 33 32 28 21 17 13 10 8 7 7 7 7 7 8 9 10 10 10 11 11 10 10 4 6 6 6 12 15 23 22 33 24 27 25

GFSSE_925_spd_036.txt.gz
Wind_Speed
12 23 20 17 12 11 10 10 10 9 7 6 6 6 6 7 7 7 6 4 4 5 4 2 1 3 11 9 8 6 3 6 8 7 8 9 4 3 3 2 4 3 3
20 25 22 18 14 13 11 11 10 8 7 6 6 7 6 9 7 4 2 3 3 4 4 6 6 7 9 7 6 3 4 2 4 5 9 8 3 3 4 6 5 4 4
23 26 23 18 17 15 12 12 11 8 8 7 7 7 7 6 4 2 3 4 3 2 3 3 3 6 6 5 4 3 3 3 4 6 8 7 5 5 8 7 6 5 6
25 26 24 21 17 15 14 13 10 8 7 8 7 9 8 7 7 5 4 3 1 0 0 1 3 2 2 1 1 3 4 4 6 7 8 8 7 7 7 5 7 8 6
25 26 24 22 19 16 15 13 11 10 8 8 9 10 9 8 6 6 5 4 1 1 1 2 3 4 5 5 6 6 6 5 6 9 9 9 9 9 7 7 8 8 7
23 25 23 22 19 18 14 13 11 9 8 8 9 10 8 7 9 8 3 2 2 2 2 2 2 2 2 2 2 2 3 3 5 6 7 8 8 7 7 7 7 9 10
21 22 22 22 20 18 15 14 12 10 9 8 9 9 9 5 11 7 6 3 1 1 2 3 2 1 2 3 5 5 6 7 8 9 9 9 8 7 7 8 9 9 10
18 21 21 21 20 17 17 14 12 10 8 8 9 10 8 7 7 10 8 4 2 1 1 1 1 3 4 4 5 5 5 8 10 10 11 11 10 9 9 9 11 11 11
16 19 20 22 21 18 18 14 13 10 9 7 9 9 7 7 4 7 6 4 4 2 3 3 4 5 6 6 7 8 7 8 10 11 12 13 13 12 11 12 11 11 13
15 18 20 22 21 20 19 16 14 11 9 7 9 10 8 5 5 5 5 4 4 3 4 5 5 5 5 5 6 7 8 9 11 13 14 15 15 14 14 14 15 15 15
17 19 20 21 23 22 20 18 16 13 10 8 9 10 9 7 6 6 6 5 4 3 4 4 4 4 5 5 6 7 10 11 11 11 11 10 10 11 14 17 15 16 17
21 22 21 22 23 23 22 20 18 15 12 10 9 9 9 7 6 7 6 7 5 4 4 4 5 5 6 7 7 8 9 9 9 10 9 9 10 10 11 13 13 12 12
21 22 24 23 23 23 24 22 20 17 14 12 10 10 8 6 5 5 5 6 6 5 6 5 5 5 6 6 7 8 8 7 7 8 9 10 10 9 9 10 10 11 10
19 21 23 24 23 24 25 22 21 20 16 14 12 11 10 8 6 5 3 3 3 3 4 5 3 3 3 5 7 7 7 7 8 9 9 9 8 9 9 10 10 11 11
20 24 26 26 26 25 26 24 22 21 18 15 13 12 10 8 6 4 3 2 1 1 1 1 2 4 5 6 8 9 9 10 10 11 9 8 7 7 8 9 10 10 12
20 21 23 29 30 28 28 26 23 22 19 16 15 12 10 8 7 6 5 4 2 2 1 2 4 5 7 8 10 10 10 10 11 9 6 4 5 5 9 11 11 12 13
23 22 22 25 31 33 30 27 24 21 20 17 14 13 13 13 10 9 8 4 2 1 2 3 5 6 7 9 11 12 11 12 10 3 4 3 5 6 7 9 12 13 15
22 20 17 20 27 34 32 29 25 19 18 17 16 17 18 14 12 11 8 5 4 2 4 6 8 9 11 14 15 13 13 14 4 2 4 5 6 8 10 11 12 15 16
15 13 14 18 25 32 31 27 23 20 19 20 22 21 19 17 14 11 6 4 3 4 6 9 10 13 15 19 19 14 16 10 4 5 7 8 7 11 13 13 18 20 21
12 10 10 16 23 29 28 26 25 23 24 26 24 22 19 15 11 9 9 6 4 5 8 10 10 12 14 19 15 16 10 5 6 2 7 12 9 13 15 19 24 26 24
15 13 12 17 24 30 32 32 29 31 29 27 24 21 17 15 14 11 10 8 6 8 11 11 10 12 15 21 12 17 7 5 4 8 11 18 10 15 18 24 31 28 28
18 17 16 19 26 31 32 30 32 35 29 28 24 21 18 16 14 12 10 9 8 9 10 12 14 11 11 19 11 4 4 6 6 20 19 10 16 18 25 29 31 30 24
19 21 22 23 26 30 32 33 34 30 29 27 25 23 20 16 14 11 10 9 9 10 11 12 13 14 12 13 11 8 3 2 6 6 13 16 11 26 25 32 31 23 26
21 19 22 25 27 29 33 38 43 33 27 21 27 24 21 15 14 11 10 9 10 10 10 11 11 12 11 11 5 8 3 7 3 5 4 19 9 29 27 31 22 27 27
22 22 23 25 27 29 33 39 36 29 22 32 29 24 21 17 13 11 10 10 10 9 9 9 10 11 10 7 6 5 5 10 7 4 7 9 26 25 27 21 33 21 25
22 24 26 28 28 31 33 34 34 34 37 33 28 24 20 16 13 11 10 9 9 8 8 9 9 9 8 8 7 6 6 2 4 4 4 12 15 19 26 29 19 24 26

GFSSE_925_spd_039.txt.gz
Wind_Speed
13 24 21 18 16 11 11 10 11 10 9 8 8 9 9 8 7 6 5 5 5 6 3 2 2 7 10 11 10 5 4 5 6 5 6 5 1 1 1 1 2 3 2
22 26 23 18 14 11 12 13 11 10 9 8 8 7 6 8 8 5 4 4 6 5 4 6 7 9 10 10 8 7 6 2 3 3 6 4 3 3 2 5 4 4 4
27 26 23 21 17 15 12 11 10 8 6 5 6 6 7 7 5 3 4 4 3 4 3 4 7 11 11 10 7 5 5 2 2 4 5 5 2 1 3 5 5 4 5
25 26 22 20 19 16 13 11 10 8 6 6 6 6 6 5 5 5 5 3 2 2 1 2 2 3 3 4 1 1 1 2 5 5 5 7 6 5 4 3 4 8 7
24 23 22 20 17 15 14 12 9 8 8 8 9 9 9 8 6 5 5 4 3 3 1 1 2 3 4 4 4 4 4 4 4 5 5 6 6 5 5 6 6 7 8
24 22 21 19 17 15 14 12 11 9 8 9 10 9 7 6 6 5 3 3 4 4 5 3 2 1 1 1 3 3 4 5 6 6 7 7 7 7 6 7 7 7 9
22 23 20 20 18 16 14 12 11 10 9 8 9 9 8 4 8 5 3 1 3 4 5 5 4 3 3 3 5 5 5 7 6 7 7 8 8 7 7 7 8 10 10
21 23 21 21 19 17 16 12 11 10 8 8 9 9 8 4 5 7 5 1 1 3 4 3 3 4 4 4 4 4 4 6 6 7 8 8 8 8 8 8 9 11 12
17 22 21 20 20 17 17 13 12 10 8 7 9 10 8 5 4 7 6 2 0 2 2 3 4 4 4 4 4 4 4 4 5 7 8 9 9 8 8 10 12 13 13
14 19 20 22 20 17 17 15 12 11 8 7 8 10 8 6 4 6 3 2 1 1 2 3 4 3 3 4 4 5 6 6 7 9 9 9 9 9 9 10 12 15 16
14 17 19 20 20 20 18 17 14 12 9 8 8 10 9 7 6 5 4 3 2 1 2 2 2 3 4 4 5 6 7 7 7 7 7 7 8 9 9 10 9 9 9
16 17 19 20 21 21 19 19 17 14 12 10 10 10 9 7 7 6 5 4 3 2 2 3 4 4 4 4 5 6 7 7 6 6 7 8 9 9 9 9 9 9 9
16 18 20 19 20 21 22 22 20 18 15 12 11 10 9 7 6 5 4 4 3 4 3 4 4 3 3 3 5 6 7 6 6 7 8 8 7 7 8 8 8 9 10
15 18 20 21 21 22 21 23 22 20 17 14 12 12 10 8 6 3 2 2 2 2 2 2 0 2 3 5 7 7 7 7 7 8 8 7 7 6 6 7 8 8 9
16 17 21 22 23 23 24 23 23 22 19 15 13 12 11 9 7 3 3 3 3 3 2 1 1 2 4 6 7 8 9 8 8 8 6 6 4 4 7 8 9 10 10
19 19 17 24 26 25 26 25 24 22 21 17 16 14 11 10 10 9 8 6 4 3 3 0 3 4 6 7 9 9 8 8 8 5 4 1 2 5 10 10 11 11 12
20 17 18 18 25 30 29 26 25 24 22 21 19 16 15 14 13 13 11 8 6 2 1 1 3 4 6 7 9 9 8 9 6 2 1 3 4 4 8 11 12 13 14
21 21 19 19 23 28 30 28 26 23 22 22 20 18 18 16 17 16 13 11 6 3 1 2 4 6 9 11 11 9 9 9 1 3 4 4 4 5 6 9 13 15 16
23 21 19 19 23 26 28 29 26 24 22 22 21 21 20 20 18 15 13 10 8 5 4 4 7 8 12 14 13 10 13 2 5 7 7 5 5 7 8 11 17 21 21
19 18 16 18 22 23 26 28 26 24 22 23 23 23 24 22 18 14 13 11 9 7 6 6 7 10 13 15 10 12 4 2 7 4 3 9 8 8 11 16 21 24 25
18 17 17 18 23 27 31 31 24 25 25 25 27 27 24 21 18 15 15 12 9 7 8 7 6 9 13 17 9 8 4 4 3 6 9 10 6 10 14 19 24 25 21
20 20 18 20 25 28 30 25 23 30 26 29 28 26 22 19 18 16 13 11 9 8 8 9 9 6 9 15 7 1 4 2 4 6 11 5 13 11 20 24 26 21 21
21 25 23 22 26 29 32 32 29 28 28 25 25 25 21 20 18 15 13 11 10 8 9 9 10 9 6 9 12 5 2 2 7 6 7 9 8 17 22 21 18 20 19
28 25 23 23 28 29 33 35 42 30 25 19 30 27 23 20 18 14 12 11 10 9 8 9 9 9 7 6 4 6 1 2 3 5 4 10 7 21 18 18 20 19 19
27 27 25 26 27 30 33 35 31 27 22 32 31 29 24 20 17 15 12 11 10 9 8 7 7 7 7 5 3 3 2 4 3 5 8 10 22 19 20 17 20 16 18
26 26 26 28 27 29 32 35 35 39 36 36 32 29 26 21 18 15 13 11 10 8 7 6 6 6 6 5 4 3 2 3 5 6 6 15 18 17 26 17 13 18 19

GFSSE_925_spd_042.txt.gz
Wind_Speed
12 18 21 19 17 15 12 11 13 12 11 10 9 9 8 8 8 7 5 6 4 6 2 1 4 7 8 9 8 4 4 5 5 5 7 4 1 1 1 1 3 3 5
19 20 21 19 17 12 12 14 15 13 11 9 8 7 7 9 8 5 4 5 6 5 5 7 6 8 8 9 8 7 4 2 3 5 6 6 4 3 2 5 7 5 5
21 19 20 18 14 13 13 14 13 12 11 10 10 8 9 10 7 4 5 4 4 4 3 4 10 14 13 11 8 5 3 2 5 7 6 3 3 4 3 6 6 5 6
19 19 20 19 16 15 13 14 13 12 11 11 11 10 8 7 7 7 6 5 4 3 2 1 3 7 6 6 3 3 3 3 7 7 5 5 5 7 6 6 5 7 8
19 19 18 20 18 15 15 14 12 11 11 10 12 12 11 11 9 8 7 5 5 4 3 2 1 0 0 2 3 4 4 4 5 5 5 5 5 6 6 6 7 7 9
18 18 19 20 18 15 14 13 11 10 11 12 13 12 11 8 8 7 6 5 6 7 6 5 3 3 2 3 5 5 5 6 5 4 5 6 5 7 7 7 8 8 8
17 16 17 20 17 15 14 13 11 10 10 11 12 10 8 7 8 4 3 4 5 6 7 6 5 5 3 3 4 3 3 6 4 5 5 6 6 8 7 8 8 9 11
17 17 16 18 17 15 14 13 11 10 9 10 10 10 8 3 5 8 3 2 3 4 4 4 3 3 2 2 2 3 4 6 5 5 6 6 8 9 8 9 11 12 12
15 16 15 16 16 16 15 13 11 10 9 8 10 10 8 5 4 9 5 2 2 3 2 2 2 2 2 2 2 2 3 5 4 5 7 7 11 10 10 11 14 15 15
14 15 15 15 16 15 14 14 12 10 8 8 10 11 9 5 5 10 5 2 2 1 1 1 2 2 2 2 2 3 4 5 5 5 5 5 7 10 10 8 10 11 12
13 15 15 16 16 15 14 15 12 11 9 8 9 11 8 7 6 7 6 4 3 2 0 1 1 1 2 3 3 4 4 4 5 5 5 7 8 9 10 10 10 10 10
14 16 16 16 17 16 14 13 14 12 10 8 9 9 8 7 7 6 5 5 4 3 2 1 1 2 3 2 3 5 4 5 5 4 4 8 7 7 7 7 8 8 9
14 15 17 17 17 17 16 15 14 13 11 10 10 10 9 8 6 6 5 4 4 4 2 1 1 1 2 1 2 4 4 5 5 6 6 7 6 6 5 6 7 7 8
12 14 16 18 18 18 18 17 16 15 14 12 11 11 10 9 8 6 4 4 3 3 2 1 2 2 2 3 4 5 5 5 6 6 7 6 5 5 5 5 7 8 9
13 14 16 18 19 19 20 19 18 17 16 14 13 13 11 10 9 7 5 4 4 4 4 3 0 2 2 4 5 6 6 6 5 5 3 4 2 4 5 7 8 9 10
15 15 15 19 20 19 21 20 22 18 17 16 15 15 14 11 12 10 10 8 6 4 4 2 1 1 3 5 5 6 6 6 6 3 2 2 3 7 8 8 9 10 11
15 13 14 17 19 21 21 21 21 20 19 18 17 17 18 16 13 12 13 11 8 6 3 2 1 2 4 5 6 7 7 6 4 2 1 2 2 1 1 7 8 10 12
15 15 12 14 18 21 22 22 21 21 21 19 18 18 17 17 16 17 15 11 9 6 4 2 1 2 4 6 7 6 5 6 3 2 3 2 2 1 5 6 9 12 14
18 17 14 13 16 20 22 21 21 21 22 20 19 18 21 17 17 17 13 11 7 6 5 3 2 3 5 7 8 6 6 2 3 3 4 2 1 2 3 9 14 15 17
22 20 18 14 14 17 18 21 21 21 20 19 19 17 22 18 21 19 14 11 7 7 5 3 4 5 7 9 7 7 2 1 4 4 3 2 2 3 5 8 13 14 15
19 18 18 16 15 17 21 23 24 23 18 17 19 21 20 22 22 18 14 12 9 7 6 4 4 6 7 10 7 5 2 1 4 6 4 5 3 6 7 10 14 16 14
20 20 18 17 18 20 20 21 22 20 13 21 21 22 19 23 21 18 14 12 10 8 7 7 5 3 5 9 6 4 3 3 0 5 10 4 7 6 11 15 16 15 17
22 21 20 19 19 21 20 20 18 16 18 19 19 23 21 21 20 18 15 12 11 8 8 7 6 5 4 5 6 4 2 2 9 3 4 8 5 12 16 16 17 18 17
25 21 20 20 21 22 25 23 25 22 23 16 21 24 24 20 18 16 14 12 10 9 9 7 6 5 3 2 0 4 2 3 3 5 3 10 10 16 18 18 17 21 16
25 22 20 20 22 23 25 23 24 20 19 23 20 25 25 22 18 16 13 12 11 9 8 7 6 4 2 1 3 3 3 5 5 5 9 9 20 18 19 14 23 15 17
24 21 22 23 23 23 24 23 25 26 28 28 25 30 28 22 19 13 13 11 10 9 8 6 5 3 1 1 1 2 4 4 6 7 8 14 18 21 19 23 14 18 19

GFSSE_925_spd_045.txt.gz
Wind_Speed
14 19 21 17 15 14 11 8 12 11 11 10 10 10 10 9 7 6 7 7 6 8 3 4 3 5 6 9 9 6 6 6 6 8 9 8 5 5 4 3 4 5 4
21 21 22 18 17 14 11 11 12 12 11 10 10 10 10 9 8 7 6 7 6 6 7 10 4 6 5 9 8 7 4 5 6 8 8 7 8 5 5 6 8 5 4
20 21 21 20 16 12 12 13 12 11 10 9 9 8 9 11 7 7 6 5 6 5 6 7 13 11 11 13 10 8 5 5 6 8 6 5 4 7 6 7 7 4 5
19 19 19 20 16 13 12 13 12 11 10 10 9 10 12 8 7 8 7 5 5 4 2 5 7 9 9 8 7 5 5 5 7 6 7 5 5 7 7 6 6 5 7
18 18 21 20 14 13 14 13 12 11 10 10 11 9 9 9 9 9 8 6 6 5 4 4 5 5 5 4 4 5 5 5 5 6 5 4 5 7 8 6 5 5 6
17 17 20 20 17 13 14 13 12 12 11 11 12 13 14 11 10 10 8 7 8 8 7 5 4 2 2 4 5 5 5 4 4 3 5 6 5 8 8 8 7 7 8
17 17 18 20 17 15 14 13 12 11 11 13 13 11 10 9 9 8 6 7 8 9 9 7 6 5 4 5 4 2 2 3 5 5 5 5 4 9 7 8 8 9 9
16 16 17 19 17 14 14 12 11 10 10 11 11 9 7 6 8 7 5 5 6 7 7 6 4 3 3 3 1 1 2 3 5 4 5 5 7 10 9 10 11 13 13
14 15 17 17 17 15 14 12 11 10 10 10 11 10 7 5 6 10 6 4 5 5 4 3 3 3 2 1 1 2 3 4 3 4 6 5 9 10 10 9 8 10 11
14 15 16 18 17 16 14 14 12 11 10 10 12 12 10 5 4 12 7 5 4 3 3 2 3 2 2 2 2 3 5 3 5 6 5 5 9 10 10 9 9 10 10
14 15 16 18 17 16 16 16 14 13 11 11 13 13 10 7 8 10 7 3 4 2 2 2 2 2 2 3 4 5 5 4 5 5 5 7 8 9 9 8 9 9 10
15 17 17 17 18 18 18 19 16 14 12 10 11 12 10 8 8 8 5 5 4 3 1 1 2 3 4 1 3 5 5 6 6 5 6 8 7 8 7 7 8 8 9
16 17 17 17 17 17 17 18 16 17 13 13 11 11 10 9 7 8 5 4 3 2 3 1 2 2 3 3 3 5 6 6 6 6 8 10 6 6 5 5 8 9 10
17 17 18 18 17 17 18 17 18 17 16 15 12 13 11 10 9 9 7 5 5 4 3 1 3 1 2 3 4 5 5 6 5 5 8 9 4 4 5 6 8 9 10
15 16 18 19 18 18 18 17 17 18 17 15 13 14 12 11 11 9 7 6 5 4 4 3 3 1 2 3 4 5 5 5 5 5 6 8 2 6 6 7 8 9 9
16 17 18 19 20 19 19 19 16 17 18 17 15 15 15 13 11 9 8 9 8 7 5 3 1 1 2 4 5 7 7 6 5 4 3 4 2 4 5 7 7 8 9
19 19 18 19 20 20 20 19 21 18 19 19 18 17 17 14 12 11 10 10 7 5 5 4 1 2 3 5 6 7 7 6 6 4 3 2 2 4 3 3 4 7 9
19 18 19 17 20 21 20 19 20 19 20 22 21 19 19 16 15 13 12 11 8 7 5 4 2 1 4 5 6 6 5 6 4 3 3 3 3 2 7 9 10 11 13
25 22 20 19 19 21 21 20 20 21 21 25 23 20 20 18 16 15 13 12 8 6 5 4 3 2 3 5 7 5 5 4 3 3 4 3 2 2 4 8 13 14 13
28 25 23 22 20 20 21 22 22 22 22 23 22 21 19 16 16 18 15 12 9 7 6 5 4 3 3 6 7 6 3 2 4 5 4 4 5 4 5 8 10 11 13
31 29 28 24 22 21 22 23 23 21 21 21 22 21 19 18 17 17 16 12 10 7 7 5 4 3 4 8 5 4 4 3 4 6 6 6 6 6 7 8 12 13 12
31 30 28 28 24 24 22 22 22 20 19 18 16 18 18 18 18 17 17 15 11 9 8 6 4 3 5 8 5 4 2 4 2 4 7 8 6 7 8 11 14 15 14
30 30 29 28 26 25 23 22 19 22 18 17 19 20 19 21 22 19 15 14 13 9 9 7 5 5 4 4 7 4 2 2 7 6 6 7 6 8 11 15 15 15 16
30 29 28 29 26 26 25 26 27 21 19 18 26 22 21 18 20 18 15 13 12 10 9 8 6 6 4 3 1 3 2 3 2 4 2 6 10 10 16 17 18 17 19
26 29 27 26 26 26 28 26 27 21 19 25 26 26 24 20 19 20 18 14 13 11 9 8 7 6 4 3 2 2 3 5 8 6 6 6 16 15 18 16 16 20 16
24 21 26 26 26 27 28 25 26 25 27 28 29 28 28 23 20 16 15 14 11 12 9 8 6 5 3 2 1 1 2 4 6 7 6 11 15 18 18 21 17 15 17

GFSSE_925_spd_048.txt.gz
Wind_Speed
22 27 22 20 18 17 15 11 13 12 13 12 12 12 12 12 11 10 9 10 10 9 10 6 4 5 6 11 11 8 8 8 8 9 9 10 8 8 7 7 6 9 5
25 27 22 20 19 16 12 12 13 11 11 11 11 11 11 11 10 10 10 10 10 11 10 14 9 7 8 11 10 9 6 6 7 8 7 4 5 9 5 7 7 1 5
24 24 23 22 19 14 13 13 13 12 11 10 10 10 11 10 9 9 9 9 9 9 10 14 16 12 14 13 10 8 5 7 8 7 8 9 2 7 7 5 7 4 4
27 24 23 22 17 13 14 14 13 11 10 10 9 10 12 9 10 9 9 9 9 8 8 11 13 13 11 9 7 5 5 6 8 10 12 5 6 6 7 5 4 4 6
24 25 24 22 17 15 15 14 13 12 10 10 11 11 10 10 11 10 9 8 8 9 8 8 9 9 8 7 5 4 5 6 6 8 5 6 6 8 8 7 4 3 4
22 26 24 19 16 15 16 15 14 13 13 12 11 12 12 12 11 10 9 9 10 10 9 8 7 6 5 5 5 5 4 3 5 5 3 7 3 9 7 7 7 6 6
25 24 23 19 16 14 16 15 14 14 14 15 14 15 12 11 11 10 9 9 10 11 10 9 7 5 5 4 5 3 3 3 7 8 4 4 5 9 8 8 8 9 8
24 24 24 22 18 16 15 14 13 14 15 16 15 13 10 10 10 9 8 8 9 9 9 8 6 5 4 3 2 1 1 3 3 8 5 2 5 9 9 8 7 10 12
22 23 23 23 18 17 17 15 14 13 14 16 15 13 10 10 10 10 8 7 8 7 6 6 5 4 4 3 3 3 4 5 5 5 3 3 7 9 9 8 9 10 10
20 23 21 20 20 20 18 16 15 13 13 15 15 14 12 8 10 12 8 7 6 6 5 5 5 4 4 4 4 4 3 4 6 3 3 5 7 8 7 8 8 9 10
18 22 26 25 19 18 17 18 16 14 13 13 16 15 12 9 9 13 9 7 6 6 5 5 4 4 4 4 5 6 5 5 3 3 5 5 6 7 6 7 8 9 9
18 20 23 26 23 20 20 18 18 16 15 14 15 15 14 12 14 15 11 7 6 6 6 5 4 4 2 4 5 4 6 6 6 4 4 6 7 5 5 6 8 9 9
21 20 21 24 26 25 23 22 20 17 14 12 12 13 16 15 15 15 7 9 8 6 7 5 4 5 2 3 0 3 2 3 3 6 6 8 7 5 4 6 8 9 9
24 22 22 22 25 29 23 21 22 21 19 16 18 16 14 15 13 14 11 10 8 5 7 11 7 3 2 4 2 3 4 4 4 6 7 6 6 3 6 7 8 8 8
24 27 25 22 24 26 25 23 22 23 24 18 18 18 17 16 14 15 14 11 10 10 9 8 4 3 2 1 2 5 6 5 6 4 7 7 1 7 7 6 7 8 8
15 25 26 25 24 25 23 26 25 28 22 20 19 21 18 18 16 17 14 14 13 10 10 7 7 5 1 3 2 4 4 4 3 4 6 4 4 3 3 5 6 7 8
20 16 25 27 25 26 26 25 22 19 23 22 21 19 20 19 17 16 18 16 12 11 9 8 5 4 3 3 3 4 5 6 5 4 2 2 2 3 4 5 6 8 10
23 21 22 28 29 27 27 27 27 20 23 25 21 20 22 20 20 18 17 14 11 11 11 8 7 3 1 3 5 4 6 6 4 2 3 2 3 2 5 7 10 11 9
26 26 21 29 28 28 27 28 26 30 20 25 24 22 25 21 19 21 19 17 14 12 9 8 7 4 1 2 4 4 5 6 3 3 4 6 6 5 4 6 11 11 10
31 30 27 20 27 26 26 27 25 24 24 26 25 27 27 23 22 21 19 18 16 14 11 8 6 4 2 4 2 3 5 3 4 4 5 3 6 8 6 8 8 11 13
32 29 34 34 32 31 27 28 27 27 23 28 27 28 28 27 23 23 21 20 15 13 11 8 9 5 3 5 2 1 4 3 3 6 7 5 5 5 5 5 10 16 16
25 26 27 25 34 36 34 29 25 25 27 32 29 27 27 26 26 23 24 21 19 17 14 11 7 7 4 6 2 1 2 1 5 6 8 8 7 7 8 10 16 19 16
30 28 27 27 29 34 32 29 24 25 28 27 30 28 28 29 27 25 24 22 19 17 15 11 10 8 6 4 5 3 2 1 4 1 8 6 6 6 9 15 16 16 19
28 33 31 30 31 26 33 31 34 29 23 28 35 33 27 26 24 24 23 21 20 18 15 12 10 8 7 6 5 4 3 1 2 3 2 2 6 9 14 15 22 21 20
18 24 37 33 33 32 37 32 36 29 23 30 30 30 25 23 25 24 23 21 19 17 15 11 11 9 8 6 5 3 2 2 5 4 4 5 18 23 21 18 17 23 24
17 24 17 31 30 33 34 32 36 35 33 33 31 32 30 27 25 25 22 22 20 18 16 13 10 9 7 6 5 3 2 1 0 1 2 4 11 17 15 23 19 20 21

GFSSE_925_spd_051.txt.gz
Wind_Speed
27 27 24 23 21 19 18 19 17 18 16 15 15 14 13 12 11 10 10 11 10 10 8 4 10 10 13 14 13 10 9 9 9 8 9 11 11 8 6 6 6 7 5
31 26 25 24 23 21 18 17 16 16 16 15 14 14 13 13 12 12 11 11 12 10 11 10 12 9 15 14 12 9 7 8 8 9 7 5 7 6 5 6 4 3 4
32 27 24 24 22 18 15 17 17 16 16 15 15 15 13 12 11 10 10 10 10 11 14 15 14 13 16 14 10 8 6 8 10 9 8 6 5 5 5 4 6 5 3
32 28 26 24 20 17 18 18 16 16 15 14 14 15 11 12 11 11 10 10 11 11 14 16 17 18 14 10 8 6 7 11 11 9 8 7 6 7 6 4 4 3 3
31 28 27 23 19 18 19 18 17 16 15 14 15 17 14 12 12 11 11 11 11 12 13 14 13 12 10 9 6 6 8 10 8 6 5 7 4 7 7 6 5 2 2
29 27 27 22 19 18 19 18 17 16 16 16 17 15 14 15 14 12 11 11 12 12 12 10 10 9 8 6 4 4 7 7 6 6 5 5 5 6 6 6 5 5 4
31 28 26 21 19 19 19 18 17 17 17 16 17 18 17 15 14 12 11 12 13 13 12 10 9 7 7 7 4 5 7 8 8 8 5 2 4 6 4 4 4 11 11
33 29 26 21 19 19 19 17 17 17 19 19 20 18 17 16 13 11 11 12 13 12 11 10 9 8 7 6 5 6 7 5 7 7 3 2 4 7 8 5 6 7 8
33 31 27 24 20 19 19 18 18 19 22 20 19 16 16 15 12 10 10 10 11 10 10 9 9 8 8 7 7 7 7 8 4 3 2 2 4 6 5 5 6 7 8
31 29 29 26 22 22 21 19 18 19 21 21 19 17 14 14 14 11 10 10 9 8 8 8 9 9 9 9 8 6 6 4 2 4 1 1 3 5 5 5 6 8 10
28 26 28 27 24 23 21 20 18 18 19 20 19 17 15 13 15 13 10 10 9 9 9 8 8 8 8 9 9 7 6 5 3 4 2 3 4 5 4 6 8 9 9
28 29 28 28 26 24 22 21 20 18 18 19 20 18 16 13 16 16 13 10 9 9 9 9 8 6 4 4 6 4 4 5 4 1 1 2 5 3 5 8 8 8 8
29 29 31 31 28 26 24 24 22 20 18 17 18 19 19 17 18 15 13 11 10 10 10 10 8 7 6 7 4 4 3 1 1 2 3 4 4 5 7 7 8 8 8
29 32 31 33 32 30 29 27 25 22 18 17 17 19 20 16 23 18 12 12 11 11 12 9 10 8 6 5 3 3 3 3 4 5 2 3 4 6 7 7 8 8 8
32 34 33 34 34 34 32 29 25 23 21 20 19 18 22 22 21 17 15 14 13 12 13 15 12 9 7 6 3 1 2 1 4 5 2 2 2 7 7 6 8 8 8
32 36 36 36 36 37 36 33 28 28 25 22 23 22 22 24 18 19 19 18 15 17 18 14 11 9 7 5 4 2 1 1 2 3 3 1 0 2 3 5 6 7 8
17 34 39 38 37 37 39 33 30 30 28 27 23 25 25 22 20 22 22 21 20 17 15 12 11 10 8 4 3 2 2 3 2 3 2 4 3 2 1 2 5 8 8
21 17 38 38 36 36 34 32 31 31 32 30 27 26 26 23 24 24 25 22 18 16 15 14 11 8 5 3 1 2 2 2 1 5 5 5 3 2 1 3 6 8 8
30 25 28 37 39 38 38 36 35 27 30 31 29 26 24 26 26 27 26 22 19 18 16 14 12 8 4 1 1 1 2 3 3 7 6 5 2 3 4 5 7 8 8
37 34 30 31 40 40 40 38 37 35 26 32 32 27 28 31 29 27 24 22 22 20 17 15 12 8 4 0 1 2 3 2 5 6 7 6 4 4 5 5 7 9 12
33 36 35 31 34 39 36 31 30 34 38 30 35 32 34 35 33 29 26 25 24 21 18 14 12 9 6 2 1 2 4 3 4 6 6 6 5 4 4 5 7 13 16
29 33 33 33 34 38 36 39 27 34 32 34 34 36 37 38 34 30 27 28 26 22 19 17 14 9 3 4 3 3 2 2 5 7 9 8 5 4 5 7 11 15 17
22 25 23 21 27 39 37 35 27 31 28 30 31 36 38 37 34 30 28 28 25 23 21 18 15 11 7 4 3 3 2 3 2 1 7 7 5 3 3 7 10 16 17
26 24 25 26 22 31 38 36 36 34 23 23 39 38 39 37 34 31 29 27 25 21 20 18 14 12 9 8 6 3 1 2 2 2 2 6 3 3 10 17 16 13 16
23 19 25 32 31 26 38 37 38 30 30 33 37 38 37 36 33 31 29 27 24 20 18 17 15 12 10 9 6 5 3 3 2 2 3 4 9 17 18 12 20 17 14
6 12 17 18 31 33 33 41 41 40 37 35 34 37 37 34 32 29 27 25 23 21 19 17 14 11 9 8 7 5 4 3 2 2 1 3 7 10 15 19 12 13 14

GFSSE_925_spd_054.txt.gz
Wind_Speed
27 25 23 22 22 21 21 20 21 20 18 18 17 15 13 12 11 10 9 10 10 8 6 10 11 15 14 13 12 11 10 8 8 9 10 10 9 8 7 6 6 7 5
31 27 23 23 22 21 21 20 20 19 18 17 16 14 14 13 12 10 10 11 9 6 6 13 12 14 14 12 11 8 8 7 10 9 7 7 9 7 6 6 4 5 4
32 28 26 23 23 24 21 20 19 18 17 17 15 14 13 12 11 11 11 10 9 9 14 14 12 16 15 13 10 7 6 10 10 8 7 7 9 7 5 5 4 4 3
31 29 27 25 24 21 20 20 20 19 18 16 17 16 13 13 11 10 10 11 11 12 14 15 16 17 14 11 9 7 10 12 10 8 8 9 10 7 6 4 3 2 1
32 30 27 25 22 19 20 21 20 19 19 18 18 15 14 13 12 11 11 11 12 13 14 13 14 13 12 9 7 8 12 11 8 7 7 9 7 7 6 7 6 3 1
31 30 28 24 20 19 20 20 19 18 16 16 17 16 14 13 12 12 11 12 13 13 13 12 11 10 9 7 6 9 11 8 5 6 7 6 6 5 4 4 5 4 4
31 29 27 23 19 19 20 19 19 18 18 19 18 16 14 14 13 12 11 12 13 13 12 11 10 8 6 5 7 9 9 6 8 8 7 5 6 5 4 4 5 7 10
32 30 27 22 20 20 19 19 19 20 19 19 17 17 17 15 13 12 12 13 13 13 11 10 9 7 6 6 7 9 8 6 7 7 5 5 4 6 6 7 8 9 9
31 32 28 24 21 21 19 18 19 20 20 20 21 19 18 15 12 11 12 13 12 12 11 10 8 8 8 8 8 8 7 6 5 5 4 3 3 5 6 6 6 6 6
32 32 30 27 24 23 21 19 19 21 22 23 21 20 17 14 12 11 11 11 11 10 10 10 10 10 9 9 7 6 3 2 4 6 5 4 3 6 6 6 6 9 8
29 33 32 30 27 24 22 20 20 22 24 23 21 19 18 17 15 12 10 10 10 9 9 10 10 10 10 9 8 6 4 3 6 6 5 3 5 6 6 7 8 8 8
26 32 32 30 28 26 24 23 22 22 24 24 23 20 18 17 17 16 12 11 10 9 10 10 9 9 8 8 6 4 5 6 6 4 3 2 3 5 8 8 8 7 7
32 31 33 32 29 29 27 26 24 23 23 25 24 23 20 17 18 18 15 13 12 11 11 11 10 8 5 11 5 5 4 5 4 3 1 1 5 7 7 6 7 7 7
34 35 34 34 32 31 29 29 27 26 24 24 24 24 24 20 19 21 18 15 14 14 13 11 9 9 8 8 7 5 3 4 3 2 1 0 3 9 8 6 6 7 7
34 37 36 37 36 35 33 32 30 28 26 23 23 25 25 24 22 23 19 16 16 16 15 13 12 10 8 8 6 4 3 4 4 3 1 2 7 10 8 6 6 6 6
32 34 37 39 39 37 37 35 33 31 28 25 23 25 27 26 24 26 22 18 18 17 15 14 14 12 10 7 6 4 3 3 3 3 2 4 5 7 7 6 5 5 6
26 32 37 38 41 40 40 37 35 35 31 30 27 25 27 28 25 27 23 22 19 18 17 19 15 13 9 7 5 3 4 3 4 5 5 6 6 6 5 5 5 5 6
16 21 36 39 39 40 40 40 38 35 32 32 31 29 28 28 28 27 25 24 22 21 21 20 16 12 9 7 5 5 5 3 4 7 7 7 5 4 3 1 1 4 5
27 22 20 35 43 41 42 40 40 37 36 35 31 30 31 30 30 27 26 26 26 24 22 19 15 12 9 6 5 5 6 3 4 8 8 7 4 2 2 2 5 5 6
33 28 26 28 41 44 40 39 40 38 36 35 36 33 31 34 30 28 28 29 27 24 22 19 16 13 10 7 6 6 6 4 6 6 7 7 5 4 3 4 5 6 10
36 36 31 30 34 39 35 30 30 34 38 36 39 36 33 34 31 31 32 31 28 27 24 20 16 13 9 6 5 4 5 5 6 7 8 8 7 6 5 4 4 8 12
22 32 37 36 32 40 39 40 33 38 37 37 39 35 36 35 36 35 37 33 30 27 23 21 19 15 7 7 5 3 1 2 6 8 9 9 8 8 5 3 6 8 12
25 22 21 31 31 32 39 36 32 33 27 34 35 38 40 41 42 40 38 36 32 29 26 23 21 16 11 7 6 4 2 4 1 3 8 9 8 8 5 3 10 12 9
27 25 21 20 22 26 35 37 36 31 22 33 41 42 43 40 43 41 39 34 33 29 25 23 19 16 12 10 7 4 3 3 2 1 3 7 8 7 5 12 11 14 12
24 27 26 25 24 23 32 38 38 29 30 34 38 40 40 38 40 39 37 35 31 28 24 22 19 15 12 11 7 6 4 3 3 2 2 3 6 9 13 9 16 8 10
6 7 12 13 16 20 28 34 40 32 33 31 33 35 35 36 35 33 33 32 30 28 24 20 18 15 13 11 9 7 5 3 3 3 1 3 5 9 8 15 11 7 10

GFSSE_925_spd_057.txt.gz
Wind_Speed
19 25 23 23 22 20 21 21 21 20 18 16 15 14 13 12 10 9 8 7 7 6 8 10 12 13 12 11 11 9 7 7 9 10 10 10 10 9 8 5 8 7 6
28 27 24 22 21 21 21 20 21 20 19 16 15 14 13 11 10 9 9 9 7 5 7 10 12 14 12 11 10 8 7 9 10 9 8 9 9 8 7 6 6 6 5
33 28 25 23 21 20 20 21 20 18 17 16 14 12 11 11 9 9 10 8 6 4 11 13 11 13 13 10 8 7 8 9 9 9 8 10 11 7 6 7 6 6 3
32 29 27 24 21 22 20 20 19 19 17 16 14 13 12 10 9 9 9 9 9 9 12 12 11 14 12 8 7 7 10 9 9 9 10 11 11 9 7 6 4 3 3
32 30 27 25 24 21 19 19 18 17 17 16 15 13 12 10 9 10 10 10 11 11 13 14 15 13 9 7 6 9 9 8 6 8 10 10 10 7 7 7 8 5 3
32 30 28 26 22 18 17 18 18 17 16 16 15 13 12 10 9 10 10 11 11 12 11 11 11 9 7 6 6 10 8 5 5 7 8 8 8 5 6 6 9 10 2
31 29 27 23 20 18 19 19 18 16 16 16 16 14 13 12 10 10 10 12 13 11 11 10 9 8 6 5 7 10 7 7 9 9 7 7 9 8 10 9 9 10 9
31 29 27 23 18 17 18 18 18 17 16 18 16 15 15 13 12 11 12 12 12 11 10 8 7 6 7 6 8 8 7 6 6 7 6 5 5 8 8 8 8 8 9
28 29 26 22 19 18 18 18 19 19 19 19 18 17 17 14 12 11 12 12 12 11 10 9 8 7 7 8 8 8 8 7 7 6 6 6 3 6 7 7 7 10 11
27 27 26 24 21 20 19 18 19 19 20 21 20 20 18 15 12 11 12 12 12 11 11 10 9 8 8 8 7 6 6 5 5 5 5 5 4 6 6 8 9 9 10
27 28 28 26 24 22 21 19 19 19 19 21 22 20 19 16 13 12 12 12 11 10 9 9 9 9 8 7 6 4 3 4 6 5 5 5 5 6 7 8 8 8 9
23 27 30 28 27 24 23 22 21 21 22 23 21 20 19 17 15 12 11 12 11 10 10 10 10 10 8 7 6 4 4 6 6 4 3 3 4 6 9 8 8 8 8
27 25 30 30 28 28 27 25 23 24 25 24 23 21 20 18 18 17 14 13 12 12 12 12 11 10 7 7 5 5 5 6 5 3 2 4 5 8 7 7 7 7 7
31 32 33 32 32 31 29 28 27 26 27 27 26 24 23 20 19 20 18 16 14 14 13 12 11 8 6 10 6 5 4 4 3 2 2 1 5 8 7 6 6 7 7
24 33 35 35 34 33 32 30 30 29 28 27 28 27 26 23 21 22 21 19 16 15 15 13 11 11 9 9 8 5 4 3 2 2 2 4 9 8 7 6 6 6 6
27 31 34 36 36 35 36 33 33 31 29 27 27 28 28 27 24 22 22 20 18 17 16 14 12 12 10 9 8 6 5 3 2 2 3 5 6 6 7 5 5 4 5
27 31 33 37 37 38 38 36 35 33 32 31 29 27 29 29 27 24 25 22 19 18 17 16 14 13 11 9 7 6 5 4 4 4 5 6 7 6 5 5 5 5 5
18 28 32 35 36 40 39 38 36 35 35 34 30 28 28 30 30 26 27 25 21 19 19 18 18 15 12 9 7 6 6 5 5 6 8 7 6 5 5 3 1 2 4
24 22 26 34 36 39 39 39 39 37 36 35 33 31 30 29 30 28 26 25 24 21 21 21 19 16 13 9 6 6 7 6 5 8 9 8 7 5 4 2 2 3 4
29 25 23 27 36 38 38 37 36 35 37 36 36 35 33 33 31 30 28 27 26 24 24 23 21 16 12 10 7 6 7 6 6 8 9 9 8 6 6 3 2 3 5
25 25 27 27 30 35 33 29 28 31 36 38 38 39 37 36 34 32 31 30 29 29 29 26 21 16 12 10 7 4 5 5 7 8 10 10 9 8 7 5 5 5 7
23 24 24 25 30 36 36 38 29 35 36 44 42 41 39 37 36 36 34 33 33 33 32 28 25 19 11 12 5 4 1 3 7 9 10 10 10 9 8 6 6 7 10
23 23 19 17 25 33 37 34 29 26 23 31 33 40 41 40 38 40 38 37 37 37 37 32 28 23 16 13 12 5 2 4 2 6 10 11 10 10 9 6 6 8 10
27 27 24 24 20 22 33 32 34 30 25 28 37 40 40 42 39 40 41 38 40 41 37 32 27 24 19 14 10 10 5 4 3 1 4 8 10 11 10 6 8 10 6
18 19 20 21 18 16 24 35 37 30 28 30 37 39 39 41 39 39 40 38 40 38 34 30 27 23 19 16 11 8 7 5 5 2 3 3 9 11 11 10 10 6 6
12 14 15 15 17 20 20 28 38 34 30 29 33 33 39 40 38 38 39 38 37 35 32 29 25 22 19 15 15 11 9 4 5 4 2 2 4 6 9 10 8 6 5

GFSSE_925_spd_060.txt.gz
Wind_Speed
18 24 22 21 20 19 19 18 18 18 16 15 15 14 13 12 10 9 8 8 8 9 10 11 12 12 12 12 12 10 9 9 10 10 10 10 10 10 8 9 9 9 7
24 25 23 22 20 19 19 19 19 18 16 14 14 13 11 10 9 7 9 7 7 7 9 10 13 13 13 12 11 9 9 10 9 9 10 10 10 8 9 8 8 7 7
30 26 24 23 20 19 20 20 18 16 14 13 12 11 10 9 8 9 9 7 5 5 8 9 12 13 13 11 9 9 10 9 9 10 11 12 12 8 8 8 7 6 5
31 25 25 22 21 20 20 20 18 16 14 12 11 10 10 9 9 10 8 8 8 9 12 10 12 11 12 10 9 11 10 11 10 11 12 13 14 10 8 6 4 4 4
30 27 25 23 22 21 19 19 18 16 14 13 12 11 11 9 9 10 10 10 9 10 11 9 9 13 10 9 9 10 9 9 9 11 10 10 10 8 7 6 6 4 5
29 27 25 24 22 21 20 20 18 16 15 13 14 11 11 10 11 11 12 13 12 12 13 15 14 10 8 7 9 9 8 5 7 8 8 8 7 5 6 9 11 13 8
28 27 25 24 22 18 16 16 17 17 16 14 14 12 11 11 11 11 12 15 12 12 11 11 8 7 6 6 8 9 7 7 9 8 9 11 11 11 11 11 11 12 12
26 27 25 22 20 18 18 19 18 16 16 16 15 13 12 11 11 11 12 15 12 12 10 8 6 5 5 7 7 8 6 6 8 8 7 7 8 10 9 8 8 10 12
22 27 26 24 20 18 18 20 19 17 16 16 15 14 13 12 10 10 11 13 13 11 10 8 7 6 7 7 8 8 7 7 8 6 7 7 5 8 9 10 12 11 12
24 26 26 23 20 19 19 19 19 18 17 17 16 15 15 12 10 11 11 12 12 11 10 9 8 8 8 8 7 7 7 5 6 6 7 6 7 7 8 10 10 10 12
24 27 26 24 21 20 19 18 17 18 18 18 17 17 16 14 12 11 11 11 11 10 9 9 9 9 8 7 7 6 5 5 6 6 6 6 6 7 9 9 9 9 11
22 26 27 25 23 21 20 19 18 18 18 20 19 19 18 15 12 10 10 11 10 8 8 9 9 9 7 6 6 5 5 6 7 5 4 5 6 10 9 9 9 9 9
19 21 24 27 24 23 22 21 19 19 19 20 21 20 19 16 14 12 11 12 11 10 10 10 10 9 7 6 5 5 6 6 5 4 4 5 7 9 8 8 8 8 9
21 21 21 28 27 25 24 23 22 21 22 23 24 22 21 19 18 16 14 12 12 11 11 11 10 8 7 9 6 6 5 5 4 3 3 5 8 8 8 7 8 9 8
19 21 23 28 30 29 27 26 25 25 25 25 26 25 23 21 20 18 18 16 14 13 13 12 10 9 7 10 8 6 5 4 4 3 3 6 11 9 7 8 8 7 7
21 22 23 28 32 31 31 30 29 28 27 28 28 28 27 25 22 20 20 19 17 15 14 13 11 11 10 9 8 7 5 5 4 4 5 8 8 7 7 6 7 7 6
26 28 30 31 31 33 34 32 32 32 30 30 30 30 30 29 27 24 22 22 18 17 16 15 14 13 12 11 9 7 6 5 5 5 7 7 8 7 7 7 6 7 6
20 27 31 32 34 35 36 36 34 34 33 33 32 31 31 31 29 28 25 23 21 19 19 19 16 16 14 12 10 9 8 7 6 7 8 8 8 8 7 5 5 3 4
22 21 27 32 34 37 38 38 36 35 34 35 34 34 32 30 31 31 28 24 24 21 22 22 20 19 17 13 11 10 9 8 7 8 10 9 8 8 7 5 3 1 1
21 25 26 27 31 34 36 36 32 32 34 36 35 36 33 31 31 32 31 26 26 25 25 24 23 21 17 13 11 9 8 7 8 10 11 11 10 9 8 7 5 4 2
19 20 26 29 30 32 32 29 27 29 29 31 39 37 35 33 33 31 32 30 29 29 29 26 26 22 16 16 11 6 6 6 7 9 11 12 11 10 10 8 7 6 6
24 23 23 28 32 33 34 35 27 31 28 34 37 38 38 37 36 34 35 35 33 31 31 31 30 24 16 19 8 5 1 3 9 10 12 13 12 12 11 10 9 7 8
23 23 23 23 30 34 36 33 27 23 26 22 28 35 39 38 39 38 37 37 36 35 37 36 33 29 21 19 14 5 2 4 3 8 13 14 13 14 13 11 10 8 9
20 21 23 21 20 26 31 30 30 28 26 28 32 41 40 39 40 39 40 39 39 38 40 40 36 31 21 16 16 15 7 4 3 1 6 11 13 14 14 12 10 9 8
11 13 16 22 22 21 24 31 33 27 25 25 30 34 36 38 40 40 41 41 41 39 41 38 37 32 27 22 16 10 10 7 6 3 3 4 10 13 14 12 10 9 7
13 9 7 11 16 19 19 24 32 33 31 29 29 32 36 37 38 39 40 40 42 41 40 38 36 33 28 23 23 17 12 6 6 4 1 2 4 7 14 14 12 10 9

GFSSE_925_spd_063.txt.gz
Wind_Speed
15 26 22 21 20 20 19 18 19 17 14 13 14 13 13 12 11 10 9 9 10 10 11 11 12 13 13 13 12 11 11 11 11 11 10 11 10 9 9 9 9 8 8
26 25 23 21 19 20 20 19 18 17 14 14 13 12 11 10 10 9 9 8 8 9 9 13 14 14 14 13 11 11 11 10 11 11 10 10 10 9 9 8 8 7 7
30 25 23 22 21 20 20 19 20 18 14 12 12 12 11 10 9 9 8 7 7 8 9 12 15 15 13 12 11 12 11 11 11 12 11 10 9 9 8 8 7 6 6
28 23 22 23 21 20 20 20 17 15 13 12 11 9 10 9 9 8 7 7 6 9 10 9 13 14 12 11 12 12 12 12 12 12 11 12 11 9 7 6 5 5 5
23 25 24 23 21 20 19 19 17 16 13 11 10 9 8 7 8 8 8 9 9 11 12 9 11 13 11 10 11 11 11 11 12 11 12 12 10 7 5 8 4 5 5
23 24 24 22 21 19 17 19 19 14 13 12 10 10 9 8 9 10 11 10 11 12 11 11 15 12 10 10 10 10 9 9 10 10 10 9 7 5 9 12 11 12 14
23 23 22 21 21 21 18 16 15 14 14 13 13 11 10 9 10 11 15 13 11 14 15 14 12 10 8 8 9 9 7 9 9 10 12 12 10 10 10 11 11 13 14
20 21 20 21 20 19 17 16 16 15 15 14 13 12 11 11 11 11 16 13 12 13 12 11 9 8 7 8 10 9 8 9 9 9 8 9 9 9 9 9 11 12 11
17 21 20 20 20 17 15 17 17 15 14 15 13 12 12 12 11 11 14 13 12 11 11 9 7 7 8 8 10 9 8 9 8 7 8 6 7 8 10 11 8 9 11
20 23 22 22 21 19 20 20 18 16 16 13 12 12 13 10 10 11 12 13 11 10 9 7 7 8 8 8 8 8 7 8 7 7 7 6 6 7 9 9 9 8 10
20 25 25 24 21 20 20 20 19 17 16 15 15 14 13 12 11 11 11 13 12 10 8 9 8 9 8 8 7 7 7 7 7 7 6 6 6 9 8 8 8 8 9
19 21 23 24 22 20 19 19 20 20 18 18 18 17 16 14 12 11 11 11 11 10 9 9 9 9 8 7 7 6 7 7 7 6 6 6 6 8 8 8 7 7 8
16 18 22 22 23 21 20 20 20 20 20 21 20 20 18 16 13 12 12 12 10 10 9 10 10 9 8 8 7 7 7 7 6 5 5 6 8 9 7 7 7 7 7
17 19 23 23 25 23 21 21 20 20 21 21 22 22 21 20 17 14 13 13 13 12 12 12 12 10 9 8 7 7 7 7 6 5 5 9 11 9 7 7 7 7 7
17 18 22 23 26 26 25 23 23 22 22 21 22 24 23 22 20 17 16 14 14 14 14 13 12 12 10 11 10 8 7 7 6 6 6 8 14 10 8 8 7 6 6
17 18 21 24 25 28 27 26 25 25 24 23 25 26 25 23 21 20 19 18 16 15 14 14 14 13 11 11 10 9 8 7 6 6 7 9 11 8 8 7 6 5 5
21 20 21 24 26 28 31 30 28 27 26 26 27 28 27 25 24 22 20 20 20 17 16 16 15 14 13 12 10 9 9 8 8 8 9 11 8 8 8 7 7 6 5
17 21 22 25 27 29 33 33 31 29 28 28 28 29 29 28 27 25 24 22 23 21 20 19 18 16 15 14 12 10 9 9 9 9 10 11 11 10 9 8 7 4 4
23 23 22 25 27 31 32 33 32 30 30 31 31 30 31 31 30 29 29 26 25 25 23 22 21 19 18 16 13 11 10 10 9 11 12 12 12 12 11 9 9 6 4
23 23 25 25 27 30 28 28 31 31 32 33 34 32 33 32 31 31 31 30 28 27 26 25 23 22 19 17 13 11 10 10 10 12 13 14 13 13 12 11 9 7 5
21 22 24 29 30 27 26 26 25 30 31 32 36 34 35 33 33 32 34 33 34 32 31 27 26 23 19 19 13 7 8 9 11 13 14 15 15 14 13 12 10 9 7
24 26 25 26 31 30 28 28 23 28 28 32 27 30 36 35 35 35 37 36 37 34 33 32 32 26 21 23 9 4 3 5 11 14 15 16 16 15 14 13 12 11 9
19 23 25 27 27 31 31 28 23 19 21 21 29 32 35 37 38 38 39 39 38 39 38 37 36 33 25 25 18 7 3 5 4 10 15 17 18 18 17 16 15 13 11
10 12 18 24 24 26 30 25 26 23 23 26 27 32 28 34 38 40 40 41 41 40 39 40 39 39 33 24 22 20 9 5 3 2 8 15 17 18 19 18 16 13 11
11 6 6 12 19 21 21 28 29 28 27 27 27 24 28 31 35 40 42 43 43 42 42 42 41 41 39 29 25 14 16 11 8 3 3 6 15 18 18 18 16 13 11
16 16 14 6 6 13 18 21 28 26 26 25 30 28 27 28 32 36 39 43 43 43 43 44 43 42 41 34 31 23 19 8 9 6 2 4 6 11 18 18 16 14 13

GFSSE_925_spd_066.txt.gz
Wind_Speed
15 21 23 21 21 19 20 18 17 16 15 15 14 13 12 12 11 10 9 9 9 10 10 10 12 12 12 11 11 11 11 10 10 9 9 11 10 10 9 9 9 6 8
22 22 24 22 21 20 19 18 18 16 14 12 12 13 12 11 10 9 8 8 8 9 10 12 12 13 12 11 11 11 10 10 10 10 11 11 11 9 8 8 10 7 6
23 22 21 21 20 19 19 19 18 15 14 14 13 11 11 10 9 9 7 7 7 9 9 14 14 12 11 11 11 11 10 11 11 12 14 9 9 9 8 8 7 6 5
21 21 20 20 20 20 19 19 18 16 13 11 11 11 10 9 8 8 6 5 6 8 7 14 15 12 10 11 11 11 10 12 12 13 9 10 10 8 6 6 5 4 3
18 20 19 21 21 21 19 18 18 15 12 10 10 9 6 8 8 7 7 6 6 11 9 12 15 11 10 11 11 11 11 12 12 11 9 9 8 6 5 4 5 5 3
18 18 20 22 21 20 19 18 16 15 12 9 8 7 7 6 7 7 10 7 8 11 11 11 14 11 11 10 10 10 9 10 10 8 8 7 6 8 11 11 13 13 17
18 18 20 20 19 18 18 18 18 14 10 10 9 8 7 6 8 10 10 7 9 10 12 14 12 9 9 8 9 8 8 9 7 8 8 8 9 10 9 10 11 11 11
18 17 18 19 19 18 16 16 14 13 11 11 10 10 9 8 9 12 12 9 12 13 13 11 9 8 7 8 9 8 8 9 7 6 6 7 8 8 9 11 10 10 10
17 16 17 18 19 19 17 15 14 12 13 12 9 10 10 10 10 12 12 13 10 10 11 9 8 7 7 8 9 8 7 9 5 5 5 6 7 9 10 11 8 9 9
16 17 16 16 16 16 14 15 16 15 12 13 9 10 11 10 10 11 15 11 12 11 9 8 7 8 8 9 9 8 7 7 4 4 4 3 6 7 8 8 8 8 8
14 17 17 16 16 14 13 15 16 14 14 11 12 11 11 9 10 10 12 15 12 11 9 8 8 9 9 9 8 8 7 5 4 3 3 4 6 8 7 7 7 7 7
14 17 17 17 15 14 13 12 15 13 14 14 15 14 12 11 11 11 12 14 13 11 10 10 10 9 8 6 6 7 6 5 4 4 3 6 7 7 7 7 6 6 7
13 15 16 16 16 15 13 13 14 14 14 15 16 15 14 13 11 11 10 11 10 11 9 9 9 8 8 7 7 6 7 6 5 4 4 8 9 7 7 6 6 6 6
15 16 16 17 16 16 14 15 14 15 15 15 16 16 15 14 13 12 12 12 11 11 11 11 10 9 8 7 7 7 6 5 5 4 4 9 11 8 6 6 6 6 6
15 15 16 16 16 17 17 15 15 16 16 16 16 18 17 17 16 14 13 12 12 11 12 11 10 10 9 8 7 7 6 6 5 4 4 9 13 10 7 7 7 6 5
14 16 16 18 18 18 18 17 16 15 15 15 16 17 20 17 16 16 14 14 13 13 12 12 12 11 10 9 9 7 6 6 6 6 5 7 14 9 8 7 6 6 5
17 17 18 18 19 19 21 19 18 16 16 17 16 17 20 19 17 16 16 15 15 14 13 13 12 11 10 9 9 8 7 7 6 7 7 8 9 11 9 8 8 7 6
13 16 17 18 20 22 25 21 20 18 17 18 18 18 21 21 20 19 17 16 16 16 15 15 14 13 12 11 10 9 8 8 8 8 9 10 11 10 11 10 9 7 6
15 16 17 20 22 22 22 24 22 20 21 19 19 20 21 23 23 21 19 18 18 18 18 17 16 16 14 12 11 10 9 8 9 10 10 11 11 12 11 13 13 10 8
18 18 19 20 21 22 20 25 24 23 23 21 22 22 21 23 24 24 22 21 20 20 20 19 18 17 15 14 12 10 9 9 10 11 12 12 12 13 12 11 12 10 11
15 16 20 19 22 21 21 22 23 26 26 26 28 23 23 24 25 26 25 23 24 25 24 22 20 19 16 15 11 9 8 10 11 13 13 14 14 14 14 13 12 11 10
17 18 19 20 21 23 23 23 23 21 23 25 25 27 25 25 26 28 29 28 26 26 26 25 23 19 18 19 12 10 5 9 14 16 15 16 16 16 15 15 13 12 10
14 17 18 19 20 21 25 24 21 19 17 17 27 32 35 33 28 30 29 29 27 27 28 29 28 24 21 19 20 8 4 6 8 12 17 16 16 16 15 15 14 12 10
3 7 12 15 17 18 20 24 25 25 23 24 23 24 24 26 35 29 29 29 28 32 30 33 32 32 23 21 19 20 10 2 4 4 9 16 16 16 15 13 12 11 10
9 6 2 7 11 15 16 21 23 25 24 24 24 23 23 23 31 36 28 28 29 29 31 29 35 35 33 23 25 13 16 11 8 4 4 7 13 15 14 14 12 12 11
9 8 8 7 2 6 13 15 20 22 22 21 22 23 23 21 26 31 34 31 31 29 29 31 30 35 35 29 28 22 17 11 10 10 6 4 8 8 12 16 17 13 10

GFSSE_925_spd_069.txt.gz
Wind_Speed
15 21 23 20 20 19 18 17 15 15 14 14 12 11 11 10 8 7 7 8 9 10 10 10 11 12 12 12 11 10 9 9 9 9 10 11 10 10 11 12 7 9 11
21 22 22 21 20 19 18 16 15 14 13 13 11 10 9 8 8 7 7 7 8 8 10 11 11 12 12 11 11 10 9 9 10 11 12 12 10 9 10 10 12 8 7
20 21 21 21 20 19 18 17 15 14 12 11 10 9 9 8 7 5 5 5 6 5 11 12 11 11 11 11 11 10 10 10 13 15 12 8 9 10 9 9 9 8 7
19 19 20 21 20 18 18 17 15 13 12 10 10 10 9 7 6 5 3 3 4 5 7 13 12 10 11 11 11 10 11 12 13 8 8 10 9 8 7 8 8 7 6
19 18 20 20 20 19 18 17 15 13 10 8 8 8 7 7 7 4 4 4 5 8 6 13 10 10 11 10 10 10 11 13 12 11 8 7 9 8 8 8 8 8 6
18 18 18 20 20 19 17 16 14 13 10 9 7 6 5 6 6 6 5 5 8 10 8 13 10 9 10 9 9 9 10 10 9 8 9 9 12 13 14 14 14 15 17
18 18 18 19 18 17 17 17 15 14 10 8 7 6 7 6 7 8 8 6 8 9 9 13 10 8 8 7 7 7 8 8 5 9 10 12 11 11 11 12 12 12 12
16 16 18 18 16 15 16 15 16 12 8 8 8 8 7 7 7 10 9 8 9 11 12 10 8 7 7 6 6 7 9 9 6 6 8 10 10 9 11 11 12 11 12
14 15 17 15 15 16 14 15 14 10 10 9 8 8 8 7 8 12 9 9 10 11 11 9 7 6 6 6 7 7 8 7 5 6 8 8 9 10 11 11 11 10 10
14 16 15 16 16 15 14 14 13 11 11 10 9 6 7 7 8 13 9 9 8 8 8 7 6 5 6 8 8 7 7 6 4 4 5 6 6 8 8 9 9 9 9
10 15 16 16 15 15 14 14 12 12 11 13 10 8 6 7 8 9 10 10 10 11 8 7 6 7 7 7 7 6 6 2 3 2 3 2 7 6 7 7 8 8 8
13 14 16 16 16 15 12 13 14 13 11 11 11 11 9 9 9 9 11 13 12 11 9 8 8 7 8 6 5 7 5 4 3 3 3 4 7 6 6 6 7 7 7
12 13 12 15 15 15 13 12 14 14 13 13 14 11 12 11 10 11 9 12 12 13 9 9 9 8 8 7 7 7 6 5 4 4 4 6 8 7 6 5 6 7 7
13 14 14 14 15 15 14 14 13 14 13 13 14 15 13 13 12 12 12 12 12 12 11 11 10 10 9 8 8 7 6 5 4 4 5 8 10 8 6 6 6 6 6
15 15 16 16 16 15 15 13 13 13 13 13 13 15 15 14 13 13 12 13 13 12 13 12 11 11 10 9 9 8 7 6 6 5 4 7 12 9 6 6 6 5 5
13 14 16 17 15 15 16 14 13 13 13 14 14 15 18 16 15 15 14 13 13 13 13 13 13 12 11 11 10 9 9 7 7 6 5 5 14 11 7 7 7 6 6
17 15 16 16 17 18 17 16 15 13 13 14 15 16 18 19 17 16 16 16 15 14 14 13 13 13 12 11 11 10 9 8 8 8 8 8 11 12 10 8 8 8 7
16 18 17 16 17 18 19 18 16 15 15 15 16 16 19 20 19 19 18 17 16 17 15 15 15 14 14 13 12 11 10 9 9 9 9 9 10 10 13 12 11 9 8
13 14 16 18 19 19 18 19 18 17 18 17 16 17 18 21 21 20 20 19 18 19 18 17 17 17 16 14 13 11 10 10 10 10 11 12 12 12 11 15 15 12 10
18 17 17 17 19 19 18 18 22 20 19 18 19 19 19 21 22 23 21 21 20 20 23 20 19 18 17 16 13 12 11 11 12 13 13 13 14 16 14 14 19 15 13
17 19 20 20 20 19 20 17 22 24 28 21 21 20 20 21 21 24 24 22 23 24 24 26 21 20 18 16 13 11 11 12 14 16 16 16 16 16 16 15 12 13 14
18 18 19 20 21 21 21 20 18 19 23 23 27 29 22 24 26 26 27 26 26 25 24 28 25 21 20 20 15 11 4 10 17 19 18 18 18 17 17 17 16 15 11
14 16 17 19 20 21 21 20 19 18 17 16 24 28 29 28 25 27 27 28 25 25 26 27 30 28 23 23 23 9 3 5 8 15 20 18 18 18 17 17 17 15 14
4 7 11 14 15 18 18 21 22 21 20 20 19 19 21 24 28 28 26 27 28 27 26 28 28 31 25 23 21 26 14 3 3 3 11 18 17 18 17 16 16 17 15
6 4 3 7 12 16 15 18 19 21 19 19 19 20 20 19 22 25 29 28 28 31 30 28 27 29 30 24 26 13 19 16 12 2 4 7 15 17 17 19 16 16 16
7 6 6 4 2 6 12 15 17 19 19 18 18 18 18 18 17 20 22 26 31 27 32 32 29 28 29 27 24 23 22 13 14 8 3 7 10 14 18 16 17 16 16

GFSSE_925_spd_072.txt.gz
Wind_Speed
22 28 24 20 20 19 18 17 17 16 15 14 13 12 11 10 10 10 11 11 12 13 12 13 13 13 14 14 13 12 11 12 13 14 13 14 13 12 12 14 10 14 14
24 28 24 21 21 19 18 17 15 15 14 14 12 11 10 9 9 9 9 10 10 11 12 13 13 13 14 13 13 13 13 14 16 18 19 14 14 12 11 11 9 11 9
25 24 23 23 21 20 18 16 15 14 13 12 10 7 8 8 8 8 7 8 8 9 12 13 13 13 14 13 12 13 16 18 15 14 14 14 13 12 11 11 11 10 9
27 23 24 23 22 21 19 18 16 13 12 10 9 9 8 6 7 7 5 6 7 9 13 13 12 13 13 13 12 14 17 16 14 11 11 9 10 10 10 10 9 8 9
25 23 22 24 22 21 19 16 15 13 12 10 8 7 8 7 7 5 6 5 8 8 14 12 11 12 13 12 13 16 17 15 16 13 10 13 11 11 10 15 19 17 14
22 25 21 23 21 20 18 16 15 14 10 8 6 5 5 5 5 8 7 7 11 9 13 12 11 11 12 11 11 13 13 12 14 11 11 15 17 15 15 15 15 15 16
26 23 21 21 20 18 18 17 15 13 10 10 8 7 8 7 9 8 8 8 11 10 15 12 11 9 9 9 9 11 12 10 12 11 11 11 12 12 12 12 13 13 13
24 22 22 20 19 18 18 18 16 12 10 8 9 8 7 8 9 9 10 10 11 13 14 11 10 8 7 7 8 11 11 10 13 6 8 8 11 11 12 13 13 13 14
24 20 21 19 18 17 17 17 18 12 7 9 8 7 8 9 11 12 13 11 11 12 11 10 8 7 6 7 8 9 10 10 10 7 7 10 11 11 11 10 11 11 11
19 22 17 16 17 17 16 17 15 10 8 9 9 7 6 8 12 13 12 11 11 11 10 8 6 5 4 7 8 8 10 10 8 4 2 8 9 10 9 10 10 10 10
22 20 18 17 17 17 14 16 13 11 11 11 10 7 6 7 11 14 11 9 8 8 8 6 5 5 5 7 8 8 9 6 5 6 5 5 9 8 8 8 8 9 9
10 23 23 20 19 19 21 19 16 14 12 12 12 11 6 11 7 10 11 12 11 10 9 7 7 6 7 6 7 8 7 4 5 4 3 4 9 8 8 7 7 8 8
12 8 22 24 19 21 18 16 15 17 16 14 14 13 12 14 13 12 13 14 14 12 11 10 9 9 10 10 5 6 5 5 5 6 4 4 9 8 8 7 7 7 8
12 10 9 13 19 17 17 14 16 19 18 17 19 11 14 16 13 12 10 13 16 13 11 9 8 10 8 6 9 7 6 7 5 7 7 6 10 9 8 8 8 8 8
17 14 15 11 13 18 17 16 15 17 17 17 19 18 16 18 15 14 16 11 13 13 14 14 14 10 12 11 11 10 10 8 10 6 5 7 11 9 8 8 8 8 8
21 22 18 18 11 14 16 16 15 15 15 15 16 18 18 18 17 15 17 16 15 17 12 17 14 14 15 13 12 12 13 10 10 9 8 9 13 12 9 9 8 9 8
11 16 21 20 19 22 16 16 17 16 15 18 16 18 19 19 19 18 17 18 17 16 16 16 16 16 14 15 14 15 13 13 14 13 10 10 12 15 12 10 10 10 9
21 20 18 19 21 22 22 12 17 15 16 16 18 18 20 22 21 20 20 18 21 18 17 17 17 17 17 17 16 15 15 14 13 14 13 11 13 14 16 14 12 12 11
11 18 23 24 23 22 19 21 15 17 17 18 17 20 20 23 24 22 21 21 17 22 21 20 19 20 20 17 18 16 17 16 17 14 16 15 14 13 14 16 17 16 13
11 11 13 16 23 23 22 18 21 16 18 18 20 20 21 23 24 24 24 23 22 20 25 23 22 22 21 21 18 18 18 18 17 19 18 18 19 15 15 16 19 20 16
18 16 16 14 16 17 25 24 23 25 23 21 19 20 22 23 24 27 28 26 26 27 27 29 25 24 23 20 19 14 14 17 20 20 21 22 21 23 20 18 19 20 20
8 10 13 15 14 20 20 22 23 23 25 30 27 22 23 22 25 28 30 30 29 29 28 28 32 24 26 24 17 11 2 9 22 25 24 24 24 24 23 20 19 18 19
8 10 10 17 21 16 20 19 21 16 16 18 26 31 31 25 21 25 28 30 30 28 30 29 34 34 24 28 29 11 3 5 5 16 28 25 25 25 25 25 21 19 18
4 7 11 12 10 13 16 18 15 23 19 22 23 22 23 24 28 31 20 28 29 30 29 30 28 35 26 26 28 33 19 3 4 1 12 27 26 24 26 26 26 22 22
4 5 3 8 14 16 12 10 13 14 14 22 21 18 17 18 19 21 22 28 27 31 32 31 28 28 36 29 30 26 31 23 13 2 3 8 22 26 24 27 25 25 22
7 7 7 5 4 3 9 13 15 16 16 13 12 14 14 16 19 19 19 19 24 28 28 30 31 32 28 33 32 31 27 15 16 10 2 3 7 13 16 19 19 21 21

GFSSE_925_spd_075.txt.gz
Wind_Speed
28 28 24 23 22 21 20 20 18 17 16 16 14 13 14 13 13 13 14 14 15 15 15 15 15 15 15 14 13 12 14 16 17 16 15 15 15 16 17 13 16 16 13
33 28 25 24 23 21 21 20 19 17 16 15 14 13 12 12 12 12 12 13 13 14 15 15 15 15 15 14 13 15 18 20 20 20 16 16 15 13 13 11 12 11 10
34 29 26 25 24 22 21 20 18 16 14 14 12 10 10 10 10 10 11 11 13 15 15 15 15 15 14 14 16 19 19 17 15 14 16 15 16 14 13 13 12 11 10
34 29 27 26 25 23 21 19 18 16 15 11 8 7 8 9 9 9 8 10 12 15 15 15 14 14 14 15 18 19 15 14 12 10 11 12 12 12 11 10 10 10 7
32 28 28 26 25 23 21 20 18 16 13 12 10 10 8 10 9 7 8 10 11 15 13 14 14 13 14 17 20 17 15 15 14 16 15 13 14 15 20 21 18 19 17
28 27 26 26 24 23 21 19 18 18 14 11 10 9 9 6 7 9 9 12 12 14 13 13 13 12 13 15 17 14 14 14 14 12 12 15 17 16 16 15 14 14 16
28 26 27 25 24 22 21 19 19 16 13 12 10 9 10 9 9 9 11 13 13 15 13 13 11 11 11 13 15 12 12 13 12 12 12 12 13 13 13 13 14 12 12
31 28 26 24 22 21 20 20 18 16 13 12 10 11 11 10 11 11 11 14 13 17 14 13 9 8 9 11 13 11 11 12 11 8 11 11 11 12 12 11 12 12 12
30 28 26 23 22 21 22 20 19 14 11 10 10 7 10 12 13 12 14 14 15 15 13 13 9 8 8 10 12 12 12 10 11 9 8 8 11 10 10 10 11 11 11
26 26 27 24 22 21 21 20 17 12 11 10 10 6 8 12 15 16 15 12 15 15 13 11 9 7 7 10 12 13 12 11 9 6 4 7 8 9 9 9 10 10 10
25 26 24 23 22 21 19 19 16 12 11 12 10 8 7 11 16 16 15 13 14 13 12 10 9 7 8 11 11 13 13 9 7 9 8 7 9 8 8 8 9 9 10
27 26 22 20 22 21 21 20 17 15 15 15 13 10 7 10 13 16 14 12 11 11 11 10 9 8 10 11 11 13 11 5 13 8 7 7 9 8 8 7 9 9 10
23 24 25 22 22 24 23 24 23 21 18 15 14 14 9 12 12 14 15 15 14 14 13 12 11 11 12 12 10 11 11 7 13 8 7 6 9 10 9 8 9 9 9
20 19 19 25 26 26 25 25 21 21 20 20 17 14 16 16 18 15 15 16 18 15 13 13 11 12 14 12 10 9 9 7 15 10 10 8 10 11 10 9 9 9 9
16 18 13 14 25 27 29 23 17 19 21 22 20 16 17 18 22 16 15 14 18 16 15 13 11 13 13 12 13 12 12 12 11 11 11 10 10 12 12 11 10 10 10
13 20 16 13 16 27 25 20 18 21 22 21 21 20 17 20 21 16 16 15 13 14 13 13 11 12 14 12 13 13 15 15 13 12 11 12 13 14 13 12 12 12 11
21 16 21 19 15 15 21 21 20 18 20 20 18 19 20 22 22 18 18 21 17 15 14 15 17 15 17 18 16 16 15 16 15 15 13 15 16 16 15 14 13 13 13
15 20 20 19 24 21 18 18 21 20 19 19 20 19 21 21 21 20 20 23 20 19 18 19 18 19 18 19 18 17 19 19 18 18 18 16 18 18 18 17 16 15 14
21 20 24 23 20 27 25 20 15 17 21 19 20 21 21 23 23 22 23 23 22 23 22 23 22 22 21 21 20 20 18 20 18 19 20 20 20 20 19 19 20 18 18
14 27 24 22 24 22 22 28 21 16 18 19 20 21 22 23 24 27 27 26 25 23 26 25 25 23 25 23 19 20 20 20 21 21 21 23 22 22 21 20 22 22 21
13 11 20 20 25 26 24 22 24 25 23 23 22 25 24 25 26 28 29 29 27 28 27 29 27 27 26 21 18 18 18 21 24 26 26 24 26 25 25 25 23 23 23
8 6 8 10 13 25 27 27 24 27 29 27 26 21 25 27 28 30 31 32 32 30 30 28 32 28 27 24 16 4 2 9 24 29 28 30 28 27 29 28 26 25 24
5 1 2 7 11 11 16 25 26 21 24 22 29 32 29 25 21 26 31 35 34 35 33 33 33 36 30 30 31 15 2 5 2 17 36 34 33 30 31 30 27 25 24
3 3 6 10 10 9 13 9 23 25 24 26 25 25 26 29 30 28 25 24 29 33 34 35 35 37 34 28 29 35 28 5 4 3 9 25 32 29 29 29 28 26 24
6 6 2 5 12 14 10 7 5 11 14 17 20 23 22 19 17 16 17 20 25 26 26 30 28 28 30 29 29 22 28 21 11 3 4 4 19 25 24 29 28 25 24
8 6 8 7 8 4 3 9 10 7 9 10 7 14 22 19 18 19 18 16 16 16 23 24 24 21 27 30 29 31 27 13 19 7 3 3 2 2 17 21 23 22 23

GFSSE_925_spd_078.txt.gz
Wind_Speed
29 29 26 24 24 23 22 21 19 18 17 16 15 15 15 15 14 15 15 15 16 15 15 15 14 14 13 13 14 15 16 16 15 15 15 15 15 13 14 16 15 14 13
36 30 28 26 24 23 22 21 20 18 18 16 16 14 14 14 14 13 14 14 15 15 15 14 14 14 13 14 15 18 18 19 19 17 15 14 13 12 11 11 10 10 10
35 31 29 26 25 24 23 22 21 19 17 16 16 15 13 13 13 13 13 14 16 15 14 14 14 14 14 16 18 18 16 15 16 16 15 15 14 12 12 11 10 10 9
34 31 30 27 26 24 23 22 20 19 17 15 12 10 11 12 12 10 11 13 15 15 15 14 14 14 17 19 16 15 13 10 10 13 13 13 12 9 10 11 10 8 9
35 31 29 28 26 25 23 21 19 18 17 14 12 11 11 13 10 8 11 13 16 14 14 14 14 16 19 18 16 13 13 14 15 14 12 14 18 19 18 15 20 17 14
34 31 30 28 27 25 23 21 19 19 17 14 13 12 9 9 8 9 12 14 15 13 13 13 13 16 18 16 15 13 14 13 12 13 16 16 15 12 11 11 11 12 12
33 31 30 27 26 25 23 21 21 19 16 14 15 13 9 9 9 10 13 15 15 14 12 12 10 13 16 15 13 13 12 14 13 12 12 12 11 10 10 10 11 10 9
32 31 29 27 26 24 22 22 21 17 15 14 13 12 12 11 13 13 15 17 16 15 13 10 8 11 14 15 13 11 13 12 11 10 9 9 9 10 10 10 10 10 9
31 31 29 27 25 24 22 22 20 17 14 10 9 12 13 13 13 13 16 16 17 16 14 11 9 9 13 15 14 12 10 10 9 9 8 9 9 8 8 9 9 9 9
30 32 29 27 25 24 24 22 20 16 12 10 10 7 11 14 14 16 15 15 16 15 13 12 10 8 11 14 15 12 11 12 9 8 4 5 6 8 8 8 8 8 8
27 31 30 28 25 24 24 22 18 14 13 12 9 9 10 15 16 18 15 14 15 15 13 11 9 8 9 13 14 14 10 11 9 9 7 5 6 8 7 7 8 8 8
25 29 30 28 28 26 23 22 19 16 14 14 13 10 10 14 17 17 16 13 14 12 11 10 8 8 9 12 13 15 12 8 9 11 9 6 6 8 8 7 7 7 7
28 29 28 28 28 28 25 25 22 20 18 17 16 12 9 14 18 19 16 15 13 11 10 10 10 9 10 11 11 13 11 7 10 12 10 8 7 9 8 7 7 8 8
30 28 28 27 28 28 27 27 25 23 21 20 18 16 15 16 17 19 18 16 16 15 14 14 12 11 11 11 10 12 13 10 10 14 12 9 8 9 9 9 8 9 9
29 26 26 26 28 30 27 27 26 25 23 21 20 19 19 19 18 17 16 16 17 17 15 14 14 13 14 14 12 11 12 12 12 17 15 12 11 10 10 10 10 10 9
23 25 26 26 26 29 29 27 27 25 22 22 22 20 19 21 19 20 18 17 16 18 16 15 13 13 16 16 14 14 14 14 15 17 16 14 13 13 12 12 12 11 11
23 26 24 22 21 29 32 29 29 22 22 24 23 21 21 21 20 22 20 16 16 14 15 15 16 15 16 16 17 16 16 16 17 17 17 16 16 16 15 14 14 14 13
20 21 23 23 20 22 29 29 25 23 24 25 24 23 25 24 22 23 22 19 17 18 18 19 19 20 20 20 22 19 19 18 19 20 19 18 19 19 18 17 16 16 15
20 18 20 21 23 21 24 27 23 21 21 23 22 21 21 25 24 26 24 21 19 23 24 23 24 22 24 22 22 22 21 23 23 23 23 22 21 22 22 21 20 20 19
19 20 21 21 21 22 23 21 21 21 22 23 24 24 22 23 24 25 26 24 22 24 27 26 25 24 24 23 22 22 22 23 24 25 26 26 25 25 25 24 23 24 23
15 20 21 24 23 20 20 24 25 24 22 23 25 25 25 25 26 28 28 28 27 27 29 29 27 26 27 23 19 20 22 23 25 27 26 28 29 28 27 27 26 25 26
15 15 20 24 21 24 26 23 23 29 28 26 24 24 27 28 29 29 29 29 30 30 30 30 30 31 30 27 16 3 2 11 27 32 30 31 31 29 30 30 30 29 28
12 12 12 15 14 17 23 24 21 20 22 29 29 27 27 26 27 30 31 33 32 32 34 34 32 32 27 29 30 13 1 5 2 11 28 35 30 29 29 30 32 32 30
4 4 6 7 8 10 14 19 25 26 22 26 27 28 31 30 28 24 24 29 32 32 31 35 36 35 32 26 23 32 22 6 4 3 7 13 24 30 27 27 27 29 30
5 3 2 7 9 7 9 10 16 23 24 24 17 19 21 21 21 20 23 25 26 26 26 27 29 32 30 29 29 22 31 24 9 4 6 4 6 15 26 26 27 27 26
8 8 8 8 7 2 5 7 10 11 12 13 12 11 15 20 19 17 18 17 16 16 17 18 21 22 24 25 26 28 25 11 13 13 5 7 7 10 17 22 23 27 28

GFSSE_925_spd_081.txt.gz
Wind_Speed
26 29 26 26 23 23 22 20 18 17 17 16 15 15 15 15 15 15 15 15 15 14 14 13 13 13 13 14 15 15 15 14 14 14 13 16 11 13 14 14 12 11 11
36 30 28 27 25 23 21 19 18 17 16 15 15 14 14 14 14 14 15 14 14 14 13 13 13 14 14 15 16 17 16 16 16 14 13 13 12 10 10 9 8 9 10
37 32 30 29 26 24 22 21 19 18 16 15 14 14 14 13 14 14 14 15 15 14 13 12 13 14 16 16 16 15 15 16 15 14 13 13 12 11 10 9 9 9 8
33 32 30 28 27 24 22 21 19 18 16 15 14 13 13 13 14 14 14 15 14 14 12 12 13 15 17 15 13 11 11 12 12 12 13 12 9 9 11 8 9 8 5
33 31 29 28 27 24 23 21 19 18 16 13 11 12 13 13 12 12 14 15 13 13 12 12 15 17 15 14 13 12 12 13 11 12 16 17 19 14 13 17 13 13 13
33 31 28 27 27 25 23 20 20 18 15 14 13 14 13 12 10 12 14 16 13 12 12 12 15 16 15 13 11 11 11 12 12 15 15 13 11 8 9 9 9 10 14
32 30 28 27 27 25 23 21 20 18 16 15 14 12 9 9 10 13 16 15 14 11 11 11 13 15 14 12 11 10 11 11 12 13 11 7 8 8 7 8 8 7 7
29 31 29 26 26 25 24 22 21 19 17 16 14 11 8 10 10 12 16 16 14 12 10 9 9 13 13 11 8 9 10 10 9 8 6 6 8 8 7 8 8 7 7
28 30 29 26 25 24 22 22 22 18 15 12 12 11 9 10 11 11 16 15 15 12 10 8 7 9 11 9 7 7 9 7 7 6 6 6 7 6 6 7 6 6 6
28 29 28 26 25 23 22 22 20 17 13 10 9 12 10 10 10 12 15 14 14 13 11 8 6 6 8 9 7 5 6 6 6 5 4 3 2 5 5 5 5 5 5
25 25 27 27 25 24 23 22 19 16 11 8 9 9 12 12 13 13 13 14 13 11 9 8 6 5 8 10 9 7 5 8 6 4 3 1 1 3 4 4 4 4 4
25 22 26 29 27 25 25 23 21 17 13 12 11 10 12 14 15 15 14 12 12 12 9 8 7 6 7 10 10 9 8 7 6 7 6 4 2 3 3 3 3 4 4
29 23 26 30 28 27 27 25 22 18 15 14 12 10 11 14 16 17 16 14 14 13 12 11 10 8 8 10 11 10 10 8 7 9 8 7 5 5 4 3 4 4 4
29 30 29 30 29 29 26 24 23 21 19 17 16 14 12 13 18 17 17 15 15 14 12 12 11 10 9 10 11 11 12 10 7 10 11 10 8 7 6 5 5 5 5
28 29 30 30 30 29 27 26 26 24 22 19 18 18 15 13 16 18 17 16 16 16 14 13 13 12 11 12 11 11 12 12 12 13 15 13 11 11 8 7 7 7 6
28 29 29 29 30 30 28 28 28 27 24 22 21 20 18 16 17 17 16 17 17 17 16 14 13 13 13 13 14 13 14 15 16 14 16 17 15 14 12 10 10 9 8
29 27 27 28 27 30 30 28 28 27 25 24 22 22 20 19 18 18 18 17 17 16 15 16 14 14 13 14 17 16 16 16 18 17 18 19 18 17 16 13 12 11 10
26 31 26 27 28 28 31 30 27 26 25 24 22 21 22 22 20 20 21 21 17 17 16 16 15 17 17 17 17 18 19 19 19 19 19 20 20 20 19 17 15 14 13
26 27 28 25 24 24 31 32 30 28 27 24 23 23 23 23 23 24 24 23 19 18 19 19 19 19 20 20 21 21 22 23 22 21 22 23 23 23 21 20 19 18 17
21 23 25 25 24 21 21 26 26 26 28 25 25 26 24 25 25 27 27 26 23 23 23 24 24 23 24 23 22 23 22 25 24 25 27 27 26 26 24 23 21 21 20
18 21 22 23 26 25 23 23 25 25 22 23 24 25 24 24 23 27 28 27 27 27 26 25 26 26 25 23 18 21 24 25 26 27 27 28 30 29 27 26 25 24 22
17 21 23 22 21 22 23 26 27 26 25 25 25 26 27 28 26 27 27 27 27 28 28 27 27 27 26 24 13 5 3 8 22 28 31 31 31 29 29 28 27 27 26
17 12 16 21 21 21 21 21 20 20 22 25 28 26 27 26 27 27 27 29 29 28 30 30 28 28 26 24 23 11 1 4 3 7 12 19 28 29 27 26 27 27 28
11 9 10 11 12 15 19 22 24 26 23 23 24 29 30 27 25 23 26 27 29 29 29 30 29 29 29 22 18 23 27 12 3 3 5 8 11 16 23 30 28 26 27
9 7 6 7 8 9 10 14 20 23 25 24 22 20 20 20 21 22 23 24 24 22 22 22 24 25 26 23 25 18 20 25 19 8 7 6 9 11 15 20 22 23 23
8 9 9 7 4 5 9 11 12 15 19 20 20 20 20 19 20 20 19 18 18 19 17 16 15 13 16 21 22 21 21 10 6 11 7 10 8 12 19 18 18 23 23

GFSSE_925_spd_084.txt.gz
Wind_Speed
21 29 27 24 24 23 22 20 19 18 18 17 17 16 15 15 15 16 15 16 15 14 14 14 14 14 15 15 15 15 15 14 13 14 15 13 14 14 13 11 9 11 10
32 31 28 26 25 24 21 19 18 18 17 16 16 15 15 14 15 15 15 16 15 14 14 14 14 14 16 16 16 16 16 15 15 14 13 13 12 10 8 8 9 10 10
36 32 29 27 26 24 21 19 18 17 15 15 15 15 15 14 13 14 14 15 15 14 14 14 15 16 16 16 16 16 16 15 15 15 15 14 12 10 10 10 9 8 8
31 31 31 27 26 25 22 20 18 18 16 14 15 15 14 13 13 13 13 14 14 14 14 15 15 16 15 13 13 12 13 13 14 14 13 12 12 12 11 12 10 5 7
32 31 30 28 26 25 24 21 19 16 15 14 12 12 13 13 12 13 13 13 13 13 13 15 15 15 14 13 12 12 12 12 14 18 18 16 15 14 15 12 14 15 12
32 30 29 27 26 24 23 20 18 17 15 12 11 12 13 12 11 13 14 11 11 12 13 14 14 14 12 10 11 12 12 12 14 14 14 12 10 10 9 8 9 13 11
30 29 27 25 25 23 21 20 19 17 14 12 11 13 11 10 10 13 14 12 11 11 12 12 13 12 10 10 11 10 11 11 12 10 8 6 8 9 9 9 9 8 6
32 29 26 24 24 23 21 21 19 16 15 14 13 11 9 9 10 13 15 14 11 10 11 11 11 11 9 8 8 9 9 8 8 6 6 7 7 9 8 9 9 9 7
27 30 26 25 24 22 21 20 20 18 15 13 11 8 5 9 9 12 15 13 11 9 9 9 8 9 8 6 6 7 6 5 4 5 5 6 6 7 7 7 8 7 7
25 28 27 26 24 23 21 21 20 16 14 11 11 13 8 9 10 10 15 13 11 9 8 7 6 7 7 6 5 5 4 3 3 3 3 4 4 5 5 6 6 6 5
23 24 27 26 24 22 21 20 18 15 11 7 8 10 12 11 11 12 14 13 11 9 7 6 5 4 6 7 5 3 3 5 3 1 1 2 3 3 3 3 3 3 4
24 23 26 27 26 23 22 21 19 16 11 7 8 9 11 11 12 13 13 12 10 9 8 7 6 5 5 7 7 6 4 5 4 4 4 1 1 1 3 3 3 2 2
23 22 23 26 27 25 24 23 20 17 12 9 9 8 10 12 12 14 16 14 12 11 9 8 8 6 5 7 9 9 9 8 6 6 6 4 2 2 5 4 4 1 1
22 22 24 24 28 27 25 25 22 19 15 12 11 10 10 12 13 14 15 14 13 13 11 10 10 9 7 7 9 10 9 9 8 5 6 8 6 5 5 6 5 2 2
23 25 24 25 30 28 26 26 24 21 18 15 14 13 12 11 14 16 15 14 13 13 12 11 10 10 10 9 9 10 9 9 10 9 10 11 10 8 8 7 5 4 4
22 25 27 28 28 28 27 25 26 22 20 18 16 15 15 13 12 15 16 16 14 14 13 12 11 10 11 11 11 11 10 11 12 12 12 12 13 13 12 9 8 7 6
26 24 26 27 28 28 27 25 25 24 22 21 19 17 18 17 15 14 15 15 14 13 14 13 13 12 12 12 12 13 13 13 14 14 14 14 15 16 15 13 11 10 8
21 24 24 26 28 28 28 26 24 25 24 22 21 20 20 19 17 16 17 17 15 14 15 15 14 14 14 13 12 13 15 16 17 17 17 16 17 18 18 17 16 13 12
21 22 24 26 26 27 28 28 26 25 25 24 22 22 21 21 20 21 20 17 17 17 16 16 15 16 16 15 16 17 18 19 20 20 20 19 20 21 21 20 19 17 16
18 20 22 24 25 25 26 26 27 27 26 25 24 23 23 23 22 23 23 21 19 20 20 18 19 19 19 18 18 20 20 21 22 22 23 23 23 24 23 22 21 21 19
13 18 22 27 25 24 21 22 25 28 29 28 28 27 26 25 25 25 25 24 23 24 24 22 22 22 23 22 18 20 22 22 23 24 25 26 25 26 25 25 23 23 22
19 19 22 23 27 27 25 23 22 25 26 26 25 27 27 27 26 25 25 26 25 25 26 25 24 24 23 22 10 3 3 7 16 19 23 24 26 26 27 26 23 23 23
19 21 21 21 19 22 25 24 21 20 22 21 25 25 26 25 26 25 24 24 24 24 26 25 25 24 23 18 18 11 1 4 2 8 8 12 15 18 21 22 22 23 24
19 16 15 16 19 19 21 22 23 23 23 26 26 27 27 24 24 24 26 26 25 25 25 27 26 25 23 22 18 21 24 11 3 3 8 10 8 14 15 14 18 21 21
11 12 12 11 12 13 14 17 20 21 22 22 20 17 16 17 20 23 24 23 24 24 23 23 23 22 22 21 22 16 14 19 19 7 4 6 8 9 10 12 13 14 17
11 11 11 10 8 7 8 9 10 13 16 18 19 19 18 17 16 17 18 20 21 21 20 19 17 16 14 13 13 16 16 7 5 9 5 9 8 8 11 12 13 13 13

GFSSE_925_spd_087.txt.gz
Wind_Speed
24 29 26 25 23 22 22 21 20 19 18 17 17 16 15 16 16 16 16 15 14 15 16 16 17 17 17 16 16 16 15 14 15 14 15 17 14 12 11 10 12 12 12
30 30 29 27 24 22 21 20 19 18 17 17 17 15 16 16 16 16 16 16 16 16 17 16 17 17 17 17 17 16 16 16 16 14 13 13 12 10 10 12 12 11 11
31 28 28 27 24 22 20 19 19 18 16 16 15 15 15 15 16 16 16 15 15 15 16 17 17 18 18 18 17 16 16 17 16 16 15 13 11 12 13 13 10 9 10
30 28 26 27 25 22 20 19 18 16 15 14 14 14 14 14 15 16 16 15 15 15 16 17 17 17 16 15 15 15 15 16 15 15 13 16 15 13 13 14 9 8 9
27 27 27 27 25 23 20 17 17 16 15 15 15 14 14 13 14 14 15 14 14 15 16 17 16 16 15 14 14 13 14 16 19 19 16 15 14 14 12 15 15 13 11
27 26 28 28 26 23 22 18 17 16 16 13 11 12 13 12 13 13 13 13 13 14 15 15 15 15 14 15 15 14 14 16 16 15 13 11 11 10 10 9 11 13 14
26 25 27 26 26 23 22 19 16 16 12 12 12 13 12 11 12 13 12 11 12 13 13 13 13 13 14 14 13 13 14 13 12 10 9 10 10 11 10 10 8 6 6
24 25 24 25 24 23 21 19 18 14 13 11 13 12 10 9 11 13 13 11 11 11 12 12 12 11 12 12 12 11 11 10 9 9 9 9 9 9 9 9 9 10 9
23 26 23 24 23 23 22 20 18 16 15 13 11 7 6 8 10 14 12 11 10 10 10 10 9 9 9 9 9 9 8 7 7 8 8 8 8 8 7 8 8 9 8
24 24 25 24 23 22 22 21 18 18 13 10 8 5 1 8 8 12 13 10 9 8 9 8 8 8 7 7 7 6 4 5 5 6 6 6 6 6 6 6 7 8 8
22 20 24 26 24 24 22 21 19 16 12 9 7 7 7 9 10 12 13 11 9 7 7 6 5 6 6 5 5 4 3 3 3 2 3 5 4 4 5 6 6 7 7
21 20 23 25 24 24 23 22 20 16 12 8 7 8 10 10 11 12 14 12 9 8 6 5 4 4 4 5 5 4 3 4 2 1 1 1 2 2 5 6 6 5 5
18 18 21 22 25 22 21 24 21 18 13 9 8 8 10 10 11 13 14 13 11 9 8 7 5 4 3 4 6 6 5 4 3 4 3 3 1 2 4 5 6 5 4
21 20 22 20 26 23 23 24 22 19 15 11 11 9 10 12 12 14 16 16 13 11 9 8 7 5 4 4 5 7 7 7 6 5 4 5 5 4 4 5 5 4 1
21 22 23 25 26 26 24 24 22 20 16 13 12 11 10 11 12 14 14 13 11 10 10 8 7 7 7 6 7 7 7 7 7 8 7 8 9 7 7 5 5 4 2
22 22 22 27 27 27 26 24 23 21 17 15 13 11 11 11 10 13 14 14 13 11 10 9 8 7 8 9 9 9 8 7 8 9 10 10 9 10 9 8 7 6 5
25 25 25 27 27 29 27 24 24 22 19 17 15 13 13 13 12 11 14 14 13 11 10 10 10 10 9 10 9 9 10 10 11 10 11 11 11 12 12 11 10 9 8
20 23 21 22 28 29 28 26 23 23 21 19 17 16 15 15 14 14 13 14 13 12 11 11 11 10 11 10 10 9 9 11 12 13 14 14 13 13 14 15 14 12 11
20 18 19 21 23 28 28 26 24 22 22 21 20 18 17 16 16 17 16 14 13 14 14 12 12 12 12 11 12 12 12 14 15 15 16 16 16 16 16 17 17 16 15
15 18 18 21 21 23 25 26 24 23 22 22 21 21 18 18 18 19 18 17 17 17 17 16 15 15 15 13 14 16 17 17 16 16 16 17 19 19 19 19 19 19 18
10 15 16 18 19 22 23 23 23 25 26 25 24 22 21 20 21 22 21 21 21 21 20 18 18 17 16 16 13 12 17 14 16 16 16 18 20 19 19 20 20 20 20
10 10 12 17 19 21 23 22 21 22 25 29 28 26 24 24 24 25 25 25 23 24 22 21 21 18 16 17 7 3 3 4 11 15 12 14 14 16 17 19 19 18 19
10 16 17 17 21 23 23 22 18 16 17 14 21 22 22 23 23 24 24 24 23 22 25 23 22 21 16 16 15 9 1 4 2 7 11 10 8 13 12 10 13 15 16
14 14 16 18 19 20 21 24 23 21 17 18 19 20 21 22 21 22 25 25 24 23 23 23 21 22 21 16 16 20 21 12 3 3 7 7 9 12 12 9 8 10 13
11 12 14 14 17 19 19 21 22 20 18 16 15 15 13 15 18 22 24 24 25 25 25 24 22 22 21 20 20 14 13 17 17 7 2 5 6 5 6 9 9 8 9
9 11 14 13 13 14 15 16 17 19 19 17 17 16 15 16 15 16 17 20 21 22 22 22 20 19 18 17 17 15 15 7 6 7 4 8 6 6 8 8 9 10 6

GFSSE_925_spd_090.txt.gz
Wind_Speed
22 25 27 24 23 22 21 20 18 17 16 16 15 14 15 15 15 15 15 16 17 17 17 16 16 16 16 16 15 15 15 16 16 17 17 15 13 12 13 15 13 12 12
28 27 28 25 23 22 20 18 18 18 16 15 15 15 16 16 16 16 16 16 16 16 17 16 16 17 17 17 16 16 16 16 15 14 16 15 14 13 13 13 12 11 11
30 27 27 25 23 22 20 19 18 17 16 15 15 16 16 16 16 16 16 16 16 16 16 16 17 17 17 18 17 17 17 18 18 19 16 13 13 14 14 11 11 11 11
29 27 27 27 24 22 20 19 17 16 15 15 15 15 16 15 16 15 15 15 16 17 17 16 16 16 15 16 16 16 17 17 18 15 14 16 12 15 17 15 12 11 9
27 26 26 28 25 22 19 18 16 14 14 15 15 14 15 14 15 15 15 15 16 18 17 16 15 14 14 14 14 16 19 19 18 15 13 12 10 11 14 15 12 13 17
25 24 25 27 25 22 18 16 17 14 15 15 13 15 14 14 14 14 14 15 17 18 16 15 15 15 14 14 14 15 17 18 14 12 11 12 11 12 13 11 10 13 15
24 22 24 26 25 23 20 18 16 14 14 11 11 12 11 12 14 12 12 14 15 15 15 14 14 14 13 12 13 14 13 14 10 9 10 11 11 12 12 12 11 9 9
22 21 24 26 25 24 23 19 17 14 10 10 12 11 10 11 12 12 11 12 13 13 13 13 12 13 12 12 12 11 11 11 9 10 10 10 10 10 11 11 11 11 11
20 20 21 21 22 23 20 20 19 16 13 15 13 8 7 10 12 12 11 10 11 11 11 11 10 10 10 10 10 8 8 10 8 8 9 8 9 9 9 10 10 10 9
19 19 20 20 19 19 17 20 19 17 15 13 11 7 3 8 12 13 11 9 10 9 10 9 8 7 7 7 7 6 6 8 6 6 7 6 7 7 8 9 8 8 8
19 19 19 19 19 18 17 18 18 18 16 12 9 8 7 8 10 13 10 9 8 8 8 7 6 6 6 5 5 4 5 3 4 3 3 4 5 5 7 7 7 7 7
19 16 18 18 18 18 16 18 17 15 12 11 10 9 10 10 10 13 12 10 8 7 5 5 4 4 4 3 2 2 2 2 2 2 0 1 2 3 5 6 6 6 5
18 14 16 15 17 18 16 17 16 14 12 10 11 11 10 10 10 11 11 11 10 8 6 5 4 3 3 3 4 3 2 2 1 2 3 2 1 2 3 4 5 4 4
20 19 19 16 18 18 16 17 14 13 11 10 10 11 10 9 10 11 11 11 9 8 7 6 5 4 3 3 3 4 4 4 3 4 4 4 5 4 5 4 4 3 2
17 19 19 22 20 19 17 16 15 14 12 10 10 10 10 9 10 10 11 10 10 9 8 7 6 5 5 4 3 4 5 5 5 6 5 8 7 7 6 7 5 3 2
17 18 18 20 20 19 18 17 15 14 12 11 10 10 9 9 9 10 10 10 9 9 8 7 6 5 5 5 5 5 6 6 6 6 6 7 9 9 10 9 8 6 5
19 20 22 21 23 22 20 18 17 14 12 11 10 10 10 10 10 9 10 11 10 8 8 7 7 6 6 5 6 6 6 7 8 8 7 7 8 9 10 11 11 10 9
15 19 21 20 22 23 21 19 17 16 14 12 12 11 12 11 11 10 9 10 10 9 8 8 7 7 6 6 5 5 6 7 8 8 9 9 8 7 9 11 13 12 11
15 16 19 20 21 25 24 21 18 16 16 14 13 13 12 13 13 12 10 10 10 10 9 8 8 8 7 6 6 7 7 8 9 10 10 11 10 11 9 11 13 15 15
14 15 17 18 18 19 20 21 20 15 16 16 15 14 13 13 14 13 12 11 11 11 10 10 10 8 8 7 7 9 10 11 11 11 11 10 10 10 10 10 10 11 15
12 14 14 17 16 18 19 17 15 18 18 17 16 16 15 14 14 14 13 12 13 13 12 11 11 10 9 8 7 10 11 12 12 12 11 10 9 8 7 8 9 9 10
9 12 14 17 17 16 13 14 16 17 21 21 22 18 16 16 15 15 15 14 13 13 14 14 13 11 11 10 7 6 4 6 9 9 8 7 7 6 5 7 7 8 9
9 8 12 17 16 13 11 13 14 16 16 15 19 23 24 23 22 20 18 17 17 16 15 15 15 15 14 10 13 8 2 4 3 4 5 5 4 4 4 4 6 7 7
8 8 10 14 16 16 10 16 18 15 13 14 15 12 12 16 18 20 21 19 18 18 19 17 16 17 15 16 9 15 15 6 3 2 5 4 6 6 7 6 3 4 6
7 9 9 12 13 16 19 24 17 16 16 13 13 13 13 13 15 19 20 21 20 19 20 18 17 17 16 16 16 8 9 11 11 7 3 8 4 4 4 6 7 5 6
7 8 8 10 11 14 16 17 16 17 15 12 12 11 11 10 10 12 14 16 18 19 19 18 17 17 16 15 14 13 11 6 8 7 6 7 7 4 5 4 4 6 6

GFSSE_925_spd_093.txt.gz
Wind_Speed
22 25 25 23 22 21 20 19 17 15 16 14 14 15 15 14 15 16 18 20 20 19 19 17 17 16 16 15 15 16 17 18 19 18 17 17 17 16 15 19 13 13 15
27 26 27 25 23 22 19 17 16 15 14 15 15 15 17 15 15 15 15 16 17 18 18 18 18 17 16 16 16 17 17 17 18 17 18 20 20 17 15 15 15 14 14
27 26 24 25 23 21 19 17 16 15 14 14 16 16 16 16 16 16 16 17 17 18 18 18 18 18 17 16 17 18 20 22 20 19 15 15 18 20 15 15 15 13 12
26 26 24 24 23 21 19 17 16 14 14 13 16 15 16 16 16 16 16 17 18 18 18 17 17 16 16 16 17 18 19 18 19 18 18 15 14 18 16 16 16 18 12
25 25 24 24 23 21 19 18 16 16 14 14 14 15 16 16 15 16 16 17 18 18 17 16 15 15 15 16 17 19 19 19 18 15 13 16 15 14 15 16 18 20 19
24 23 25 24 22 21 19 18 16 16 15 14 14 14 14 15 14 15 15 17 19 17 17 16 17 16 15 16 17 18 18 15 15 12 15 14 14 15 14 14 14 14 15
24 23 24 24 22 20 18 18 18 16 16 13 13 12 12 13 13 14 15 17 16 16 16 15 16 14 14 15 15 14 13 14 12 12 13 13 13 14 14 15 15 13 12
23 23 23 23 21 19 19 17 16 17 13 10 11 11 11 13 11 12 14 14 14 14 14 14 14 13 13 13 12 11 11 11 10 12 11 12 13 13 14 14 14 14 13
21 22 22 20 20 19 18 16 16 15 14 15 11 11 10 12 11 11 11 12 12 12 12 12 12 11 11 10 10 9 11 13 10 10 10 10 11 11 12 12 12 12 12
15 20 22 20 19 17 15 16 16 16 14 15 12 9 8 11 12 11 10 10 10 10 10 9 9 9 8 7 7 7 10 9 7 7 8 9 9 10 11 10 11 11 11
19 18 20 20 20 18 15 15 15 15 15 13 9 6 8 10 13 11 10 7 7 8 8 7 7 6 5 5 4 5 6 3 4 5 5 6 7 8 9 9 9 9 9
22 17 19 19 19 17 17 15 14 13 11 9 7 8 9 10 12 12 11 9 7 6 6 6 5 5 6 2 1 3 2 2 2 3 1 2 4 4 6 7 8 8 7
17 17 19 19 19 20 18 17 16 12 10 9 9 9 9 11 11 11 11 12 9 6 5 4 3 3 3 3 3 3 2 1 1 1 3 1 2 0 3 5 6 6 6
17 16 17 14 19 19 17 16 17 13 10 8 9 10 10 10 12 12 12 11 9 8 8 6 4 4 4 4 4 4 4 3 2 2 3 4 2 2 4 4 3 4 4
14 19 18 18 15 18 16 16 15 14 11 9 9 10 9 9 11 11 11 11 9 9 8 7 5 5 5 5 5 5 5 5 4 3 3 6 6 5 6 6 4 2 2
15 16 16 18 19 17 17 16 15 14 13 10 9 10 9 9 9 10 10 10 9 8 7 7 6 6 6 6 6 6 6 5 5 4 4 6 8 7 8 8 9 7 5
18 17 20 18 20 18 19 18 17 15 13 12 10 10 10 9 9 9 9 9 9 8 8 7 7 7 7 6 7 6 6 6 6 6 6 5 7 8 8 10 10 11 10
17 18 18 20 18 22 18 17 16 16 15 13 12 11 11 10 10 9 9 9 9 8 8 8 8 7 7 7 6 6 6 6 7 7 7 7 7 7 10 9 11 12 11
18 18 19 20 20 19 21 18 17 17 16 13 13 12 11 11 11 10 9 9 10 9 9 8 8 8 7 7 6 6 7 8 8 8 8 8 9 11 9 10 11 12 14
17 16 18 20 18 19 19 19 19 17 16 14 12 12 11 11 11 12 10 10 10 10 10 10 9 8 8 7 7 8 9 10 10 10 10 9 8 8 8 8 9 9 9
17 16 17 19 17 17 19 17 18 19 18 14 13 12 10 11 12 12 12 11 12 12 12 11 10 10 10 8 7 10 12 13 13 13 11 10 8 6 6 6 7 7 7
18 17 16 17 17 18 18 18 14 18 15 13 14 12 13 12 14 14 15 13 12 12 13 13 13 11 11 10 6 6 3 6 12 12 8 6 5 4 4 4 5 5 5
16 15 17 16 17 18 16 17 12 15 13 13 16 13 16 19 18 17 15 15 14 15 15 16 16 16 13 12 14 7 1 3 3 4 4 4 3 3 3 3 3 5 4
11 11 14 17 13 15 17 14 18 16 12 12 9 11 9 10 16 21 19 20 20 19 19 17 17 18 17 14 12 16 16 6 2 2 5 5 4 3 4 3 1 2 2
11 10 12 16 17 16 16 14 11 10 9 9 6 8 9 8 14 13 18 19 22 21 19 16 17 18 18 17 16 8 12 12 10 6 3 5 3 5 3 3 3 2 3
11 12 9 13 17 13 12 16 11 15 9 6 6 13 17 21 10 13 14 17 20 19 20 20 19 18 19 18 17 15 16 6 10 6 4 7 8 4 3 1 1 1 3

GFSSE_925_spd_096.txt.gz
Wind_Speed
28 29 25 24 23 22 20 18 17 18 17 15 15 16 16 17 21 23 24 23 22 21 20 19 19 18 19 19 18 19 21 22 23 24 25 23 19 18 19 17 16 18 17
32 30 27 24 22 21 20 18 17 17 16 18 17 17 17 16 18 19 20 20 21 20 20 20 19 19 19 19 18 20 21 21 19 20 23 24 19 19 19 19 18 16 16
32 29 27 25 23 21 20 19 18 17 17 18 19 18 18 17 18 18 19 20 20 20 20 20 20 19 19 19 20 24 24 24 23 21 22 19 21 21 18 18 14 16 17
32 30 27 25 24 21 20 18 19 17 18 18 19 19 18 17 18 18 19 19 20 20 20 19 19 19 19 21 23 25 24 22 19 17 19 17 18 19 21 22 23 18 17
29 28 27 25 23 21 20 19 18 18 18 19 18 20 18 17 18 18 19 20 20 19 18 18 18 18 19 21 22 21 20 19 17 15 15 16 17 17 16 17 19 20 19
29 28 28 26 23 21 20 20 20 19 18 19 18 18 17 17 18 18 19 21 20 19 19 18 18 18 20 21 20 20 19 17 18 17 15 18 18 17 16 16 16 16 16
27 27 26 25 23 21 20 19 19 19 18 18 18 17 16 17 17 18 21 20 18 18 19 17 17 17 17 18 17 16 19 20 15 12 14 16 17 16 16 16 16 14 13
26 28 27 23 21 20 19 19 18 18 15 15 16 17 15 15 16 18 19 18 17 16 17 16 15 16 16 15 13 14 14 17 11 12 14 15 15 15 15 15 15 15 15
30 27 26 23 21 19 18 18 18 15 13 11 13 15 17 14 15 16 16 15 15 16 15 15 14 14 14 13 12 14 16 14 14 14 11 13 13 13 13 14 14 14 14
31 29 23 22 21 20 19 17 17 15 14 11 12 13 14 15 13 14 14 13 13 13 13 12 12 11 11 11 11 14 13 11 9 4 8 11 11 11 12 13 13 13 13
27 28 26 23 20 20 19 18 17 18 17 14 9 8 13 13 12 12 10 10 11 10 10 9 8 8 8 8 8 10 10 9 6 3 4 7 8 9 10 11 11 11 11
23 26 26 24 23 22 19 20 17 18 17 10 6 9 15 10 12 12 10 8 8 8 8 7 6 6 6 5 6 7 7 7 4 1 2 3 4 5 7 9 9 10 10
25 22 25 23 23 23 21 20 17 17 12 13 10 12 11 15 16 16 13 11 8 5 4 5 5 7 4 1 1 2 0 3 2 3 2 3 1 1 3 6 7 7 7
24 22 21 23 24 22 21 20 18 15 16 15 13 9 15 12 14 12 13 13 9 8 5 4 4 7 3 3 3 2 2 2 2 2 3 3 2 1 1 2 4 5 5
21 23 20 22 24 21 20 19 19 16 15 12 13 13 11 11 13 16 15 12 11 12 10 7 6 7 3 4 3 4 4 4 4 3 5 5 5 3 4 4 3 2 2
20 20 21 16 22 23 23 18 19 16 14 14 13 13 12 12 13 15 14 12 10 15 9 8 7 7 5 5 5 5 5 5 6 5 5 5 6 6 5 6 6 5 4
22 23 22 18 19 22 22 20 18 17 13 13 13 13 13 11 12 14 12 12 11 10 9 9 7 7 6 5 6 6 6 6 8 6 6 7 6 7 7 5 7 9 9
22 23 23 23 22 16 21 20 18 19 15 14 13 14 14 12 12 13 13 12 13 11 12 9 9 7 7 7 6 6 8 8 9 8 9 8 8 8 8 7 6 9 11
25 23 21 25 21 23 18 18 20 17 19 17 16 16 15 14 13 13 12 12 13 13 11 11 10 9 8 8 7 8 7 8 9 9 10 9 9 10 10 8 7 8 10
25 25 25 23 24 19 24 19 18 19 20 20 20 19 16 15 15 14 12 11 13 14 13 12 11 10 10 7 8 10 11 11 12 12 11 10 10 10 8 6 8 7 7
22 26 26 26 22 22 19 22 20 23 19 21 14 16 18 15 17 15 15 13 14 14 13 13 12 12 11 11 8 11 15 15 15 16 13 11 7 10 7 6 6 6 7
20 24 25 26 23 23 24 23 22 25 24 23 16 17 18 18 14 15 15 14 14 15 14 14 15 14 14 12 7 7 2 5 18 15 12 10 7 5 4 6 8 6 5
20 21 25 24 26 24 23 21 16 13 17 20 20 20 20 18 18 18 17 18 16 14 16 17 17 18 17 15 16 7 1 3 1 7 11 7 6 6 7 7 5 6 7
21 18 21 21 26 23 19 18 16 15 15 14 14 13 11 10 11 18 19 17 16 16 17 18 20 21 20 17 13 20 15 3 1 1 5 5 8 7 5 3 4 3 3
17 17 21 20 21 22 18 15 12 8 4 4 6 8 6 6 8 9 9 11 14 13 15 15 19 21 20 21 20 10 18 17 12 5 3 3 4 4 5 4 3 3 2
16 14 9 17 17 21 20 16 14 11 5 8 7 9 7 4 4 6 10 15 13 12 14 21 25 30 25 20 21 20 16 7 10 7 4 8 4 5 4 4 3 3 3

GFSSE_925_spd_099.txt.gz
Wind_Speed
32 28 26 26 27 24 21 21 20 18 18 19 19 20 23 25 25 26 26 25 24 22 21 20 21 21 20 21 22 24 26 26 25 25 23 21 20 19 19 19 21 20 21
38 30 29 27 26 23 22 19 20 19 20 21 20 20 22 23 24 24 23 22 22 21 21 21 21 21 20 23 25 25 22 20 23 25 24 24 21 19 17 20 20 19 20
38 33 30 28 26 24 22 20 19 20 22 23 22 21 20 21 21 22 21 21 22 21 21 21 21 21 23 27 26 25 24 21 20 21 21 21 23 25 24 23 20 19 18
39 35 31 28 27 25 22 20 20 22 23 24 23 22 21 21 21 21 21 22 22 21 21 21 21 23 27 25 24 23 19 20 19 16 16 19 20 20 23 22 21 20 19
35 34 32 29 27 25 22 21 21 21 23 25 23 23 23 22 21 21 21 21 21 21 21 20 21 23 24 24 23 20 17 17 14 14 17 17 18 17 18 17 17 17 16
34 33 31 28 26 24 22 23 22 22 22 24 23 22 23 22 22 21 21 21 22 22 21 19 21 23 23 23 21 17 19 15 14 16 19 19 18 16 16 15 14 14 13
32 32 29 28 25 24 24 23 23 22 21 22 21 21 21 22 22 23 21 21 23 21 20 19 21 22 21 20 19 22 17 13 15 16 18 18 17 16 16 16 15 14 14
33 33 30 28 26 24 23 23 23 22 20 20 19 20 21 21 22 22 20 20 21 20 18 18 19 19 18 17 16 16 14 12 15 16 16 16 15 15 15 15 15 15 15
34 33 30 27 24 23 23 23 22 20 18 18 19 18 19 20 20 20 20 19 19 18 17 17 17 17 15 15 16 17 16 12 11 13 13 14 14 14 14 14 14 14 15
35 33 31 28 25 24 23 22 20 17 15 16 18 19 17 18 19 19 18 17 17 17 16 15 15 14 14 14 15 14 12 10 8 9 10 11 12 12 13 13 13 13 13
35 34 30 28 26 25 24 23 21 18 16 18 18 18 18 17 17 16 15 16 15 14 14 13 13 12 11 11 12 11 9 9 6 5 7 8 9 10 10 11 11 12 12
28 34 31 29 27 27 25 23 20 21 19 16 15 17 18 16 16 15 13 12 12 12 11 11 10 10 11 10 10 8 8 8 2 2 4 5 5 6 8 8 9 10 10
30 32 31 29 29 28 27 24 23 21 18 12 13 19 18 18 16 15 14 11 10 8 8 9 10 10 7 5 6 3 4 5 2 1 2 4 3 2 4 5 6 7 8
31 33 32 29 30 26 27 23 21 20 18 15 14 18 17 20 17 17 14 13 10 8 8 9 10 8 5 3 3 3 3 3 2 2 2 2 3 1 1 1 2 4 5
32 33 31 31 31 26 27 22 20 19 19 17 14 12 20 18 19 18 15 13 13 11 10 9 8 8 6 5 5 6 5 5 4 4 3 3 2 2 3 3 2 0 2
33 33 28 31 30 29 27 21 19 19 15 21 17 16 14 13 16 18 16 15 13 13 11 10 7 9 8 6 9 6 3 6 8 6 6 5 5 4 3 5 6 4 3
30 29 28 27 27 26 27 20 21 20 22 20 19 19 16 15 15 18 20 16 14 14 11 10 11 10 10 9 9 7 8 6 8 8 8 7 6 6 5 4 7 8 8
26 30 27 29 27 27 26 23 21 18 19 21 18 17 20 17 16 18 15 17 14 12 13 12 12 10 11 10 9 9 8 9 9 10 9 10 9 7 7 6 5 7 8
29 29 28 27 27 29 29 26 23 20 20 20 16 16 17 19 18 18 18 14 15 15 14 14 12 12 11 10 10 9 9 10 9 9 11 10 11 10 9 7 7 7 7
25 30 31 30 26 24 24 26 26 23 23 20 18 19 18 20 19 18 17 17 15 15 15 14 13 13 12 10 10 11 12 12 13 13 13 12 11 12 11 8 6 5 6
24 26 28 29 28 26 24 25 26 28 26 21 22 20 23 22 20 18 17 16 16 17 17 16 14 13 13 12 8 10 13 16 16 17 15 13 11 9 10 7 6 6 7
29 28 26 26 30 28 29 28 26 27 24 23 20 17 21 21 21 19 18 18 16 19 17 14 16 16 15 13 6 5 2 4 15 19 15 13 13 11 11 7 6 7 9
27 30 28 29 27 30 28 26 25 25 23 21 20 15 19 19 17 21 20 16 16 19 19 18 17 19 18 16 17 7 0 4 2 1 9 10 12 11 9 7 6 7 7
28 24 26 27 27 29 28 25 24 23 22 26 23 18 12 15 17 16 18 18 20 18 16 17 16 19 20 18 14 19 18 3 2 0 4 6 7 5 5 6 6 6 6
26 25 24 26 26 26 24 24 22 15 13 12 12 12 12 8 8 7 10 17 20 18 13 14 15 16 19 16 16 16 23 17 11 3 3 4 5 4 4 6 7 7 7
21 19 20 20 26 25 21 20 20 17 17 18 14 11 10 7 5 6 6 7 11 11 9 14 16 17 19 15 20 22 22 6 12 6 2 4 6 5 5 6 6 7 6

GFSSE_925_spd_102.txt.gz
Wind_Speed
30 28 28 27 26 23 23 21 19 18 19 19 21 23 24 25 25 26 25 24 24 22 21 21 21 22 23 22 24 25 23 23 23 23 22 21 19 19 19 20 23 22 20
36 32 31 29 27 22 23 21 20 20 21 20 23 25 26 27 27 25 22 22 21 21 22 22 22 22 22 23 22 20 20 23 24 24 22 21 18 20 19 18 20 20 21
35 32 31 31 28 24 21 21 21 22 22 21 21 24 25 25 24 22 22 22 22 22 22 22 22 22 23 21 20 17 18 19 20 21 22 25 24 21 19 21 20 19 19
37 34 32 30 28 25 22 22 23 23 22 22 21 24 23 23 23 22 22 22 22 21 22 22 24 26 24 21 19 20 18 16 15 16 17 20 21 20 19 20 19 19 19
38 35 31 31 27 25 22 25 26 24 24 22 23 23 24 22 22 22 22 22 22 21 22 24 26 25 22 19 17 17 16 13 13 15 15 16 17 15 15 15 14 15 13
38 35 32 31 28 26 24 25 26 27 23 22 22 24 24 23 22 22 22 23 23 23 22 24 24 23 20 18 18 16 15 14 16 17 18 18 18 15 14 13 13 12 12
39 35 31 30 27 26 26 26 25 26 24 22 21 22 22 23 23 23 25 25 23 22 23 23 24 22 20 20 18 16 15 15 15 17 18 17 16 15 15 14 14 13 13
41 36 32 30 27 27 27 26 25 26 24 21 22 22 22 23 23 23 25 24 21 21 23 23 21 20 18 17 15 14 13 15 15 15 16 17 15 14 14 14 14 14 13
40 35 34 30 28 27 27 26 25 25 24 20 21 23 23 23 23 22 24 23 21 20 22 21 20 18 17 17 15 13 12 12 14 13 14 14 14 13 13 13 13 13 13
36 36 35 32 29 27 27 26 24 23 23 22 20 21 22 22 21 21 21 20 20 20 20 19 17 17 16 17 15 12 9 9 10 11 11 12 11 11 12 12 12 11 11
34 36 34 32 30 29 28 25 23 20 20 22 20 20 21 21 20 19 19 19 18 17 17 17 16 15 15 15 13 7 6 7 7 8 8 8 9 9 10 10 10 10 10
32 36 35 33 31 30 29 26 26 20 20 22 21 19 20 20 19 19 17 17 16 16 14 14 13 13 13 13 11 7 6 7 5 5 6 5 5 6 7 8 8 8 8
32 34 37 34 33 32 31 29 26 22 23 21 21 20 20 20 19 18 17 16 15 14 14 13 13 13 12 11 10 7 3 6 5 3 3 3 3 3 4 5 5 6 6
32 34 37 35 35 32 30 29 25 25 20 20 20 23 23 21 19 17 15 15 14 13 12 13 13 11 9 8 8 6 6 6 6 5 2 1 1 1 1 1 2 4 4
31 34 38 36 37 34 32 29 26 25 21 19 21 23 21 22 20 18 14 14 12 11 11 12 11 9 7 7 7 6 5 6 6 6 4 4 2 2 2 3 2 1 1
30 34 40 38 35 33 32 30 27 25 23 21 21 20 19 20 20 21 18 14 12 11 11 11 9 9 8 8 8 7 7 9 8 7 6 5 5 4 4 6 5 4 3
35 36 41 39 36 34 32 30 27 26 23 22 21 19 20 19 18 20 19 17 14 13 11 12 11 10 12 10 9 10 10 7 9 9 9 7 7 6 5 4 7 8 8
32 37 39 37 37 35 35 31 26 25 22 27 24 21 20 18 17 18 20 18 16 15 15 14 13 12 11 11 10 10 11 11 11 12 12 10 9 8 7 5 6 7 8
35 36 34 34 34 34 32 30 26 25 24 30 25 23 21 19 19 17 20 18 17 17 18 15 16 13 13 12 12 11 11 12 12 11 13 13 12 12 10 8 7 7 8
30 32 33 34 36 34 32 30 29 26 24 28 25 22 19 21 18 16 15 15 17 16 15 15 15 13 11 11 11 12 12 13 14 14 13 13 12 11 12 11 8 7 7
30 31 31 32 31 31 29 28 26 25 21 22 25 20 17 16 21 21 21 19 18 17 16 16 15 13 13 11 8 11 14 16 18 17 16 13 14 13 13 13 10 8 8
27 29 31 31 29 32 33 34 26 27 23 22 20 18 25 24 22 21 19 19 19 16 16 17 17 16 14 13 5 3 3 4 11 14 17 14 14 14 13 14 10 9 8
26 27 28 30 31 31 31 28 24 24 23 23 24 24 20 25 24 23 21 19 18 20 19 20 19 16 16 13 15 5 0 3 3 6 2 9 10 13 13 9 9 8 8
29 28 27 28 29 32 31 30 27 28 21 27 25 21 20 21 19 18 23 22 20 20 20 20 18 17 19 16 12 15 13 5 1 2 2 4 7 9 8 7 6 6 7
30 29 29 27 27 29 30 28 25 25 22 20 27 24 17 13 12 12 11 10 19 20 19 17 14 16 15 12 12 11 10 17 15 7 3 5 8 8 9 9 7 8 8
26 27 28 26 26 25 26 24 22 20 16 15 16 17 16 12 14 15 15 13 7 8 9 9 11 13 15 15 16 16 19 11 11 10 5 6 9 10 11 10 9 9 10

GFSSE_925_spd_105.txt.gz
Wind_Speed
28 29 28 27 23 22 20 18 17 19 18 20 22 23 24 25 24 24 23 20 21 21 20 21 21 21 22 22 22 22 22 21 20 20 20 19 19 18 20 22 21 20 21
35 32 29 28 25 22 20 18 20 22 20 23 24 24 25 26 25 23 22 20 20 21 21 21 22 22 20 19 20 21 20 22 23 23 21 21 19 18 18 20 21 20 22
36 34 31 28 24 23 21 20 22 24 23 23 25 25 27 26 24 22 21 21 22 22 22 22 21 20 19 17 17 18 19 19 20 25 24 20 20 19 19 20 18 18 19
37 35 33 29 25 23 21 21 22 23 25 24 25 26 25 23 22 22 21 22 22 22 22 22 21 20 18 18 18 16 16 15 16 18 20 20 18 18 18 18 17 17 16
36 35 33 30 24 23 23 24 23 23 24 25 25 24 22 22 21 22 22 22 22 23 24 23 21 18 17 17 16 15 14 14 12 13 14 16 15 14 13 14 15 14 12
37 36 34 30 26 22 25 24 24 23 22 26 25 23 22 21 21 21 22 22 24 27 25 22 20 18 17 17 16 16 16 15 15 16 17 17 17 14 13 14 13 12 13
38 36 33 29 26 25 26 27 26 23 22 23 25 23 22 21 21 21 22 24 26 26 23 21 19 17 17 16 16 17 15 15 15 16 16 16 16 14 14 14 14 13 14
38 35 33 29 28 28 26 27 26 24 24 24 24 23 22 22 22 22 24 22 23 23 22 21 19 17 17 14 15 17 15 14 14 15 15 15 14 13 13 13 13 13 13
35 35 33 31 29 29 27 28 27 23 24 26 25 25 24 23 25 22 23 22 21 21 21 20 18 16 14 14 14 14 13 14 13 13 13 13 12 12 12 12 12 12 13
35 34 34 31 30 30 29 28 28 24 23 25 26 26 24 24 25 25 23 21 21 21 21 18 16 15 13 13 12 11 10 10 10 10 10 11 11 11 11 11 11 11 11
29 34 33 32 31 31 29 28 27 25 23 22 23 25 25 24 23 23 22 21 20 20 19 17 15 15 13 11 9 7 6 7 7 8 8 8 8 9 9 10 10 10 10
27 29 33 33 32 32 30 29 28 26 24 23 23 23 23 22 22 21 19 18 18 17 16 15 14 14 14 10 7 5 5 5 4 5 6 5 5 6 7 8 9 9 9
25 27 33 33 32 33 31 30 29 27 26 24 23 22 22 22 21 20 19 18 16 15 14 13 12 11 11 9 6 4 4 5 3 2 3 3 3 3 4 6 7 7 7
34 32 32 33 33 33 32 31 28 26 28 27 25 23 23 22 20 19 18 17 15 14 12 12 11 11 9 8 6 4 3 5 5 4 2 1 1 0 1 2 3 4 5
38 32 37 36 35 34 32 31 27 27 27 26 25 23 23 22 20 18 16 15 14 13 12 11 11 10 8 7 7 5 4 5 5 6 5 4 2 2 1 1 1 0 1
41 36 35 40 38 36 35 33 29 28 25 24 24 25 23 21 19 18 16 15 13 12 11 10 10 8 6 6 6 6 6 7 7 7 7 5 5 4 4 4 4 3 3
35 37 37 36 42 38 36 33 31 29 25 24 24 24 22 21 19 19 17 14 13 12 11 11 10 9 9 9 9 10 10 8 8 9 8 7 7 6 6 6 7 6 7
35 37 37 38 42 39 37 34 31 30 27 24 25 24 22 20 19 18 19 16 13 13 12 11 11 11 10 11 10 10 10 10 11 10 10 9 9 8 7 7 6 6 8
35 42 43 41 43 42 38 35 32 30 29 26 24 23 22 20 18 17 18 16 16 16 16 15 14 13 11 11 11 12 12 12 12 12 11 12 12 11 11 8 8 7 8
34 40 41 37 41 39 37 35 31 31 28 26 27 25 23 21 20 18 18 19 18 19 18 18 16 14 12 11 11 11 12 12 12 14 13 12 11 11 10 10 10 9 9
30 36 37 36 35 34 36 32 29 31 28 25 28 25 23 21 19 17 16 15 18 19 19 18 16 14 12 10 8 9 12 14 15 16 15 14 13 12 12 12 13 11 9
30 35 36 34 35 33 30 31 23 28 23 23 24 24 21 23 20 19 19 18 18 18 17 18 18 16 11 11 5 2 3 2 1 5 12 15 12 11 13 13 12 9 9
28 31 32 30 28 31 32 30 24 24 22 19 25 28 26 23 21 20 19 17 17 17 18 18 19 18 10 9 12 5 0 3 3 5 5 4 9 10 11 10 11 10 8
26 28 27 28 27 28 28 29 29 27 18 21 29 27 24 23 24 23 23 21 19 18 19 18 18 20 13 13 12 16 14 4 2 2 1 1 4 7 9 11 10 9 8
21 22 26 28 29 27 27 27 23 20 25 26 28 22 19 20 20 17 18 18 21 18 14 16 18 25 15 15 13 7 12 13 11 7 3 5 9 12 12 12 11 10 9
19 21 21 20 20 22 20 20 19 18 19 19 18 23 25 20 20 17 16 20 17 18 25 27 20 13 15 11 12 14 12 6 6 8 6 8 11 10 16 16 15 14 11

GFSSE_925_spd_108.txt.gz
Wind_Speed
28 31 27 25 22 20 19 18 17 18 22 24 25 25 25 24 23 23 20 22 22 23 22 20 21 22 21 22 22 21 19 19 20 21 20 20 20 20 21 21 23 23 22
37 34 30 26 23 20 18 19 20 20 22 24 26 26 25 25 24 22 22 21 21 22 21 22 21 21 21 21 20 20 21 21 22 23 22 22 20 19 20 20 22 21 20
39 35 32 28 24 21 19 21 21 23 25 25 26 26 27 24 23 22 21 22 22 22 22 21 20 18 18 19 18 18 21 24 23 21 21 21 20 20 19 19 21 20 19
38 36 33 30 27 24 22 23 22 23 26 26 28 29 27 25 22 22 22 23 24 23 22 20 18 18 19 17 17 16 18 19 20 20 19 17 17 16 16 16 18 18 18
39 38 34 30 27 24 24 26 24 23 26 27 29 29 26 24 22 22 23 24 25 25 22 19 19 18 18 16 14 15 15 14 14 14 16 16 15 14 13 14 15 15 15
37 38 34 30 26 26 26 27 26 25 26 27 27 25 24 22 22 22 23 26 28 26 22 19 19 18 17 15 16 17 16 16 16 17 17 17 16 14 14 15 15 15 16
38 37 33 29 26 26 26 25 27 26 24 26 24 23 22 22 22 22 24 29 27 25 20 19 18 18 16 16 16 17 16 16 16 17 17 17 15 15 15 15 15 16 16
37 38 32 28 27 29 27 25 26 26 26 25 24 23 22 22 22 23 25 30 27 23 19 18 17 17 15 16 16 16 15 15 16 16 16 16 15 14 14 15 15 15 15
37 37 32 27 28 28 28 26 25 26 27 25 23 24 24 24 23 23 25 28 25 22 19 17 17 15 14 14 14 15 14 14 14 15 15 15 14 14 14 14 14 14 14
38 37 33 29 29 28 27 25 25 26 27 27 25 25 26 25 23 22 23 23 21 20 19 16 14 13 13 12 12 11 11 12 12 12 13 13 12 12 13 12 12 12 12
37 36 33 30 30 29 29 26 24 25 27 27 26 25 29 27 25 24 23 22 20 19 17 15 13 12 12 11 9 7 8 8 9 10 10 10 10 11 11 11 11 11 11
32 35 33 31 31 29 29 28 25 24 26 28 28 27 28 26 24 23 21 20 20 19 17 14 13 12 10 8 6 5 4 5 6 7 8 8 8 8 9 10 10 9 9
28 32 34 32 31 29 28 28 27 25 25 26 27 27 26 26 24 22 21 19 19 17 16 14 13 11 10 7 5 4 3 3 2 4 5 6 5 5 6 7 7 8 8
31 25 32 34 32 31 27 29 29 27 26 27 27 27 27 26 24 22 21 19 17 15 14 12 11 10 9 7 5 3 1 3 2 1 1 3 3 2 3 4 4 5 5
45 34 27 34 33 32 29 30 29 28 28 27 26 26 25 24 23 21 19 17 16 14 13 12 11 10 7 5 4 3 3 4 4 4 3 2 2 1 0 0 1 2 2
32 41 33 36 37 33 31 31 30 28 28 26 26 25 23 22 22 20 19 17 15 13 11 10 10 9 7 5 4 4 4 4 5 5 5 5 4 4 3 2 2 2 1
30 41 40 37 37 36 34 32 30 28 29 28 27 25 24 22 21 20 18 17 14 13 11 10 10 8 7 7 6 5 7 6 6 6 7 6 6 6 6 5 6 6 6
30 38 44 38 35 39 38 34 31 29 29 28 28 27 25 23 21 20 19 15 14 13 11 11 10 9 7 7 7 7 7 7 7 8 8 8 7 7 7 7 6 5 5
34 34 33 38 38 40 37 36 33 31 28 26 27 28 27 24 23 20 19 17 15 14 13 11 11 10 9 9 9 9 10 10 9 9 9 9 10 9 9 9 8 7 6
35 34 37 38 35 35 34 34 34 31 29 27 27 28 25 24 21 20 18 18 17 16 15 14 14 12 11 10 11 11 10 10 10 9 10 10 9 9 9 9 10 11 9
35 37 36 35 36 36 34 30 29 32 31 28 26 24 23 23 21 20 18 18 19 20 19 17 15 14 13 11 9 9 9 11 11 13 13 12 11 11 10 13 13 13 11
28 30 26 31 36 38 34 34 24 29 31 27 24 25 23 23 22 21 21 20 19 19 18 16 16 12 9 8 3 4 3 0 2 1 6 13 14 11 11 13 13 12 12
23 28 26 25 33 33 29 29 18 20 18 27 26 25 24 23 21 18 20 19 17 16 18 17 16 13 6 2 6 3 2 3 3 1 0 2 8 10 10 10 10 12 11
23 23 20 19 32 36 31 26 18 18 12 16 25 27 24 24 22 20 21 19 16 15 13 11 8 8 9 9 7 6 12 8 3 3 2 0 1 4 6 7 10 11 10
18 23 23 29 25 26 34 34 33 29 30 22 21 24 28 29 23 20 19 16 9 7 10 11 15 15 17 18 17 12 10 11 17 6 2 2 5 8 10 11 13 14 14
11 20 16 19 22 25 29 36 39 37 31 31 28 29 24 23 20 21 18 17 12 17 15 15 15 15 11 13 15 10 10 4 5 7 4 7 8 15 17 17 18 18 16

GFSSE_925_spd_111.txt.gz
Wind_Speed
26 31 30 29 27 24 21 20 22 24 26 27 27 24 25 24 24 23 23 24 24 23 23 22 22 22 21 21 19 19 20 20 20 21 21 23 22 22 23 24 22 20 20
35 33 33 30 28 26 23 21 22 25 27 28 27 26 24 24 24 22 23 24 23 22 23 22 23 22 21 20 21 21 22 22 24 23 23 22 21 20 20 21 21 20 19
36 33 32 30 28 26 25 23 22 26 27 27 27 26 25 25 23 23 24 25 24 24 22 21 22 20 20 20 21 22 22 22 22 22 22 19 19 21 20 20 19 18 18
35 33 31 31 28 26 25 26 26 29 29 28 28 28 28 24 23 24 24 26 25 23 21 21 20 19 19 19 19 20 20 21 20 18 15 16 15 17 16 17 17 18 19
33 32 31 31 27 26 28 26 30 30 29 28 28 28 28 25 23 24 26 26 27 23 21 21 21 19 17 17 17 16 16 15 14 16 15 15 15 14 15 16 17 18 18
31 31 33 31 28 29 30 27 29 31 30 30 30 29 26 25 24 25 29 29 26 23 22 21 20 19 18 17 17 16 16 15 16 17 16 17 16 15 16 17 17 18 18
32 30 32 31 28 30 32 28 29 31 31 32 30 26 24 24 25 26 31 29 25 22 22 20 20 18 19 18 18 18 17 17 18 17 16 16 15 15 16 16 17 17 17
34 34 30 30 29 31 35 30 30 31 32 31 27 25 24 24 25 26 33 27 24 22 21 20 20 18 19 19 18 18 17 17 18 17 15 15 15 14 15 15 16 16 16
33 32 29 28 29 30 33 32 31 30 31 27 25 25 24 25 25 28 30 27 21 20 21 20 19 18 18 18 18 17 16 16 17 15 14 13 14 13 14 14 15 14 14
32 31 29 28 28 27 28 32 31 30 28 26 25 25 25 26 26 30 29 26 21 19 20 19 17 17 16 16 15 15 14 14 15 15 13 11 12 12 13 13 13 13 13
31 32 29 28 27 28 27 29 29 30 27 26 25 25 27 23 24 28 25 25 21 18 18 17 17 16 15 13 12 12 12 13 12 12 10 11 10 11 11 12 12 12 11
32 31 31 30 28 28 26 29 28 29 25 24 24 27 25 25 24 25 25 23 21 19 16 15 15 14 13 11 9 8 9 10 10 10 9 9 8 9 10 10 10 10 10
33 32 30 32 30 29 30 29 29 31 30 28 28 31 28 27 25 26 26 24 23 20 17 15 14 12 10 8 7 7 6 6 6 7 7 8 6 6 7 7 8 9 9
32 31 30 29 31 28 29 29 27 29 30 29 29 30 28 28 26 25 24 23 23 20 17 15 13 12 10 8 6 4 3 5 3 3 4 5 5 3 3 4 5 6 6
28 28 33 34 31 28 25 29 26 24 29 30 29 28 28 28 26 24 23 22 21 19 16 14 12 11 9 7 5 4 3 4 3 4 3 3 3 3 1 1 2 3 3
30 33 35 37 33 30 29 29 29 26 27 29 28 27 26 26 26 24 23 21 19 17 15 13 12 11 8 6 4 4 3 3 4 5 5 5 5 4 3 2 2 2 1
50 40 35 42 39 35 33 33 31 27 28 27 27 26 26 25 24 24 22 20 18 16 14 13 12 10 8 5 4 4 4 5 4 5 6 7 6 6 5 5 5 5 5
35 43 41 38 42 37 35 34 31 27 27 26 27 26 25 24 23 22 21 19 17 15 13 12 12 9 7 5 5 5 5 6 6 7 7 7 8 7 7 6 5 5 5
37 37 39 41 41 41 36 35 32 28 27 28 27 26 26 25 23 21 20 18 17 15 13 12 11 9 7 6 5 6 7 9 9 9 9 10 9 10 8 8 7 8 7
32 30 30 36 41 40 36 32 32 29 27 28 28 28 27 26 24 22 20 19 17 15 15 14 12 9 7 5 5 8 9 9 9 10 10 11 10 10 10 9 11 12 12
26 29 31 30 29 34 34 32 28 27 30 28 28 27 28 26 24 23 20 19 19 17 16 14 11 9 6 5 4 5 6 8 10 12 11 12 12 12 12 12 14 13 12
30 27 26 27 26 27 27 25 21 22 27 29 25 24 25 24 23 22 21 19 19 18 15 13 12 7 5 5 5 3 1 1 2 3 5 11 13 12 12 13 13 13 12
16 14 25 23 24 31 30 29 22 24 18 24 26 25 24 23 24 23 21 19 17 16 16 14 12 10 8 8 9 3 1 2 1 3 4 4 6 9 9 8 9 10 11
21 22 26 24 27 26 26 29 30 29 21 23 25 29 26 24 21 21 19 16 15 11 9 11 11 14 15 12 9 11 13 5 2 2 4 4 2 1 5 5 7 9 10
23 34 30 19 18 34 18 27 26 18 22 25 21 20 20 20 21 23 19 18 17 9 6 10 15 19 17 16 13 6 9 15 17 8 1 2 5 6 7 8 11 11 12
16 21 26 25 32 31 42 20 22 17 16 20 22 21 18 16 24 21 16 19 17 19 13 19 20 18 17 15 11 10 10 4 3 4 2 3 5 8 13 15 16 17 18

GFSSE_925_spd_114.txt.gz
Wind_Speed
24 29 32 29 27 27 26 25 25 25 26 25 25 24 25 24 23 23 23 24 26 23 21 21 21 20 19 19 19 19 19 20 22 23 22 22 23 21 19 20 19 17 17
32 32 34 31 27 26 27 27 25 27 27 26 26 25 25 25 25 24 23 22 22 23 21 21 22 18 19 20 21 21 20 22 23 23 21 21 21 21 20 18 16 17 18
33 33 33 31 28 27 27 28 28 28 29 27 27 26 25 25 25 24 24 23 22 23 23 22 20 20 20 21 21 21 20 21 22 22 19 19 19 20 18 17 18 18 18
31 32 31 32 29 28 27 27 30 29 30 29 28 27 27 26 24 26 25 24 22 22 23 20 19 19 19 20 19 19 19 18 18 16 15 14 14 16 15 17 18 18 18
30 30 30 32 30 29 27 27 31 30 30 29 28 27 28 26 25 26 26 24 22 21 21 19 18 18 17 18 17 18 16 14 19 16 15 14 13 15 16 16 17 17 18
30 29 31 33 30 28 28 29 33 32 31 29 28 29 27 25 26 29 28 25 22 21 20 19 17 17 17 17 16 15 14 17 16 16 16 16 15 15 16 16 16 16 16
30 28 29 32 30 29 29 31 32 32 31 30 30 30 26 27 28 29 28 24 23 21 20 19 18 18 19 18 18 18 17 19 15 15 15 14 14 15 15 15 15 15 16
29 28 29 30 30 31 29 32 33 32 32 32 32 28 26 28 30 31 27 24 23 23 20 19 18 19 19 19 19 18 17 17 15 15 14 14 14 14 14 14 14 14 14
27 28 28 26 28 32 29 30 33 32 33 33 30 27 26 27 31 33 26 25 23 23 21 20 19 19 19 19 18 17 16 18 13 13 13 12 13 13 13 13 13 13 13
28 28 28 27 27 28 26 30 32 33 33 31 27 26 26 26 33 31 26 24 23 24 21 20 20 18 18 17 16 15 15 16 11 12 11 11 11 11 11 11 12 12 12
30 31 31 29 28 30 26 29 32 32 32 29 25 25 25 22 28 26 23 22 22 22 21 19 19 18 16 15 14 13 12 9 9 10 9 11 10 10 10 10 10 10 10
30 31 31 31 29 29 28 30 28 28 26 21 24 23 23 24 25 23 23 21 19 20 18 18 17 17 13 9 9 9 7 8 8 8 8 10 9 8 9 9 9 9 9
31 34 30 29 28 29 28 29 26 25 23 22 21 24 22 23 25 21 24 22 17 17 14 14 15 11 10 8 7 6 7 6 6 6 6 9 7 7 7 7 7 7 7
27 32 32 30 29 27 27 27 26 24 22 22 24 24 24 23 25 23 25 19 18 15 14 13 11 9 9 8 7 6 5 5 5 4 4 7 6 5 4 5 5 5 5
36 34 32 30 30 28 28 26 26 24 23 23 25 24 23 23 24 22 20 20 18 16 14 12 11 10 8 7 5 4 3 4 3 3 3 4 5 4 3 3 3 3 2
31 30 33 32 30 28 27 27 25 24 23 22 23 24 21 22 22 22 21 19 17 15 13 11 10 9 7 5 4 4 4 4 4 4 4 5 6 6 5 4 4 3 1
29 37 33 33 31 29 28 25 24 24 23 22 21 22 21 21 20 19 18 16 15 13 12 10 10 8 7 6 5 5 4 4 5 5 6 6 6 8 7 7 8 8 7
39 36 31 32 34 32 28 29 22 22 22 21 20 20 20 19 18 17 16 15 14 12 11 10 9 8 6 5 5 5 5 5 6 6 6 7 8 7 8 9 8 7 8
43 41 41 36 35 31 30 32 25 22 20 20 19 19 20 18 18 16 14 13 14 12 11 10 9 7 6 4 4 4 5 5 6 7 8 9 9 9 8 10 10 11 11
36 44 43 45 38 33 30 29 23 21 20 20 20 20 20 19 17 15 13 13 13 11 10 10 8 7 5 4 4 5 7 8 8 9 9 9 9 9 9 9 9 10 14
37 42 36 41 41 33 30 29 25 23 21 20 19 19 19 18 17 16 13 12 11 10 10 10 8 7 6 5 5 7 6 6 7 7 7 9 9 9 7 8 9 7 8
40 38 36 32 32 33 30 29 28 23 20 20 20 21 20 20 19 17 14 12 13 11 11 11 10 7 8 9 5 3 2 3 3 4 5 6 8 8 9 12 10 10 14
29 29 31 28 29 31 29 28 22 21 16 17 19 18 19 20 20 18 14 13 13 13 11 10 11 10 10 7 8 3 2 2 2 3 2 3 6 10 11 10 10 10 12
31 37 30 26 28 31 27 27 28 27 22 22 21 19 23 22 20 19 18 15 14 13 13 14 13 15 14 9 6 9 7 5 3 3 0 2 4 2 4 6 6 7 9
35 18 20 26 26 24 26 27 26 22 22 20 19 19 20 21 18 18 16 13 15 14 14 16 17 21 18 10 9 4 5 4 5 5 2 2 5 8 9 9 8 10 11
25 29 15 15 19 21 22 25 28 24 20 20 20 22 19 20 20 16 16 14 15 17 17 18 18 19 18 13 10 10 7 4 3 4 3 5 5 7 11 15 14 15 16

GFSSE_925_spd_117.txt.gz
Wind_Speed
19 25 30 29 27 24 26 27 26 24 23 23 22 23 22 20 21 20 21 21 20 19 19 18 18 18 18 18 18 19 21 23 23 23 23 22 21 22 20 18 17 18 19
26 28 30 30 29 26 25 26 26 26 25 24 24 23 22 22 22 21 22 22 22 19 19 18 16 17 21 20 19 20 23 24 24 23 22 22 21 18 18 16 19 19 19
26 29 30 30 29 28 26 27 27 27 27 26 25 24 24 23 22 22 22 22 22 20 20 17 19 20 21 20 20 20 23 22 20 20 19 18 18 18 18 19 19 19 19
24 28 29 31 31 29 28 25 27 28 27 27 26 25 25 25 24 23 22 23 23 22 19 18 20 21 20 18 18 21 21 19 15 10 15 15 15 17 18 18 18 18 19
24 28 27 31 29 29 28 26 26 27 28 28 27 26 27 26 23 22 21 23 24 22 19 18 19 19 18 17 18 18 17 19 17 16 15 15 15 16 16 17 17 18 18
25 28 28 30 27 28 27 28 26 27 28 28 28 27 27 25 24 25 22 22 21 20 17 17 16 16 17 16 15 15 19 18 15 15 16 16 16 16 16 16 16 16 17
22 26 29 30 29 27 27 28 28 28 28 28 27 28 27 26 26 25 22 20 20 19 17 17 15 16 16 15 16 18 19 16 14 15 15 15 15 15 15 15 15 16 16
22 26 26 30 28 27 26 29 30 29 28 28 28 28 27 25 28 26 22 20 19 19 18 17 16 17 18 18 18 19 20 16 14 14 14 14 15 14 14 14 14 14 14
21 27 27 26 26 26 28 30 31 30 30 28 29 28 25 28 28 26 22 21 19 18 18 18 18 18 18 18 18 18 18 16 13 13 13 13 14 13 13 13 13 13 13
26 27 28 26 24 23 25 31 31 31 30 29 29 27 25 28 28 25 23 22 20 19 19 18 18 18 17 16 16 18 18 15 12 12 12 13 13 12 12 12 11 11 11
32 30 30 28 27 26 25 30 31 31 31 31 29 24 24 23 25 22 21 23 21 19 19 18 17 17 16 14 15 14 11 9 10 10 10 12 11 11 11 10 10 10 10
28 31 30 31 30 29 26 29 31 32 33 32 29 25 21 24 23 23 22 22 22 19 17 17 16 15 12 10 11 10 8 8 9 9 9 11 10 9 9 9 9 9 9
38 37 37 36 34 33 27 30 31 34 30 28 27 23 22 27 23 23 22 19 18 18 14 14 16 9 8 8 5 5 7 7 7 8 8 9 8 7 7 6 7 7 7
32 34 38 36 37 34 31 29 30 29 27 27 27 24 25 26 26 26 24 21 17 16 14 13 10 8 8 7 6 6 5 6 6 6 6 7 7 6 5 4 4 5 5
33 34 36 24 36 35 31 31 28 25 26 25 26 25 26 25 25 25 26 22 17 16 15 13 10 9 8 7 6 5 4 5 5 5 5 4 6 6 4 3 3 3 3
18 38 47 38 37 33 30 33 32 28 28 24 25 24 23 22 23 22 26 19 17 14 13 11 11 9 8 6 6 5 4 4 5 5 5 5 6 7 6 5 4 3 1
20 25 38 31 31 31 29 27 25 29 28 26 27 25 29 21 21 23 22 19 15 13 12 11 10 9 7 6 6 5 5 5 5 6 6 7 5 9 8 7 8 7 5
22 29 45 26 26 33 27 27 25 26 26 26 27 29 27 23 22 19 17 16 15 13 12 10 10 9 7 6 5 4 5 5 6 7 7 8 8 7 7 9 9 8 8
18 21 46 42 31 35 28 26 26 27 25 26 26 25 27 24 22 19 18 17 16 13 11 10 9 8 7 5 5 6 6 7 7 7 7 7 7 7 7 9 9 10 10
12 18 35 42 34 33 34 29 24 26 25 24 24 26 26 24 23 20 17 15 14 12 10 9 8 7 6 6 6 7 8 8 7 6 6 6 7 8 8 8 8 10 12
14 18 23 39 39 33 34 28 28 26 25 25 24 25 27 25 23 20 17 16 14 12 11 10 10 10 8 7 6 9 8 5 7 6 5 6 6 6 5 7 10 5 7
14 18 17 33 36 34 33 28 31 27 25 26 24 25 26 24 23 20 18 17 15 13 13 13 12 9 9 9 4 3 2 5 5 4 2 3 5 9 10 11 10 9 9
17 23 32 27 35 33 33 27 25 24 22 24 23 23 24 22 23 21 19 17 16 14 15 13 12 11 9 8 4 2 1 1 2 5 2 2 4 6 9 10 9 9 9
26 24 34 38 31 35 33 29 28 25 23 21 21 21 22 22 23 22 20 19 16 18 13 12 11 11 11 4 4 7 3 3 2 1 2 1 3 5 4 5 6 7 8
20 23 26 39 44 37 37 32 31 24 22 23 22 22 20 22 22 23 24 19 16 15 12 10 11 12 8 5 5 3 3 4 4 3 2 4 5 9 9 8 9 9 9
22 15 11 24 29 35 34 32 29 25 24 25 23 22 20 21 20 20 19 18 17 14 13 9 6 6 10 12 8 8 7 4 4 4 3 6 6 7 8 11 13 14 15